     2.11           OBSERVATION DATA    G (GPS)             RINEX VERSION / TYPE
teqc 2010Oct21 OPUS Account 20111027 19:29:34UTC            PGM / RUN BY / DATE
P 1526                                                      MARKER NAME
3050                                                        MARKER NUMBER
CSMIDDLETON NGS                                             OBSERVER / AGENCY
0220284361 TRIMBLE 5700 NP 1.22 / SP 1.22                   REC # / TYPE / VERS
12234991 TRM41249.00 NONE                                   ANT # / TYPE
  -751845.7842 -5572229.9604  3000865.5034                  APPROX POSITION XYZ
        2.0000        0.0000        0.0000                  ANTENNA: DELTA H/E/N
     1     1                                                WAVELENGTH FACT L1/2
     5    L1    L2    C1    P1    P2                        # / TYPES OF OBSERV
    15                                                      LEAP SECONDS
  2011     8    19    16    38   30.0000000     GPS         TIME OF FIRST OBS
                                                            END OF HEADER
 11  8 19 16 38 30.0000000  0 11G03G06G07G08G10G11G13G16G19G23G28
    157656.45757    111806.86255  21726567.0554                   21726566.0594
    221339.35957    159302.69454  23639592.2034                   23639591.2934
   -371339.07458   -277730.64056  21755153.4454                   21755150.7114
   -440266.60557   -330018.15254  23557807.4384                   23557806.3674
      7120.91456       646.84453  24241034.0634                   24241035.1764
   -469702.71557   -351762.17854  24168245.7814                   24168243.7384
    -44411.92258    -37317.47256  20206556.5864                   20206553.7274
    243303.80156    180018.76153  24220347.3204                   24220344.9884
   -151161.30158   -116146.63856  21022649.3594                   21022645.1684
    184310.05158    131266.84656  21102898.6884                   21102894.4534
   -412862.78556   -305356.58653  24124836.6804                   24124835.9774
 11  8 19 16 39  0.0000000  0 11G03G06G07G08G10G11G13G16G19G23G28
    194565.99647    140567.47845  21733590.8204                   21733589.1724
    272793.09446    199396.43544  23649383.0864                   23649382.6254
   -457618.71948   -344961.53146  21738734.7584                   21738732.1804
   -543257.59847   -410270.85544  23538208.6644                   23538207.5554
      8937.37946      2062.23943  24241380.0084                   24241380.8874
   -580814.06647   -438342.41343  24147101.6024                   24147100.3284
    -53932.09048    -44735.81046  20204745.0554                   20204742.2274
    298854.71146    223305.08843  24230917.4534                   24230916.7384
   -185376.40248   -142807.78446  21016138.1334                   21016134.0594
    227309.62548    164772.94646  21111081.1254                   21111077.2034
   -508750.27746   -380074.13043  24106590.1884                   24106588.5554
 11  8 19 16 39 30.0000000  0 11G03G06G07G08G10G11G13G16G19G23G28
    231782.28547    169567.14545  21740672.2584                   21740671.1914
    324391.87546    239603.20344  23659202.0944                   23659201.5784
   -543993.97748   -412266.92146  21722298.2734                   21722295.7344
   -646475.91847   -490700.72444  23518567.1884                   23518565.9574
     10929.32446      3614.31443  24241759.5234                   24241760.3754
   -692134.83247   -525085.81743  24125918.3834                   24125916.5274
    -63030.19548    -51825.27746  20203013.8914                   20203011.4414
    354174.46546    266411.31943  24241445.2664                   24241443.2624
   -219143.03948   -169119.46646  21009712.9534                   21009708.8594
    270588.61748    198496.77246  21119317.1954                   21119312.9884
   -604583.12946   -454748.98743  24088353.2584                   24088352.0314
 11  8 19 16 40  0.0000000  0 11G03G06G07G08G10G11G13G16G19G23G28
    269323.68047    198820.14345  21747816.7664                   21747815.9694
    376153.61946    279936.90744  23669052.3754                   23669051.4104
   -630442.93048   -479629.74446  21705847.5164                   21705845.1844
   -749900.49247   -571291.26844  23498885.9144                   23498884.7544
     13114.50446      5316.99843  24242174.5084                   24242175.1884
   -803641.67647   -611974.25843  24104698.5474                   24104697.1334
    -71686.04748    -58570.13946  20201366.8134                   20201363.9384
    409282.74246    309352.74043  24251932.4774                   24251930.1764
   -252440.61348   -195065.65346  21003376.5784                   21003372.4024
    314165.63748    232452.84546  21127609.3914                   21127605.3874
   -700340.64146   -529365.16343  24070131.5704                   24070130.8794
 11  8 19 16 40 30.0000000  0 11G03G06G07G08G10G11G13G16G19G23G28
    307197.77047    228332.35845  21755023.8284                   21755022.1174
    428085.99646    320403.65644  23678934.4774                   23678933.8914
   -716954.73848   -547041.53546  21689384.5784                   21689382.0824
   -853521.02047   -652034.55644  23479167.9614                   23479166.6564
     15500.72746      7176.39244  24242629.3134                   24242629.6524
   -915321.55947   -698997.46143  24083446.2274                   24083444.8794
    -79889.90248    -64962.78046  20199805.3054                   20199803.0004
    464188.19546    352136.12243  24262380.5784                   24262378.5274
   -285258.93448   -220638.39346  20997131.4774                   20997127.3484
    358048.16848    266646.95646  21135960.1334                   21135955.7034
   -796013.22746   -603915.20843  24051924.6254                   24051924.8634
 11  8 19 16 41  0.0000000  0 11G03G06G07G08G10G11G13G16G19G23G28
    345409.31347    258107.54845  21762295.5784                   21762293.6604
    480193.96946    361007.17044  23688849.8284                   23688849.9614
   -803520.70748   -614495.50846  21672912.1414                   21672909.2464
   -957329.39847   -732924.17744  23459413.1254                   23459412.6914
     18093.28046      9196.52544  24243122.2114                   24243123.3714
  -1027164.55947   -786147.79743  24062163.5634                   24062162.3444
    -87634.70748    -70997.71946  20198331.6724                   20198328.7974
    518897.19546    394766.47343  24272791.2034                   24272788.8594
   -317590.30948   -245831.69646  20990978.8594                   20990974.8874
    402241.55548    301083.30046  21144369.7584                   21144365.9884
   -891592.87146   -678392.82043  24033737.3754                   24033737.2384
 11  8 19 16 41 30.0000000  0 11G03G06G07G08G10G11G13G16G19G23G28
    383962.15647    288148.67245  21769631.8914                   21769629.9264
    532481.33646    401750.51844  23698800.6484                   23698799.8204
   -890133.00048   -681985.59546  21656429.8914                   21656427.3404
  -1061318.50047   -813954.59944  23439625.3134                   23439624.0274
     20896.42646     11380.72543  24243656.2344                   24243656.6094
  -1139161.68747   -873418.28643  24040851.5784                   24040849.8404
    -94914.43748    -76670.26946  20196946.5634                   20196943.7464
    573415.12946    437247.88943  24283165.2274                   24283163.5204
   -349428.11748   -270640.39246  20984920.4384                   20984916.4884
    446750.03948    335765.16946  21152839.4534                   21152835.8324
   -987073.46946   -752793.22743  24015567.7274                   24015566.9924
 11  8 19 16 42  0.0000000  0 11G03G06G07G08G10G11G13G16G19G23G28
    422875.13747    318470.43445  21777036.6884                   21777035.2234
    584966.66846    442648.11844  23708788.0234                   23708787.9064
   -976769.46548   -749494.50846  21639943.2344                   21639940.9414
  -1165466.94547   -895109.17744  23419805.7344                   23419805.0234
     23928.51646     13743.33343  24244232.9454                   24244233.3444
  -1251289.25447   -960790.35244  24019513.9534                   24019513.1334
   -101708.43748    -81964.33246  20195653.6484                   20195650.8714
    627761.81346    479595.84243  24293507.3524                   24293505.3404
   -380751.38347   -295048.14746  20978959.7194                   20978955.6484
    491592.40248    370707.22546  21161372.6564                   21161368.8014
  -1082434.26246   -827100.28343  23997422.0314                   23997420.5594
 11  8 19 16 42 30.0000000  0 11G03G06G07G08G10G11G13G16G19G23G28
    462182.82847    349099.77145  21784516.6564                   21784515.0944
    637685.21946    483727.43744  23718820.3594                   23718820.5124
  -1063391.35548   -816992.07646  21623459.8834                   21623457.5514
  -1269736.55547   -976358.22444  23399964.0084                   23399963.2114
     27224.71146     16311.76643  24244859.9534                   24244859.9344
  -1363507.05947  -1048232.74944  23998159.5704                   23998158.7344
   -107979.55948    -86850.94646  20194460.3204                   20194457.5084
    681973.41446    521838.52643  24303824.1954                   24303821.5554
   -411522.78548   -319025.87446  20973103.8834                   20973099.8834
    536803.71948    405936.75946  21169976.2814                   21169972.6334
  -1177637.60546   -901284.69544  23979304.7274                   23979304.5394
 11  8 19 16 43  0.0000000  0 11G03G06G07G08G10G11G13G16G19G23G28
    501904.58647    380051.72945  21792075.5234                   21792073.8954
    690655.71546    525003.09644  23728900.4304                   23728899.7664
  -1149975.92248   -884460.56746  21606983.6254                   21606980.8984
  -1374105.77047  -1057684.84944  23380103.4064                   23380102.1454
     30804.19146     19100.93143  24245541.6644                   24245541.9184
  -1475790.62947  -1135726.39943  23976792.2274                   23976791.6804
   -113706.87948    -91313.82446  20193370.4064                   20193367.8484
    736070.55546    563992.10444  24314119.2274                   24314116.6254
   -441720.51248   -342556.57746  20967357.8524                   20967353.3674
    582403.51248    441469.00546  21178653.6644                   21178649.6564
  -1272662.13746   -975329.75643  23961221.7114                   23961221.1844
 11  8 19 16 43 30.0000000  0 11G03G06G07G08G10G11G13G16G19G23G28
    542049.73447    411333.64445  21799714.4534                   21799713.2624
    743888.02346    566482.77944  23739029.6954                   23739029.7304
  -1236509.66848   -951889.45046  21590516.5314                   21590514.3834
  -1478560.95747  -1139078.48044  23360226.6174                   23360225.1094
     34676.97346     22118.60243  24246279.4064                   24246278.6884
  -1588124.71147  -1223259.39544  23955416.2894                   23955415.9804
   -118878.52048    -95343.70446  20192386.1174                   20192383.7704
    790064.75046    606065.42543  24324392.9844                   24324391.6094
   -471331.98848   -365630.45746  20961722.9924                   20961718.5314
    628402.24248    477312.10946  21187407.1954                   21187403.0124
  -1367495.42246  -1049225.77144  23943175.6174                   23943175.1804
 11  8 19 16 44  0.0000000  0 11G03G06G07G08G10G11G13G16G19G23G28
    582632.35547    442956.39845  21807437.4844                   21807436.6334
    797396.46946    608177.62544  23749212.2974                   23749212.2544
  -1322974.45748  -1019264.60046  21574063.1174                   21574060.4454
  -1583085.55946  -1220526.16544  23340335.7274                   23340335.2624
     38857.06346     25375.76744  24247073.9304                   24247073.9964
  -1700490.27347  -1310816.92243  23934033.2344                   23934032.8244
   -123478.36748    -98928.03546  20191510.9694                   20191508.0864
    843971.17646    648070.34643  24334652.0554                   24334650.0124
   -500340.80548   -388234.72646  20956202.6334                   20956198.3094
    674813.69148    513476.80246  21196238.7504                   21196235.0354
  -1462120.83246  -1122959.82743  23925169.3444                   23925168.0904
 11  8 19 16 44 30.0000000  0 11G03G06G07G08G10G11G13G16G19G23G28
    623662.84047    474928.17945  21815245.4694                   21815244.1454
    851191.24646    650095.59244  23759449.4224                   23759449.5704
  -1409356.27047  -1086575.10646  21557624.9774                   21557622.6564
  -1687665.90247  -1302017.33644  23320435.0394                   23320433.1954
     43354.91846     28880.55943  24247930.1644                   24247930.1414
  -1812871.64147  -1398386.75744  23912647.9304                   23912646.9844
   -127494.33248   -102057.39146  20190746.9694                   20190744.3284
    897801.65646    690016.15944  24344894.5554                   24344893.6134
   -528733.98848   -410359.30246  20950799.2664                   20950795.5234
    721648.62148    549971.49646  21205151.2034                   21205147.5944
  -1556525.93046  -1196522.15543  23907204.7664                   23907203.7734
 11  8 19 16 45  0.0000000  0 11G03G06G07G08G10G11G13G16G19G23G28
    665142.73447    507250.14045  21823138.9064                   21823137.8284
    905274.15246    692238.06644  23769740.2114                   23769740.8794
  -1495649.59047  -1153816.64346  21541203.7974                   21541201.6214
  -1792297.34847  -1383548.28644  23300523.8984                   23300523.2034
     48172.63346     32634.62743  24248847.3834                   24248847.2664
  -1925261.55147  -1485963.22044  23891260.7344                   23891260.4224
   -130922.44947   -104728.67146  20190094.2194                   20190091.5354
    951559.76646    731905.50144  24355124.8834                   24355123.9534
   -556507.64548   -432001.12746  20945514.3524                   20945510.3954
    768908.73048    586797.47946  21214144.6484                   21214140.2584
  -1650706.35546  -1269909.47444  23889282.2504                   23889281.6604
 11  8 19 16 45 30.0000000  0 11G03G06G07G08G10G11G13G16G19G23G28
    707072.10947    539922.33345  21831118.0394                   21831116.8094
    959644.81346    734604.77144  23780087.4844                   23780086.4884
  -1581850.98847  -1220986.57046  21524800.4384                   21524797.8284
  -1896977.14547  -1465116.93644  23280603.8364                   23280602.1914
     53309.56346     36637.33143  24249825.1334                   24249824.1134
  -2037655.18447  -1573542.58043  23869873.1954                   23869871.7304
   -133761.17248   -106940.69846  20189554.4534                   20189551.3554
   1005246.40246    773739.14743  24365340.7274                   24365340.1254
   -583659.61748   -453158.53446  20940347.5554                   20940343.3204
    816594.17648    623954.90246  21223219.1804                   21223215.0514
  -1744659.94946  -1343119.99843  23871404.0704                   23871402.7544
 11  8 19 16 46  0.0000000  0 11G03G06G07G08G10G11G13G16G19G23G28
    749445.81647    572940.75145  21839181.3674                   21839179.8444
   1014298.90246    777192.34144  23790486.9144                   23790487.3054
  -1667961.15248  -1288085.39746  21508414.1884                   21508411.8284
  -2001705.93447  -1546723.75244  23260674.9454                   23260673.3404
     58761.70746     40885.68543  24250861.9534                   24250862.2194
  -2150051.68447  -1661124.21243  23848484.1024                   23848483.7974
   -136013.01248   -108695.40946  20189125.8914                   20189122.7624
   1058858.83646    815514.98443  24375543.2584                   24375541.5554
   -610191.87148   -473833.03646  20935298.9534                   20935294.4064
    864700.64848    661440.39546  21232373.4144                   21232369.4414
  -1838389.15246  -1416155.65143  23853567.3674                   23853566.1684
 11  8 19 16 46 30.0000000  0 11G03G06G07G08G10G11G13G16G19G23G28
    792266.43048    606307.41945  21847330.1884                   21847328.2424
   1069238.75846    820002.54844  23800941.8834                   23800941.5824
  -1753973.70348  -1355108.16746  21492046.4924                   21492044.0664
  -2106478.62947  -1628364.79044  23240737.3054                   23240735.6844
     64531.36746     45381.49443  24251960.2814                   24251959.0594
  -2262443.23847  -1748702.00543  23827096.9694                   23827096.4804
   -137674.10248   -109989.79846  20188809.8134                   20188807.1054
   1112400.54346    857235.76543  24385731.7734                   24385730.6564
   -636099.71948   -494020.99446  20930368.6954                   20930364.5864
    913230.57448    699255.86246  21241608.5234                   21241604.2344
  -1931888.72346  -1489012.38843  23835774.5314                   23835773.8094
 11  8 19 16 47  0.0000000  0 11G03G06G07G08G10G11G13G16G19G23G28
    835531.08247    640020.07745  21855562.8914                   21855561.2154
   1124461.61746    863033.28344  23811450.2344                   23811449.8914
  -1839887.39547  -1422053.91446  21475697.5394                   21475694.9344
  -2211294.97347  -1710039.85044  23220791.3134                   23220789.4654
     70615.98046     50122.71143  24253117.4384                   24253117.4024
  -2374827.39546  -1836274.00144  23805711.3914                   23805710.2854
   -138745.18048   -110824.43446  20188606.1334                   20188603.3324
   1165870.36746    898900.49343  24395906.7894                   24395904.6914
   -661383.40248   -513722.59246  20925557.5084                   20925553.0084
    962181.57848    737399.43846  21250923.4694                   21250919.8954
  -2025159.16046  -1561690.57143  23818025.8444                   23818025.4384
 11  8 19 16 47 30.0000000  0 11G03G06G07G08G10G11G13G16G19G23G28
    879235.43447    674075.38245  21863879.8524                   21863877.6884
   1179963.58646    906281.53744  23822011.9614                   23822011.9454
  -1925702.55148  -1488922.87246  21459367.7194                   21459365.2624
  -2316155.61747  -1791749.38144  23200836.6174                   23200835.9224
     77011.84446     55106.45643  24254335.0554                   24254335.1414
  -2487202.37947  -1923838.85444  23784327.0394                   23784325.7344
   -139228.40248   -111200.99646  20188513.8984                   20188511.3444
   1219265.78946    940507.23143  24406067.3364                   24406065.6524
   -686044.76648   -532939.23446  20920864.2734                   20920860.5274
   1011549.86348    775868.16646  21260318.0944                   21260314.1174
  -2118202.19946  -1634191.59744  23800320.5634                   23800319.6604
 11  8 19 16 48  0.0000000  0 11G03G06G07G08G10G11G13G16G19G23G28
    923379.23047    708473.08445  21872279.7814                   21872278.8404
   1235743.92646    949746.61644  23832627.3524                   23832625.8554
  -2011415.93447  -1555712.51946  21443056.6564                   21443054.3874
  -2421057.87147  -1873491.37544  23180874.8204                   23180873.2664
     83718.21946     60332.16443  24255611.0944                   24255610.6524
  -2599564.20346  -2011393.46043  23762945.0864                   23762943.7894
   -139122.23848   -111118.29646  20188534.2034                   20188531.6564
   1272588.19946    982057.12743  24416213.4694                   24416212.1524
   -710082.14548   -551669.67046  20916290.4534                   20916286.0594
   1061334.88348    814661.62646  21269791.8364                   21269787.8324
  -2211015.85246  -1706513.81943  23782658.6414                   23782657.6484
 11  8 19 16 48 30.0000000  0 11G03G06G07G08G10G11G13G16G19G23G28
    967959.07047    743210.57245  21880763.5004                   21880761.8954
   1291800.11346    993426.69143  23843294.6174                   23843292.2814
  -2097026.50048  -1622422.04846  21426765.4694                   21426763.3204
  -2526001.58647  -1955265.69244  23160904.7194                   23160903.1094
     90732.40646     65797.74843  24256945.6804                   24256945.5554
  -2711909.88746  -2098935.54443  23741566.0234                   23741565.4144
   -138427.47748   -110576.95646  20188666.5634                   20188663.8054
   1325836.22746   1023548.96143  24426347.0784                   24426344.6644
   -733495.87548   -569914.14046  20911834.8134                   20911831.1764
   1111533.93848    853777.70946  21279344.3914                   21279340.4064
  -2303600.75046  -1778657.86944  23765040.3984                   23765039.3164
 11  8 19 16 49  0.0000000  0 11G03G06G07G08G10G11G13G16G19G23G28
   1012975.62147    778288.33845  21889329.3914                   21889328.1644
   1348132.39546   1037321.90544  23854014.8524                   23854011.5944
  -2182529.73848  -1689047.95046  21410494.6724                   21410492.1524
  -2630982.71147  -2037069.15744  23140927.3204                   23140926.0354
     98054.64146     71503.23743  24258339.7424                   24258339.2274
  -2824233.94146  -2186460.77043  23720191.9614                   23720190.5664
   -137142.48848   -109575.69146  20188911.2194                   20188908.0864
   1379012.04746   1064984.55043  24436466.1724                   24436463.4884
   -756283.04348   -587670.38046  20907498.5394                   20907494.4224
   1162147.54348    893216.81946  21288975.7664                   21288972.1994
  -2395953.95746  -1850621.31944  23747465.8674                   23747464.6804
 11  8 19 16 49 30.0000000  0 11G03G06G07G08G10G11G13G16G19G23G28
   1058422.99247    813701.83145  21897977.6804                   21897976.6684
   1404735.42246   1081428.08444  23864786.2114                   23864783.0904
  -2267927.13748  -1755591.37446  21394244.1254                   21394241.5314
  -2736003.82047  -2118903.77344  23120942.5864                   23120941.2274
    105679.44146     77444.65643  24259790.5394                   24259791.1054
  -2936536.04347  -2273968.85044  23698821.2584                   23698820.8324
   -135270.97748   -108117.40046  20189267.1954                   20189264.2974
   1432111.48846   1106360.64143  24446571.4224                   24446568.1484
   -778447.59848   -604941.46846  20903280.6334                   20903276.7814
   1213170.34848    932974.79146  21298685.2504                   21298681.4224
  -2488078.64847  -1922406.76344  23729935.3134                   23729934.0354
 11  8 19 16 50  0.0000000  0 11G03G06G07G08G10G11G13G16G19G23G28
   1104303.28947    849452.67145  21906708.5944                   21906707.2584
   1461610.95746   1125746.60344  23875609.1334                   23875605.5164
  -2353213.13348  -1822047.98746  21378014.5784                   21378012.8834
  -2841059.91447  -2200765.62544  23100950.2274                   23100950.1174
    113608.69946     83623.16743  24261299.2974                   24261299.2584
  -3048808.94547  -2361454.18644  23677457.0164                   23677455.0084
   -132809.28948   -106199.22946  20189735.5474                   20189732.8594
   1485138.43846   1147680.22843  24456661.9534                   24456659.1254
   -799984.90648   -621723.78546  20899182.3674                   20899178.2624
   1264604.40648    973053.22146  21308472.4774                   21308468.5594
  -2579970.69547  -1994010.93144  23712449.2114                   23712447.6454
 11  8 19 16 50 30.0000000  0 11G03G06G07G08G10G11G13G16G19G23G28
   1150615.25447    885539.88045  21915521.5704                   21915519.9844
   1518758.27746   1170276.89744  23886484.0234                   23886479.8094
  -2438384.61347  -1888415.37746  21361807.3984                   21361804.8444
  -2946148.38347  -2282652.75944  23080953.3284                   23080952.2114
    121841.96146     90038.63243  24262866.0394                   24262866.5354
  -3161048.49647  -2448913.59644  23656098.2034                   23656096.7194
   -129756.68748   -103820.60946  20190316.3834                   20190313.5164
   1538093.19146   1188943.57343  24466739.5634                   24466736.8014
   -820894.08248   -638016.64546  20895203.2034                   20895199.5434
   1316449.06348   1013451.58646  21318338.7114                   21318334.9654
  -2671628.54747  -2065432.59844  23695007.3204                   23695005.7464
 11  8 19 16 51  0.0000000  0 11G03G06G07G08G10G11G13G16G19G23G28
   1197357.07447    921962.04545  21924415.6644                   21924414.8594
   1576175.85946   1215017.80643  23897410.2194                   23897406.1684
  -2523438.98447  -1954691.51346  21345621.6954                   21345619.4384
  -3051267.53947  -2364563.73444  23060950.2734                   23060948.7894
    130377.78946     96689.88943  24264491.4454                   24264491.1174
  -3273250.25447  -2536343.49844  23634746.9694                   23634745.6484
   -126112.27348   -100980.83846  20191010.0864                   20191007.3244
   1590975.88746   1230150.75643  24476802.6334                   24476801.0274
   -841174.39848   -653819.48946  20891344.1724                   20891340.2384
   1368702.57448   1054168.54746  21328282.0944                   21328278.3794
  -2763050.97347  -2136670.80044  23677610.0784                   23677608.7504
 11  8 19 16 51 30.0000000  0 11G03G06G07G08G10G11G13G16G19G23G28
   1244527.06347    958717.83245  21933392.0004                   21933390.6564
   1633862.10246   1259968.03043  23908388.4304                   23908383.3444
  -2608374.00847  -2020874.64346  21329459.4064                   21329456.8444
  -3156415.78147  -2446497.45144  23040940.4844                   23040938.8364
    139214.47346    103575.58343  24266172.2734                   24266171.9614
  -3385410.89847  -2623741.39844  23613403.6644                   23613402.3754
   -121877.25848    -97680.86546  20191816.0474                   20191813.1604
   1643786.87147   1271302.14443  24486852.3204                   24486850.3054
   -860825.23048   -669131.81546  20887604.9614                   20887600.5744
   1421363.39148   1095202.89546  21338303.0864                   21338299.2424
  -2854237.96147  -2207725.55944  23660257.7114                   23660256.6724
 11  8 19 16 52  0.0000000  0 11G03G06G07G08G10G11G13G16G19G23G28
   1292120.26247    995803.41345  21942449.5944                   21942447.3954
   1691812.18446   1305123.91143  23919415.1804                   23919410.0124
  -2693190.78148  -2086965.63846  21313319.1024                   21313316.8404
  -3261594.52747  -2528454.84645  23020925.8524                   23020925.2464
    148346.93046    110691.77843  24267910.0084                   24267909.7234
  -3497529.79747  -2711106.80444  23592067.8984                   23592066.7774
   -117054.49648    -93922.90146  20192733.8984                   20192730.8484
   1696522.55546   1312394.78643  24496887.2344                   24496886.0594
   -879849.27748   -683955.74446  20883984.5164                   20883980.4694
   1474427.06348   1136551.15046  21348400.8134                   21348397.1604
  -2945191.78947  -2278598.65844  23642949.2504                   23642948.5204
 11  8 19 16 52 30.0000000  0 11G03G06G07G08G10G11G13G16G19G23G28
   1340140.99647   1033222.12144  21951587.3284                   21951585.0554
   1750030.60947   1350488.83643  23930494.3134                   23930490.0434
  -2777880.92248  -2152957.93846  21297202.9064                   21297200.7194
  -3366796.01647  -2610430.00444  23000906.2504                   23000905.0124
    157779.56646    118041.79843  24269704.8914                   24269704.8914
  -3609596.81647  -2798431.72444  23570742.1804                   23570740.9494
   -111637.58648    -89701.96246  20193764.6174                   20193761.9224
   1749189.36746   1353433.78443  24506908.9224                   24506908.3874
   -898240.23048   -698286.34046  20880484.9844                   20880480.8754
   1527898.00848   1178216.75646  21358576.3364                   21358572.6684
  -3035905.43046  -2349284.57344  23625687.2814                   23625686.4184
 11  8 19 16 53  0.0000000  0 11G03G06G07G08G10G11G13G16G19G23G28
   1388584.08247   1070969.95545  21960805.6884                   21960803.5164
   1808512.52746   1396059.11843  23941622.8054                   23941618.5474
  -2862444.75448  -2218851.83546  21281111.4224                   21281108.6374
  -3472021.96547  -2692424.21745  22980883.1724                   22980881.8364
    167507.65246    125622.07943  24271555.9224                   24271556.5164
  -3721611.27746  -2885715.72044  23549426.8524                   23549425.0514
   -105629.89848    -85020.68246  20194907.6644                   20194904.8524
   1801784.16046   1394416.66943  24516917.0864                   24516916.5354
   -916000.82848   -712125.76346  20877105.5004                   20877101.1294
   1581771.36748   1220195.92846  21368828.0234                   21368824.1214
  -3126381.63747  -2419785.47144  23608470.2504                   23608468.9574
 11  8 19 16 53 30.0000000  0 11G03G06G07G08G10G11G13G16G19G23G28
   1437446.82847   1109044.79145  21970104.5004                   21970101.5664
   1867255.57846   1441832.88143  23952800.5554                   23952797.4184
  -2946880.78547  -2284646.13046  21265043.6644                   21265041.2074
  -3577271.28547  -2774436.62544  22960854.7974                   22960852.3324
    177528.91446    133430.75943  24273462.3914                   24273463.4454
  -3833570.60247  -2972956.73343  23528122.0474                   23528120.1024
    -99032.16448    -79879.61346  20196163.7894                   20196161.0474
   1854306.17646   1435342.78643  24526912.0704                   24526911.2154
   -933131.54748   -725474.38146  20873845.2344                   20873841.4924
   1636044.61348   1262486.71946  21379155.9694                   21379152.0084
  -3216620.60947  -2490101.52844  23591298.2894                   23591297.0784
 11  8 19 16 54  0.0000000  0 11G03G06G07G08G10G11G13G16G19G23G28
   1486727.71547   1147445.43844  21979482.1954                   21979479.5704
   1926258.11346   1487808.82243  23964029.4614                   23964026.1454
  -3031186.82848  -2350339.14746  21249000.7974                   21248998.3554
  -3682542.43747  -2856466.07244  22940821.7114                   22940821.6604
    187841.50846    141466.48143  24275425.1414                   24275426.1294
  -3945470.69146  -3060151.61144  23506827.2664                   23506826.0044
    -91844.78148    -74279.08746  20197531.0164                   20197528.5274
   1906755.51246   1476212.30443  24536892.3594                   24536892.7814
   -949631.87548   -738331.78846  20870705.3134                   20870701.1564
   1690716.38348   1305088.03246  21389559.6414                   21389555.7734
  -3306621.64847  -2560232.11644  23574171.8594                   23574170.5864
 11  8 19 16 54 30.0000000  0 11G03G06G07G08G10G11G13G16G19G23G28
   1536428.36747   1186173.19544  21988939.7114                   21988937.5594
   1985522.25046   1533988.57643  23975306.7814                   23975303.7274
  -3115356.94148  -2415926.23346  21232983.7114                   21232981.0664
  -3787829.81647  -2938508.16344  22920786.6414                   22920784.2194
    198447.60546    149730.94043  24277444.0234                   24277444.7304
  -4057303.85946  -3147294.36444  23485546.2274                   23485545.0594
    -84064.10248    -68216.25146  20199011.5864                   20199009.2734
   1959136.05946   1517028.22243  24546860.3134                   24546860.1454
   -965497.93748   -750694.96946  20867686.2974                   20867681.9844
   1745788.71548   1348001.48646  21400039.6724                   21400035.8524
  -3396380.21547  -2630173.83144  23557091.0164                   23557089.6994
 11  8 19 16 55  0.0000000  0 11G03G06G07G08G10G11G13G16G19G23G28
   1586542.18047   1225222.88444  21998475.8914                   21998474.2544
   2045041.78146   1580367.38243  23986633.1884                   23986630.1054
  -3199393.22748  -2481409.04446  21216992.0394                   21216989.6054
  -3893136.09047  -3020564.94445  22900747.5634                   22900746.9184
    209340.87946    158219.07543  24279516.9774                   24279517.1604
  -4169071.18446  -3234385.78044  23464278.0784                   23464275.8674
    -75694.96148    -61694.87446  20200604.3674                   20200601.7814
   2011443.05146   1557786.81043  24556813.9144                   24556813.0944
   -980734.03548   -762567.26546  20864787.1024                   20864782.8594
   1801255.62548   1391222.39646  21410594.9384                   21410590.6024
  -3485900.42247  -2699929.80844  23540056.0394                   23540055.0234
 11  8 19 16 55 30.0000000  0 11G03G06G07G08G10G11G13G16G19G23G28
   1637066.69147   1264592.60145  22008090.3834                   22008089.1454
   2104814.18846   1626943.22943  23998007.4454                   23998004.7734
  -3283294.11748  -2546786.34946  21201026.1564                   21201023.8244
  -3998460.71547  -3102636.04344  22880704.5634                   22880702.5594
    220518.62146    166928.97143  24281644.3134                   24281644.0164
  -4280769.56246  -3321423.42343  23443022.5164                   23443020.8794
    -66738.32048    -54715.69946  20202308.6884                   20202305.9654
   2063675.84046   1598487.57443  24566754.0004                   24566752.6884
   -995340.94948   -773949.29946  20862007.1564                   20862003.0394
   1857113.98848   1434748.33045  21421224.0314                   21421220.2464
  -3575182.47746  -2769500.17244  23523066.1564                   23523064.5744
 11  8 19 16 56  0.0000000  0 11G03G06G07G08G10G11G13G16G19G23G28
   1688002.23447   1304282.62045  22017782.7584                   22017782.4104
   2164840.10246   1673716.59843  24009430.3284                   24009427.4344
  -3367054.41048  -2612054.10946  21185087.2114                   21185084.7304
  -4103799.79747  -3184718.42244  22860659.7194                   22860658.8674
    231981.70746    175861.23543  24283825.6564                   24283825.3714
  -4392393.21146  -3408402.95044  23421780.3834                   23421779.8554
    -57192.21948    -47277.20746  20204125.2274                   20204122.7704
   2115836.88346   1639132.52042  24576680.2814                   24576676.7154
  -1009316.04748   -784838.98446  20859347.9614                   20859343.7584
   1913364.87148   1478580.12746  21431928.7274                   21431924.9694
  -3664223.76247  -2838882.94344  23506121.3594                   23506120.8244
 11  8 19 16 56 30.0000000  0 11G03G06G07G08G10G11G13G16G19G23G28
   1739338.93447   1344285.18045  22027551.7424                   22027551.4264
   2225109.87146   1720680.00143  24020898.8754                   24020896.8714
  -3450680.84048  -2677217.55646  21169174.0164                   21169170.8954
  -4209159.21947  -3266816.64645  22840609.9774                   22840608.3754
    243720.15646    185007.98143  24286059.5004                   24286059.2974
  -4503945.86346  -3495327.05943  23400552.9454                   23400551.9144
    -47064.89148    -39385.81046  20206052.8134                   20206050.1604
   2167918.13346   1679715.23042  24586591.1884                   24586587.8714
  -1022667.26248   -795242.54446  20856807.1334                   20856803.1414
   1969998.38348   1522710.07746  21442705.5474                   21442701.8324
  -3753031.68446  -2908083.89143  23489222.3674                   23489221.0554
 11  8 19 16 57  0.0000000  0 11G03G06G07G08G10G11G13G16G19G23G28
   1791077.03147   1384600.54645  22037397.3914                   22037396.7774
   2285623.91046   1767833.74243  24032413.8444                   24032412.4384
  -3534168.48848  -2742272.86446  21153286.2114                   21153283.8714
  -4314535.39847  -3348927.90145  22820557.1884                   22820556.3674
    255734.37546    194369.63243  24288345.2114                   24288345.9534
  -4615421.72747  -3582191.34144  23379339.7194                   23379338.8594
    -36354.64548    -31040.19146  20208090.9534                   20208088.3164
   2219922.13746   1720237.79742  24596488.9614                   24596484.2974
  -1035392.07048   -805157.99246  20854385.7504                   20854381.8054
   2027014.84048   1567138.42445  21453555.7734                   21453551.7304
  -3841603.32847  -2977100.74343  23472367.8524                   23472365.9534
 11  8 19 16 57 30.0000000  0 11G03G06G07G08G10G11G13G16G19G23G28
   3418628.58647   2652822.49745  22347110.8524                   22347110.0594
   3921794.81646   3042772.01743  24343766.8754                   24343766.0944
  -2042095.73048  -1579618.75646  21437218.6024                   21437215.9534
  -2844506.60947  -2203450.94644  23100294.3204                   23100293.0204
   1843438.33646   1431541.50143  24590475.4844                   24590475.8794
  -3151397.20747  -2441392.98544  23657934.2734                   23657932.9614
   1550354.12148   1205356.21946  20510031.5234                   20510028.7234
   3847263.15646   2988295.68842  24906159.6254                   24906157.5784
    527926.05148    413011.95746  21151875.5234                   21151871.3594
   3659826.77348   2839459.34745  21764268.9454                   21764265.3134
  -2354518.93047  -1818333.67244  23755350.5164                   23755348.4494
 11  8 19 16 58  0.0000000  0 11G03G06G07G08G10G11G13G16G19G23G28
   3471155.75847   2693752.72645  22357106.5004                   22357105.6054
   3982785.16046   3090296.91343  24355373.0394                   24355372.3594
  -2125305.66048  -1644457.65846  21421383.9694                   21421381.6914
  -2949918.25447  -2285589.85545  23080235.6564                   23080234.0634
   1855991.47746   1441323.14243  24592864.2344                   24592865.0164
  -3262715.73447  -2528134.65244  23636751.3054                   23636750.2344
   1562221.78548   1214603.72146  20512289.3364                   20512287.2504
   3899104.66046   3028691.63342  24916026.0704                   24916023.7704
    516446.25048    404066.65046  21149691.1644                   21149687.0554
   3717596.64548   2884474.76446  21775262.2664                   21775258.5744
  -2442624.09847  -1886986.99144  23738584.7584                   23738582.9304
 11  8 19 16 58 30.0000000  0 11G03G06G07G08G10G11G13G16G19G23G28
   3524075.21947   2734988.64445  22367176.8914                   22367175.5394
   4044011.84846   3138005.94043  24367024.1024                   24367023.5554
  -2208372.69548  -1709185.21746  21405576.8834                   21405574.4734
  -3055344.52047  -2367740.19444  23060173.7274                   23060171.4224
   1868812.00046   1451312.99443  24595303.3754                   24595304.0394
  -3373949.05947  -2614809.90744  23615583.6024                   23615582.7814
   1574668.35548   1224302.31746  20514658.1484                   20514655.5824
   3950866.04346   3069025.07442  24925874.4844                   24925873.8324
    505589.79748    395607.05446  21147625.0084                   21147620.7624
   3775741.27348   2929782.19746  21786326.9144                   21786323.5904
  -2530494.34047  -1955457.26844  23721863.8134                   23721862.1334
 11  8 19 16 59  0.0000000  0 11G03G06G07G08G10G11G13G16G19G23G28
   3577375.29347   2776521.13645  22377319.5394                   22377318.5594
   4105463.13746   3185889.92943  24378718.4304                   24378716.5594
  -2291304.54748  -1773807.42946  21389795.5704                   21389793.0204
  -3160793.34847  -2449908.05044  23040107.5234                   23040106.2154
   1881888.02346   1461502.05543  24597791.9844                   24597792.3484
  -3485103.61747  -2701423.80044  23594432.1254                   23594431.1844
   1587683.22748   1234443.73546  20517135.0944                   20517132.0354
   4002537.29346   3109288.32643  24935707.4454                   24935708.0124
    495346.68048    387625.39346  21145675.9064                   21145671.5204
   3834248.72748   2975372.36546  21797460.7894                   21797457.1684
  -2618139.64147  -2023752.27344  23705185.2114                   23705183.8714
 11  8 19 16 59 30.0000000  0 11G03G06G07G08G10G11G13G16G19G23G28
   3631060.14547   2818353.47345  22387535.2974                   22387534.3484
   4167143.22346   3233952.30543  24390455.1564                   24390453.4774
  -2374092.66048  -1838317.63646  21374041.6024                   21374038.7344
  -3266257.46947  -2532087.87945  23020038.0864                   23020036.7504
   1895223.80946   1471893.57743  24600330.2584                   24600330.2344
  -3596169.48447  -2787968.59244  23573297.1414                   23573295.9774
   1601271.94548   1245032.31846  20519720.7894                   20519718.1024
   4054124.40246   3149486.02643  24945524.5314                   24945524.8284
    485722.87148    380126.30846  21143844.3054                   21143840.2584
   3893123.20348   3021248.50246  21808663.9694                   21808660.8404
  -2705553.21147  -2091866.71244  23688550.5314                   23688549.6024
 11  8 19 17  0  0.0000000  0 11G03G06G07G08G10G11G13G16G19G23G28
   3685126.50047   2860483.10644  22397823.1094                   22397823.2034
   4229049.67246   3282191.02343  24402235.9614                   24402234.6024
  -2456735.39548  -1902714.56846  21358315.0164                   21358312.5434
  -3371736.14847  -2614279.03444  22999966.1414                   22999964.1174
   1908816.75446   1482485.40743  24602917.0474                   24602917.8554
  -3707143.93447  -2874442.15744  23552179.1024                   23552178.1414
   1615432.91848   1256066.80946  20522415.3594                   20522412.9924
   4105626.53946   3189617.51443  24955325.1564                   24955325.4494
    476717.36748    373109.01846  21142130.6484                   21142126.7034
   3952362.15248   3067408.66246  21819937.3754                   21819933.5554
  -2792735.63746  -2159800.99244  23671959.6884                   23671959.2194
 11  8 19 17  0 30.0000000  0 11G03G06G07G08G10G11G13G16G19G23G28
   3739569.90247   2902906.51944  22408183.6644                   22408182.5434
   4291178.35246   3330602.91343  24414058.6484                   24414057.2154
  -2539232.93448  -1966998.35846  21342616.2424                   21342613.6454
  -3477229.31247  -2696481.46445  22979891.0474                   22979890.0274
   1922662.68046   1493274.33443  24605551.6804                   24605553.1454
  -3818025.35247  -2960843.20944  23531079.0554                   23531077.9884
   1630163.55148   1267545.20346  20525218.5164                   20525216.1214
   4157041.58646   3229681.13343  24965109.3914                   24965109.5204
    468327.51248    366571.45946  21140534.1254                   21140530.2074
   4011961.37548   3113849.55246  21831278.5634                   21831275.0204
  -2879688.76647  -2227556.60444  23655413.4614                   23655412.5354
 11  8 19 17  1  0.0000000  0 11G03G06G07G08G10G11G13G16G19G23G28
   3794388.40647   2945622.21844  22418615.1334                   22418613.8444
   4353527.50046   3379186.64243  24425923.5634                   24425922.0084
  -2621583.14148  -2031167.34946  21326945.4924                   21326943.5394
  -3582735.71147  -2778694.22144  22959814.2504                   22959812.8914
   1936759.55946   1504258.89843  24608234.3364                   24608234.6374
  -3928810.23847  -3047169.04244  23509997.9614                   23509996.1804
   1645463.29748   1279467.04946  20528130.0164                   20528127.6604
   4208369.61346   3269676.98343  24974876.0474                   24974875.7074
    460553.29748    360513.61046  21139055.0704                   21139050.7814
   4071918.66848   3160569.45646  21842687.9694                   21842684.6174
  -2966412.36347  -2295133.37844  23638910.2274                   23638909.1564
 11  8 19 17  1 30.0000000  0 10G03G06G07G08G10G11G13G19G23G28
   3849576.63746   2988625.99144  22429116.6334                   22429115.7974
   4416092.30946   3427938.38843  24437828.7894                   24437827.8594
  -2703786.58648  -2095221.98546  21311302.9534                   21311300.4844
  -3688256.76647  -2860918.32945  22939734.6884                   22939733.3554
   1951102.49646   1515435.11743  24610963.9144                   24610964.3244
  -4039497.77747  -3133419.07244  23488934.1954                   23488933.2154
   1661328.28148   1291829.34146  20531149.1024                   20531146.4884
    453391.39548    354932.89646  21137691.9844                   21137687.7274
   4132229.49248   3207564.83346  21854164.8134                   21854161.4614
  -3052909.02747  -2362533.33244  23622451.0554                   23622450.0084
 11  8 19 17  2  0.0000000  0 10G03G06G07G08G10G11G13G19G23G28
   3905133.52347   3031917.06544  22439689.0474                   22439686.9344
   4478871.54746   3476857.19543  24449775.5314                   24449774.1884
  -2785840.15648  -2159159.83046  21295688.4774                   21295685.7774
  -3793789.64847  -2943151.75245  22919651.8524                   22919651.3094
   1965689.95346   1526801.89643  24613739.8594                   24613740.3874
  -4150083.57847  -3219589.73044  23467890.1414                   23467889.0474
   1677758.39148   1304632.00246  20534275.7034                   20534272.8984
    446842.18848    349829.61546  21136445.7814                   21136441.7234
   4192892.24648   3254834.44946  21865708.3444                   21865705.0664
  -3139177.85547  -2429755.76844  23606034.5234                   23606033.0824
 11  8 19 17  2 30.0000000  0 10G03G06G07G08G10G11G13G19G23G28
   3961065.88346   3075500.70044  22450332.4774                   22450330.6254
   4541872.54346   3525948.75843  24461763.8594                   24461762.5594
  -2867732.51648  -2222972.05746  21280104.8054                   21280102.1214
  -3899324.07447  -3025386.31044  22899569.2424                   22899567.7194
   1980529.09846   1538364.85443  24616562.8594                   24616564.0554
  -4260555.04347  -3305671.34344  23446868.6884                   23446866.8834
   1694762.00048   1317881.54146  20537511.3754                   20537509.1684
    440914.18447    345210.37546  21135317.5004                   21135313.2814
   4253914.01248   3302383.80346  21877320.8754                   21877317.4104
  -3225209.52047  -2496793.38944  23589663.5474                   23589662.0704
 11  8 19 17  3  0.0000000  0 10G03G06G07G08G10G11G13G19G23G28
   4017367.71546   3119372.19644  22461045.9694                   22461044.2934
   4605089.97746   3575209.01443  24473795.0944                   24473793.1214
  -2949465.16448  -2286659.83146  21264551.6334                   21264549.1094
  -4004861.81647  -3107623.49645  22879486.0634                   22879485.2034
   1995614.41046   1550119.48243  24619433.3984                   24619434.2584
  -4370912.09047  -3391663.79444  23425868.3204                   23425866.6524
   1712335.35248   1331575.01446  20540855.8364                   20540853.1294
    435603.53547    341072.20746  21134306.9064                   21134302.8204
   4315288.96548   3350208.38845  21888999.7974                   21888996.4534
  -3311007.29347  -2563648.71944  23573336.3834                   23573334.5084
 11  8 19 17  3 30.0000000  0 10G03G06G07G08G10G11G13G19G23G28
   4074039.71946   3163532.18144  22471830.8674                   22471828.4264
   4668524.47746   3624638.46543  24485866.0004                   24485863.5984
  -3031033.18048  -2350219.31946  21249029.7034                   21249027.2664
  -4110398.25447  -3189859.63545  22859403.0864                   22859401.1884
   2010946.53946   1562066.50243  24622352.2974                   24622352.9884
  -4481148.31247  -3477562.12344  23404890.6484                   23404889.5594
   1730479.17648   1345713.03146  20544308.0234                   20544305.5944
    430912.44548    337416.80746  21133414.1334                   21133410.0434
   4377018.09848   3398308.93845  21900746.9774                   21900742.7154
  -3396568.31647  -2630319.58744  23557054.3204                   23557053.3204
 11  8 19 17  4  0.0000000  0 10G03G06G07G08G10G11G13G19G23G28
   4131072.42246   3207973.18744  22482684.2424                   22482681.4614
   4732166.91446   3674229.86643  24497976.6724                   24497974.5554
  -3112441.51648  -2413654.37346  21233538.3444                   21233535.6724
  -4215939.31247  -3272099.38745  22839319.3204                   22839318.4924
   2026516.34846   1574198.74943  24625314.6024                   24625315.5314
  -4591267.35947  -3563369.06344  23383935.6724                   23383933.9924
   1749185.84848   1360289.62946  20547867.6884                   20547865.5944
    426833.06347    334238.06346  21132637.9454                   21132634.0704
   4439092.03948   3446678.17645  21912559.3524                   21912555.6024
  -3481899.71147  -2696811.51844  23540816.2034                   23540815.1604
 11  8 19 17  4 30.0000000  0 10G03G06G07G08G10G11G13G19G23G28
   4188461.99647   3252692.30244  22493604.9064                   22493602.5434
   4796014.05146   3723980.83543  24510126.6564                   24510122.8634
  -3193689.21948  -2476964.26346  21218076.9844                   21218074.6054
  -4321484.77747  -3354342.61945  22819234.8054                   22819233.4614
   2042320.02046   1586513.25643  24628322.8524                   24628322.7814
  -4701266.92646  -3649082.98943  23363003.4694                   23363001.6564
   1768452.75048   1375302.76346  20551534.4384                   20551531.6994
    423363.75847    331534.71246  21131978.1804                   21131973.9614
   4501507.12147   3495313.23145  21924436.0394                   21924433.2504
  -3567002.67647  -2763125.48244  23524621.4924                   23524620.3244
 11  8 19 17  5  0.0000000  0 10G03G06G07G08G10G11G13G19G23G28
   4246201.16047   3297683.77544  22504592.7194                   22504590.4064
   4860058.71146   3773885.68043  24522315.0864                   24522310.5044
  -3274779.24248  -2540151.27646  21202646.4614                   21202643.9224
  -4427038.14847  -3436591.95245  22799148.5554                   22799147.5204
   2058350.07846   1599004.14043  24631373.2664                   24631372.6134
  -4811148.80947  -3734705.18043  23342093.3364                   23342091.6604
   1788273.82848   1390747.73346  20555306.4064                   20555303.8634
    420498.43448    329301.99746  21131433.0234                   21131428.8444
   4564255.77347   3544208.21345  21936376.7034                   21936373.4224
  -3651882.29747  -2829265.40944  23508469.4844                   23508468.1844
 11  8 19 17  5 30.0000000  0 10G03G06G07G08G10G11G13G19G23G28
   4304286.41447   3342944.97144  22515646.2894                   22515644.1804
   4924297.96546   3823942.16943  24534538.6334                   24534535.1054
  -3355710.50448  -2603214.58346  21187245.5394                   21187243.0944
  -4532598.71947  -3518846.90945  22779061.2034                   22779060.3794
   2074603.68846   1611669.22843  24634465.6334                   24634465.6454
  -4920910.27747  -3820233.54644  23321206.2274                   23321204.9964
   1808647.31348   1406623.13146  20559183.0474                   20559180.6484
    418235.84848    327538.95546  21131001.8984                   21130997.5904
   4627335.15248   3593360.89545  21948380.2734                   21948377.4414
  -3736539.44947  -2895231.94944  23492359.7194                   23492358.4654
 11  8 19 17  6  0.0000000  0 10G03G06G07G08G10G11G13G19G23G28
   4362712.67647   3388471.88944  22526764.4614                   22526762.9884
   4988727.05546   3874146.62043  24546797.9224                   24546797.0394
  -3436483.78948  -2666154.77446  21171874.8914                   21171872.5274
  -4638167.77747  -3601108.49045  22758971.8284                   22758969.9614
   2091075.77746   1624504.49043  24637600.0704                   24637601.0474
  -5030550.79746  -3905667.71544  23300342.3134                   23300341.3404
   1829568.92248   1422925.64646  20563164.3054                   20563162.2074
    416572.02747    326242.47746  21130685.6254                   21130681.5004
   4690740.25848   3642767.41145  21960446.2424                   21960443.0234
  -3820977.07047  -2961027.45444  23476291.8284                   23476290.9264
 11  8 19 17  6 30.0000000  0 10G03G06G07G08G10G11G13G19G23G28
   4421479.16847   3434263.88944  22537946.9454                   22537945.9384
   5053345.48046   3924498.61543  24559094.7814                   24559094.2424
  -3517095.30148  -2728968.93546  21156535.3364                   21156532.7974
  -4743742.26247  -3683374.32845  22738881.9224                   22738880.5594
   2107765.57847   1637509.45643  24640776.4144                   24640777.3954
  -5140065.14846  -3991003.51444  23279502.6804                   23279501.9184
   1851039.37948   1439655.83146  20567250.2894                   20567248.0824
    415507.81648    325413.21946  21130482.7664                   21130478.6884
   4754470.12548   3692426.93445  21972573.5234                   21972570.2624
  -3905193.27347  -3026650.43744  23460266.1644                   23460264.8444
 11  8 19 17  7  0.0000000  0 10G03G06G07G08G10G11G13G19G23G28
   4480579.55147   3480316.08044  22549193.9144                   22549192.4654
   5118147.16846   3974993.27643  24571425.7734                   24571426.0044
  -3597547.16448  -2791658.68946  21141225.6414                   21141223.2464
  -4849324.79747  -3765646.40645  22718790.0784                   22718788.4924
   2124666.95747   1650679.22743  24643993.4064                   24643993.1054
  -5249454.04747  -4076241.59244  23258686.7194                   23258685.1214
   1873053.13748   1456809.37146  20571439.4614                   20571437.1644
    415038.46548    325047.49146  21130393.9844                   21130389.4224
   4818518.35248   3742334.58345  21984762.5634                   21984758.7704
  -3989192.46547  -3092104.27844  23444281.2194                   23444280.5234
 11  8 19 17  7 30.0000000  0 10G03G06G07G08G10G11G13G19G23G28
   4540013.25446   3526628.01044  22560503.1254                   22560501.9304
   5183132.27046   4025630.92343  24583791.7584                   24583792.2814
  -3677834.84048  -2854220.48746  21125947.3204                   21125944.9804
  -4954911.87547  -3847922.03745  22698697.6724                   22698696.0164
   2141779.82446   1664013.88643  24647248.9304                   24647249.5554
  -5358711.73847  -4161377.43144  23237895.4774                   23237894.3794
   1895611.35548   1474387.15846  20575731.7034                   20575729.5234
    415165.30947    325146.32046  21130417.7814                   21130413.4414
   4882884.99648   3792490.33045  21997010.4844                   21997006.9224
  -4072972.47747  -3157387.35544  23428338.3444                   23428337.4064
 11  8 19 17  8  0.0000000  0 10G03G06G07G08G10G11G13G19G23G28
   4599777.29347   3573197.33144  22571876.3134                   22571874.8874
   5248297.78946   4076409.19243  24596193.1094                   24596193.5204
  -3757956.91848  -2916653.25646  21110700.8134                   21110698.1254
  -5060502.39547  -3930200.31645  22678604.1884                   22678602.7114
   2159101.10546   1677510.88743  24650545.0704                   24650545.8094
  -5467835.55947  -4246408.90844  23217130.2114                   23217128.9414
   1918711.73448   1492387.41646  20580127.8594                   20580125.8634
    415886.58648    325708.35146  21130554.9844                   21130550.9924
   4947566.79747   3842891.65045  22009318.7034                   22009315.7384
  -4156534.15646  -3222500.32544  23412437.6254                   23412436.3134
 11  8 19 17  8 30.0000000  0 10G03G06G07G08G10G11G13G19G23G28
   4659873.97347   3620025.88544  22583312.3364                   22583310.8204
   5313646.68446   4127330.35743  24608628.3914                   24608628.9574
  -3837906.55548  -2978951.68146  21095487.0234                   21095484.0634
  -5166089.68047  -4012476.10345  22658511.6174                   22658510.4344
   2176633.16046   1691172.14343  24653881.6484                   24653882.4184
  -5576817.09447  -4331329.52244  23196391.3444                   23196390.2424
   1942358.32448   1510813.29146  20584627.7504                   20584625.1024
    417206.38748    326736.76446  21130806.2734                   21130801.9454
   5012566.23448   3893540.47045  22021688.0704                   22021684.7154
  -4239872.70347  -3287439.39044  23396578.3204                   23396577.0044
 11  8 19 17  9  0.0000000  0 10G03G06G07G08G10G11G13G19G23G28
   4720293.02747   3667105.62144  22594809.7344                   22594808.3054
   5379169.08646   4178386.69443  24621097.4064                   24621097.1134
  -3917689.76248  -3041120.39846  21080304.6174                   21080302.1724
  -5271680.16447  -4094754.36645  22638418.2584                   22638416.5354
   2194365.71546   1704989.69243  24657255.9534                   24657257.2974
  -5685661.15247  -4416142.96544  23175678.9614                   23175677.9774
   1966541.75448   1529657.49446  20589229.6954                   20589227.5514
    419115.82048    328224.63746  21131169.4064                   21131165.4774
   5077873.20748   3944428.94445  22034115.5554                   22034112.3094
  -4322996.00447  -3352210.74344  23380760.7894                   23380759.3094
 11  8 19 17  9 30.0000000  0 10G03G06G07G08G10G11G13G19G23G28
   4781034.27747   3714436.42944  22606368.4844                   22606367.1604
   5444864.91846   4229578.23643  24633598.8674                   24633598.6644
  -3997302.05148  -3103155.94346  21065154.9224                   21065152.2624
  -5377270.40647  -4177032.44745  22618325.2664                   22618323.5234
   2212298.64547   1718963.39043  24660668.4304                   24660669.1334
  -5794361.85247  -4500844.78044  23154994.0234                   23154993.6374
   1991262.51648   1548920.38146  20593934.0554                   20593931.7034
    421615.95348    330172.78446  21131645.4304                   21131641.0864
   5143487.39147   3995556.78145  22046601.7274                   22046598.5354
  -4405902.04347  -3416812.82744  23364984.0234                   23364983.0904
 11  8 19 17 10  0.0000000  0 10G03G06G07G08G10G11G13G19G23G28
   4842099.03947   3762019.29744  22617989.0234                   22617987.6374
   5510736.31646   4280906.45843  24646133.7584                   24646133.5354
  -4076737.25048  -3165053.48046  21050038.6884                   21050036.3794
  -5482854.80947  -4259305.95445  22598233.1174                   22598231.2424
   2230433.95346   1733094.70143  24664119.3984                   24664120.2934
  -5902911.59847  -4585428.92544  23134337.9064                   23134336.9104
   2016523.37148   1568604.13846  20598741.0164                   20598738.9734
    424710.10948    332583.81746  21132234.1954                   21132230.0164
   5209410.54748   4046925.39745  22059146.7504                   22059143.1764
  -4488587.04747  -3481242.66444  23349249.8834                   23349248.1684
 11  8 19 17 10 30.0000000  0 10G03G06G07G08G10G11G13G19G23G28
   4903478.95747   3809847.75544  22629668.5084                   22629667.0314
   5576774.93046   4332365.01743  24658700.1334                   24658700.5044
  -4155999.35948  -3226816.17046  21034955.9304                   21034953.2074
  -5588437.91447  -4341578.47645  22578141.6024                   22578140.0594
   2248763.02346   1747377.04243  24667607.7344                   24667608.0664
  -6011313.51247  -4669897.87544  23113709.3754                   23113708.4494
   2042316.94948   1588702.99246  20603649.2114                   20603647.0474
    428390.68848    335451.78646  21132934.7274                   21132930.4224
   5275634.10247   4098528.07345  22071748.6484                   22071745.1764
  -4571057.14147  -3545505.02344  23333556.2734                   23333554.6334
 11  8 19 17 11  0.0000000  0 10G03G06G07G08G10G11G13G19G23G28
   4965174.80547   3857922.40944  22641408.9694                   22641407.7154
   5642982.15646   4383954.94943  24671298.5084                   24671299.5904
  -4235082.67648  -3288439.52146  21019906.3674                   21019904.0164
  -5694014.82047  -4423846.17545  22558050.8914                   22558048.9224
   2267286.77046   1761811.00543  24671132.4844                   24671132.9494
  -6119560.35947  -4754246.03144  23093110.8914                   23093109.7074
   2068645.15648   1609218.44946  20608659.1644                   20608656.9304
    432660.40648    338778.83846  21133747.1644                   21133742.8874
   5342158.77047   4150365.39445  22084407.9304                   22084404.3554
  -4653309.10247  -3609597.44744  23317904.0864                   23317902.1024
 11  8 19 17 11 30.0000000  0 10G03G06G07G08G10G11G13G19G23G28
   5027180.67247   3906238.62244  22653208.1804                   22653207.5554
   5709352.60246   4435672.14743  24683929.2734                   24683929.4844
  -4313988.63748  -3349924.68546  21004891.3524                   21004888.6954
  -5799587.24247  -4506110.36145  22537961.3284                   22537958.9574
   2285999.27746   1776392.11943  24674693.6254                   24674693.4774
  -6227652.15647  -4838473.34044  23072541.1644                   23072540.6024
   2095503.37148   1630146.89646  20613770.4224                   20613768.2344
    437514.57048    342561.28846  21134670.2584                   21134666.4534
   5408979.07447   4202433.06945  22097123.4144                   22097119.6724
  -4735346.75447  -3673522.89344  23302293.0784                   23302291.4574
 11  8 19 17 12  0.0000000  0 10G03G06G07G08G10G11G13G19G23G28
   5089493.11347   3954793.70444  22665066.1644                   22665064.9574
   5775883.44145   4487514.32842  24696589.1804                   24696589.3714
  -4392716.28548  -3411270.89246  20989910.1334                   20989907.4654
  -5905154.34847  -4588370.40445  22517871.8284                   22517870.5044
   2304897.81346   1791118.19643  24678289.2814                   24678291.1994
  -6335586.41047  -4922577.93044  23052003.0394                   23052000.9104
   2122889.09448   1651486.38846  20618981.6724                   20618979.6454
    442951.53548    346797.87846  21135705.4144                   21135701.1884
   5476091.68047   4254728.52145  22109894.4774                   22109891.0394
  -4817170.81247  -3737281.86744  23286722.5554                   23286720.7664
 11  8 19 17 12 30.0000000  0 10G03G06G07G08G10G11G13G19G23G28
   5152109.74647   4003585.83544  22676981.6414                   22676981.0434
   5842572.16046   4539479.46542  24709279.6254                   24709278.5634
  -4471263.35548  -3472476.39146  20974962.8364                   20974960.4964
  -6010714.57447  -4670625.08945  22497784.4844                   22497782.7504
   2323979.60246   1805986.99943  24681921.1644                   24681921.8134
  -6443359.74647  -5006557.07844  23031493.6954                   23031492.1724
   2150800.57848   1673235.56746  20624292.9924                   20624290.8984
    448969.68047    351487.35046  21136850.5634                   21136846.7774
   5543494.14547   4307249.85645  22122720.8134                   22122717.6844
  -4898781.53547  -3800874.62244  23271191.9454                   23271190.8364
 11  8 19 17 13  0.0000000  0 10G03G06G07G08G10G11G13G19G23G28
   5215025.05947   4052610.69944  22688954.3284                   22688953.3404
   5909414.02345   4591563.96942  24721998.6884                   24721998.2734
  -4549630.77348  -3533541.92546  20960050.1094                   20960047.7464
  -6116269.44947  -4752875.58845  22477698.3204                   22477696.4654
   2343239.31646   1820994.47243  24685586.2814                   24685586.9144
  -6550971.73847  -5090410.53744  23011015.9924                   23011013.7774
   2179233.35248   1695390.94146  20629703.8524                   20629701.3014
    455564.92647    356626.49846  21138105.6334                   21138101.4534
   5611180.78947   4359992.60245  22135601.2894                   22135598.0474
  -4980182.19147  -3864303.67844  23255702.2274                   23255699.8984
 11  8 19 17 13 30.0000000  0 10G03G06G07G08G10G11G13G19G23G28
   5278239.66047   4101868.78244  22700984.0394                   22700982.6844
   5976409.94946   4643768.46142  24734748.3524                   24734748.7344
  -4627813.05948  -3594463.18146  20945172.4304                   20945170.1134
  -6221813.99647  -4835118.05645  22457613.5234                   22457611.9454
   2362677.72346   1836141.22843  24689285.4304                   24689286.4414
  -6658415.78947  -5174133.14144  22990569.8364                   22990567.9144
   2208189.32048   1717953.99446  20635213.8984                   20635211.5904
    462739.47748    362217.05446  21139470.7424                   21139466.5164
   5679152.41047   4412957.42545  22148536.3444                   22148532.7584
  -5061369.71147  -3927566.65344  23240252.8364                   23240251.3594
 11  8 19 17 14  0.0000000  0 10G03G06G07G08G10G11G13G19G23G28
   5341748.03947   4151355.73744  22713069.2114                   22713067.8554
   6043554.44946   4696088.83242  24747526.0004                   24747525.3914
  -4705811.71948  -3655241.37146  20930329.8984                   20930327.1374
  -6327350.13347  -4917353.99245  22437530.9694                   22437529.4534
   2382288.99646   1851422.60043  24693016.2584                   24693018.1174
  -6765691.85947  -5257724.86544  22970155.6724                   22970154.2464
   2237663.15648   1740920.58046  20640822.4144                   20640820.3164
    470488.20748    368255.02846  21140945.4144                   21140941.2974
   5747402.98448   4466139.58445  22161524.0314                   22161520.5664
  -5142347.98847  -3990666.58044  23224843.6334                   23224841.5784
 11  8 19 17 14 30.0000000  0 10G03G06G07G08G10G11G13G19G23G28
   5405545.66447   4201068.14144  22725209.8134                   22725208.2814
   6110843.69546   4748521.98042  24760330.2194                   24760329.3244
  -4783626.22348  -3715876.04646  20915522.4774                   20915519.9614
  -6432877.89547  -4999583.37845  22417449.4534                   22417447.7154
   2402069.50046   1866835.91043  24696781.7274                   24696782.8444
  -6872798.17247  -5341184.29644  22949774.2274                   22949772.7734
   2267651.66048   1764288.20946  20646529.1804                   20646527.3524
    478808.50848    374738.37946  21142528.9304                   21142524.7464
   5815928.53147   4519536.03045  22174563.3754                   22174560.3834
  -5223118.67647  -4053604.75944  23209472.7734                   23209471.5824
 11  8 19 17 15  0.0000000  0 10G03G06G07G08G10G11G13G19G23G28
   5469631.61747   4251005.17244  22737404.3284                   22737403.4574
   6178277.42646   4801067.74443  24773163.3834                   24773162.3714
  -4861252.58648  -3776364.12146  20900750.2734                   20900747.9454
  -6538393.78147  -5081803.51645  22397370.3674                   22397368.7304
   2422017.91846   1882380.08843  24700577.6414                   24700578.1374
  -6979729.67247  -5424507.51644  22929425.3834                   22929424.7464
   2298154.80148   1788056.85146  20652333.8914                   20652331.6524
    487700.88748    381667.50046  21144220.8444                   21144216.5004
   5884728.16047   4573146.04245  22187655.4694                   22187653.0704
  -5303680.50047  -4116380.18344  23194142.7034                   23194140.9494
 11  8 19 17 15 30.0000000  0 10G03G06G07G08G10G11G13G19G23G28
   5533999.31347   4301161.75544  22749653.0634                   22749652.7544
   6245849.63346   4853721.29043  24786021.8284                   24786022.1254
  -4938692.93448  -3836707.25546  20886014.2344                   20886011.4344
  -6643900.36747  -5164016.41145  22377292.6414                   22377291.8914
   2442128.27046   1898050.40443  24704404.0394                   24704405.1524
  -7086487.02347  -5507695.00444  22909110.4774                   22909109.1094
   2329167.28948   1812222.38646  20658235.6334                   20658233.3164
    497159.88348    389038.13746  21146020.7974                   21146016.9884
   5953795.70347   4626964.82345  22200798.6724                   22200796.2274
  -5384037.87947  -4178996.30044  23178851.0234                   23178849.5354
 11  8 19 17 16  0.0000000  0  9G03G07G08G10G11G13G19G23G28
   5598646.51647   4351536.10644  22761955.2034                   22761954.3954
  -5015944.74648  -3896903.46946  20871313.5084                   20871310.8524
  -6749395.91447  -5246220.71545  22357217.9224                   22357216.5274
   2462398.01246   1913844.94142  24708262.1954                   24708262.7034
  -7193066.85247  -5590744.17844  22888828.9694                   22888827.7304
   2360687.37548   1836783.45046  20664233.6724                   20664231.1134
    507183.99647    396849.13146  21147928.2114                   21147924.2194
   6023128.28147   4680990.10145  22213992.5634                   22213989.8324
  -5464190.60947  -4241452.93644  23163598.2814                   23163596.9454
 11  8 19 17 16 30.0000000  0  9G03G07G08G10G11G13G19G23G28
   5663575.84447   4402130.30044  22774310.6254                   22774309.7464
  -5093001.16848  -3956947.43246  20856650.3914                   20856647.3094
  -6854873.73447  -5328411.20045  22337146.2424                   22337144.9454
   2482829.62546   1929765.58242  24712149.7814                   24712150.3134
  -7299460.39147  -5673648.19444  22868582.8914                   22868581.4774
   2392718.24648   1861742.53946  20670328.6334                   20670326.3714
    517777.15647    405103.52846  21149944.5704                   21149940.3164
   6092728.72747   4735224.12145  22227236.9144                   22227234.1374
  -5544134.19147  -4303746.61244  23148385.5394                   23148384.4884
 11  8 19 17 17  0.0000000  0  9G03G07G08G10G11G13G19G23G28
   5728793.06646   4452948.86444  22786720.9844                   22786720.7274
  -5169851.29747  -4016830.62946  20842025.8444                   20842023.5664
  -6960323.56247  -5410579.87845  22317079.9144                   22317078.8714
   2503429.53146   1945817.33642  24716069.0314                   24716070.7194
  -7405655.46147  -5756397.56244  22848374.3284                   22848372.8754
   2425266.91048   1887105.10246  20676522.4614                   20676520.4224
    528946.79747    413807.11746  21152069.9304                   21152065.6254
   6162603.06347   4789671.55745  22240533.9064                   22240531.0394
  -5623860.24647  -4365870.78744  23133214.3364                   23133212.5784
 11  8 19 17 17 30.0000000  0  9G03G07G08G10G11G13G19G23G28
   5794290.78547   4503985.96544  22799185.2664                   22799185.0864
  -5246497.95748  -4076555.30146  20827440.7504                   20827438.2034
  -7065748.76247  -5492729.36145  22297018.1024                   22297017.1454
   2524190.17245   1961994.36742  24720020.1644                   24720021.0164
  -7511654.11347  -5838993.86544  22828203.4844                   22828202.1844
   2458326.43448   1912865.71946  20682813.5864                   20682811.2544
    540686.25047    422954.74646  21154303.6724                   21154299.6134
   6232743.45347   4844326.30345  22253881.1414                   22253878.4064
  -5703374.23447  -4427829.68744  23118083.7344                   23118081.7074
 11  8 19 17 18  0.0000000  0  9G03G07G08G10G11G13G19G23G28
   5860072.28147   4555244.19143  22811702.8754                   22811702.3954
  -5322933.46947  -4136115.45146  20812895.6024                   20812893.2304
  -7171141.75447  -5574853.77245  22276962.4844                   22276960.9844
   2545114.86346   1978299.15743  24724002.8594                   24724002.6374
  -7617446.94947  -5921429.78944  22808071.5634                   22808069.8094
   2491900.96148   1939027.65046  20689202.7504                   20689200.6994
    552999.79747    432549.68446  21156646.9844                   21156642.9024
   6303153.23847   4899190.99045  22267279.7034                   22267276.9694
  -5782670.51247  -4489618.94844  23102993.5704                   23102992.1724
 11  8 19 17 18 30.0000000  0  9G03G07G08G10G11G13G19G23G28
   5926119.11747   4606709.16144  22824271.5634                   22824270.3484
  -5399171.52347  -4195521.68346  20798387.8914                   20798385.0164
  -7276516.92247  -5656964.26445  22256910.1174                   22256908.8834
   2566185.03146   1994717.43842  24728011.4384                   24728013.2894
  -7723046.72747  -6003715.28744  22787976.3984                   22787975.1334
   2525972.73048   1965577.03946  20695686.6564                   20695683.9804
    565869.71947    442578.16946  21159095.8444                   21159092.0204
   6373814.03147   4954251.24245  22280725.9384                   22280723.2384
  -5861765.43747  -4551251.32544  23087942.2664                   23087940.6254
 11  8 19 17 19  0.0000000  0  9G03G07G08G10G11G13G19G23G28
   5992431.82047   4658381.40043  22836890.5084                   22836889.0124
  -5475206.99648  -4254770.09646  20783918.8054                   20783916.1214
  -7381869.25047  -5739056.95845  22236862.0634                   22236861.2504
   2587401.76246   2011249.82842  24732049.4774                   24732050.0314
  -7828446.58647  -6085845.04144  22767920.1174                   22767917.9734
   2560543.19948   1992515.03946  20702264.7814                   20702262.8364
    579298.38347    453042.04946  21161651.2274                   21161647.6024
   6444726.59047   5009507.68745  22294220.5314                   22294217.1604
  -5940655.93047  -4612724.40244  23072929.4454                   23072928.3204
 11  8 19 17 19 30.0000000  0 10G03G24G07G08G10G11G13G19G23G28
   6059005.62147   4710257.02044  22849558.9304                   22849557.8554
   1397602.66856   1101421.13753  24231137.7894                   24231140.0864
  -5551039.68048  -4313860.48046  20769488.4844                   20769485.7664
  -7487199.37947  -5821132.37145  22216818.3594                   22216817.2734
   2608760.23846   2027892.71542  24736113.5234                   24736113.8914
  -7933645.61347  -6167818.22644  22747901.0004                   22747900.3164
   2595608.10548   2019838.29146  20708937.4384                   20708935.3754
    593281.63347    463938.07046  21164312.2194                   21164308.4414
   6515885.97747   5064956.47545  22307761.7114                   22307759.1524
  -6019344.90247  -4674040.42644  23057956.1564                   23057954.3054
 11  8 19 17 20  0.0000000  0 10G03G24G07G08G10G11G13G19G23G28
   6125821.96546   4762321.66044  22862273.8134                   22862272.6414
   1292218.30146   1019303.53243  24211082.8674                   24211085.4264
  -5626683.37148  -4372803.61146  20755093.6954                   20755091.0274
  -7592521.49647  -5903201.53945  22196776.4774                   22196775.1094
   2630242.44946   2044632.05942  24740201.8754                   24740202.7154
  -8038656.45347  -6249644.81044  22727917.8134                   22727916.8754
   2631149.71148   2047533.01546  20715701.1334                   20715698.5784
    607802.15647    475252.73746  21167075.6024                   21167071.7234
   6587273.66047   5120583.13945  22321346.7274                   22321344.0274
  -6097848.59847  -4735212.11644  23043017.3364                   23043015.2344
 11  8 19 17 20 30.0000000  0 10G03G24G07G08G10G11G13G19G23G28
   7768296.36746   6042171.73344  23174826.3524                   23174825.2274
   2762177.21545   2164726.15343  24490806.6484                   24490809.1454
  -4126713.19148  -3203995.66746  21040528.7194                   21040525.9144
  -6122409.96147  -4757660.06345  22476528.8524                   22476527.8444
   4227265.04746   3289065.23042  25044105.0554                   25044106.8444
  -6568051.83247  -5103719.09144  23007764.7584                   23007762.9064
   4242585.35548   3303197.10446  21022346.9064                   21022344.8674
   2198278.17648   1714584.67146  21469732.9844                   21469728.9574
   8234304.89547   6403984.00545  22634766.0944                   22634763.5084
  -4600744.35247  -3568637.31444  23327906.4614                   23327904.7344
 11  8 19 17 21  0.0000000  0 10G03G24G07G08G10G11G13G19G23G28
   7835596.43047   6094613.30344  23187633.5394                   23187632.6174
   2656640.71946   2082490.03743  24470723.6884                   24470726.4964
  -4201966.68047  -3262634.72946  21026208.4144                   21026205.5084
  -6227704.93047  -4839708.07045  22456492.3284                   22456490.9224
   4248992.34846   3305995.55542  25048239.9304                   25048241.6564
  -6672670.00447  -5185239.68144  22987856.6564                   22987854.9384
   4279080.97348   3331635.20746  21029291.6564                   21029290.0274
   2213874.53147   1726737.64046  21472700.9064                   21472696.6724
   8306147.47747   6459965.14445  22648437.2814                   22648434.6804
  -4678872.30547  -3629516.19144  23313038.8364                   23313037.7934
 11  8 19 17 21 30.0000000  0 10G03G24G07G08G10G11G13G19G23G28
   7903133.13346   6147239.23444  23200484.4774                   23200484.2154
   2551031.24245   2000196.93843  24450626.8054                   24450629.3914
  -4277023.30147  -3321120.39746  21011925.4614                   21011922.6884
  -6332985.17247  -4921744.58745  22436458.1804                   22436457.2664
   4270837.26246   3323017.47742  25052397.0864                   25052398.8984
  -6777088.09847  -5266604.40044  22967986.4924                   22967984.6454
   4316049.47348   3360441.79046  21036326.7274                   21036324.7894
   2230004.89847   1739306.73746  21475770.2274                   21475766.4184
   8378212.12947   6516119.31945  22662151.1484                   22662147.9924
  -4756814.30547  -3690250.17944  23298206.9614                   23298205.5554
 11  8 19 17 22  0.0000000  0 10G03G24G07G08G10G11G13G19G23G28
   7970913.71547   6200055.18644  23213383.5084                   23213382.4654
   2445361.73446   1917857.27243  24430518.9144                   24430521.0274
  -4351870.88747  -3379443.17546  20997682.3914                   20997680.0314
  -6438239.14147  -5003760.66745  22416428.9454                   22416427.9304
   4292807.14546   3340136.79342  25056576.8204                   25056578.4884
  -6881292.59047  -5347802.66144  22948157.2974                   22948155.8094
   4353498.36748   3389622.71346  21043453.2034                   21043451.3634
   2246677.47747   1752298.34046  21478942.9454                   21478939.3134
   8450506.20347   6572452.28045  22675907.8204                   22675905.5824
  -4834561.10547  -3750832.09544  23283412.2734                   23283410.6374
 11  8 19 17 22 30.0000000  0  9G03G24G07G08G11G13G19G23G28
   8038932.78946   6253057.02044  23226327.0554                   23226326.0434
   2339632.14145   1835470.69643  24410399.1334                   24410401.5044
  -4426510.60548  -3437603.97946  20983479.2974                   20983476.5744
  -6543468.19947  -5085757.31145  22396404.6024                   22396402.4884
  -6985283.80147  -5428834.73644  22928368.2034                   22928366.9304
   4391422.78548   3419174.17046  21050669.7424                   21050668.0904
   2263887.47347   1765708.72146  21482217.9534                   21482213.8634
   8523024.00447   6628959.56045  22689707.5004                   22689705.0084
  -4912116.22347  -3811264.58044  23268654.3284                   23268652.2114
 11  8 19 17 23  0.0000000  0  9G03G24G07G08G11G13G19G23G28
   8107190.46946   6306244.69744  23239316.2814                   23239315.4574
   2233848.27046   1753041.75943  24390268.4614                   24390271.7424
  -4500937.66048  -3495599.06846  20969316.2974                   20969313.3284
  -6648667.57447  -5167730.82945  22376385.3914                   22376383.7934
  -7089055.68747  -5509695.90344  22908621.0864                   22908619.4734
   4429823.35248   3449096.64946  21057977.2034                   21057974.9494
   2281635.93447   1779538.67346  21485595.4454                   21485591.6524
   8595765.59847   6685641.20345  22703550.1564                   22703547.3714
  -4989477.28547  -3871545.90844  23253932.7584                   23253931.0784
 11  8 19 17 23 30.0000000  0  9G03G24G07G08G11G13G19G23G28
   8175698.07846   6359627.20444  23252352.4924                   23252352.4264
   2128027.24646   1670583.99643  24370132.2424                   24370133.8554
  -4575135.36348  -3553415.46546  20955196.7734                   20955193.9694
  -6753821.37147  -5249668.82045  22356375.5004                   22356374.1374
  -7192590.21547  -5590372.12944  22888918.6334                   22888917.2234
   4468712.32048   3479399.70846  21065377.6484                   21065375.4884
   2299935.46548   1793798.03546  21489077.8444                   21489073.9774
   8668742.65247   6742506.33845  22717437.5164                   22717434.9104
  -5066630.41847  -3931665.23344  23239251.3364                   23239248.9734
 11  8 19 17 24  0.0000000  0  9G03G24G07G08G11G13G19G23G28
   8244450.15646   6413200.17644  23265435.1334                   23265435.0554
   2022169.33246   1588097.31543  24349987.9384                   24349990.0234
  -4649104.65248  -3611053.87346  20941121.0474                   20941118.0514
  -6858930.83247  -5331572.28345  22336373.6564                   22336372.1954
  -7295887.13747  -5670863.20044  22869262.1724                   22869260.6094
   4508084.82448   3510079.53846  21072869.8364                   21072868.1524
   2318781.39148   1808483.17846  21492663.8204                   21492659.8164
   8741949.56347   6799550.57445  22731367.9224                   22731365.6414
  -5143578.96947  -3991625.12945  23224608.0864                   23224606.5204
 11  8 19 17 24 30.0000000  0  9G03G24G07G08G11G13G19G23G28
   8313439.82446   6466958.24143  23278564.5394                   23278563.8324
   1916273.16446   1505580.97544  24329836.1334                   24329839.3244
  -4722848.10248  -3668516.29546  20927087.7274                   20927085.5084
  -6963998.44947  -5413443.10345  22316380.5944                   22316378.5044
  -7398947.64847  -5751170.04144  22849650.4304                   22849649.0984
   4547934.30948   3541131.03746  21080452.9144                   21080451.2384
   2338167.68448   1823589.36246  21496352.8914                   21496349.4804
   8815379.28947   6856768.42845  22745341.2584                   22745338.9304
  -5220328.00847  -4051429.52044  23210003.3444                   23210001.7034
 11  8 19 17 25  0.0000000  0  9G03G24G07G08G11G13G19G23G28
   8382658.23446   6520894.62644  23291736.0164                   23291735.5354
   1810335.32846   1423032.08543  24309676.4534                   24309679.9964
  -4796369.71548  -3725805.87246  20913096.9064                   20913094.6374
  -7069029.13347  -5495285.17745  22296393.4774                   22296391.9414
  -7501774.78547  -5831295.07444  22830082.9774                   22830081.7544
   4588252.45348   3572547.74146  21088125.4614                   21088123.5434
   2358086.25448   1839110.31846  21500143.6334                   21500139.6054
   8889022.73047   6914152.82845  22759355.4304                   22759352.8284
  -5296884.16447  -4111083.66545  23195435.1414                   23195434.2384
 11  8 19 17 25 30.0000000  0  9G03G24G07G08G11G13G19G23G28
   8452104.27046   6575008.33544  23304951.3364                   23304950.9694
   1704360.40646   1340454.28843  24289510.5004                   24289513.5164
  -4869665.76248  -3782919.68746  20899149.2274                   20899146.5474
  -7174019.65247  -5577095.94545  22276414.7814                   22276412.6024
  -7604363.87947  -5911234.58244  22810560.6804                   22810559.2034
   4629038.28148   3604328.85846  21095886.6954                   21095885.0314
   2378536.16848   1855045.31546  21504035.2584                   21504030.9654
   8962878.74247   6971702.86545  22773409.9454                   22773407.3754
  -5373246.68747  -4170586.91244  23180903.8444                   23180901.9144
 11  8 19 17 26  0.0000000  0  9G03G24G07G08G11G13G19G23G28
   8521773.10247   6629295.64544  23318208.7734                   23318207.8204
   1598349.22347   1257848.26944  24269336.9384                   24269340.2274
  -4942736.72748  -3839858.07846  20885244.3914                   20885241.7774
  -7278970.50047  -5658875.80145  22256442.8754                   22256441.4614
  -7706713.85247  -5990987.78344  22791083.8754                   22791082.9494
   4670287.57848   3636471.13746  21103736.2114                   21103734.5234
   2399513.52748   1871391.30146  21508026.6724                   21508022.4414
   9036942.32847   7029414.62945  22787503.4844                   22787501.1644
  -5449418.49247  -4229941.53644  23166408.5704                   23166406.2304
 11  8 19 17 26 30.0000000  0  9G03G24G07G08G11G13G19G23G28
   8591658.85546   6683752.02844  23331507.7894                   23331506.7894
   1492301.28147   1175213.62844  24249157.0474                   24249159.2464
  -5015583.57048  -3896621.85146  20871381.9614                   20871379.7304
  -7383883.19147  -5740625.92345  22236478.6804                   22236476.7544
  -7808824.91047  -6070554.79644  22771653.0234                   22771652.0004
   4711995.24248   3668970.57646  21111672.8134                   21111671.2074
   2421013.20748   1888144.30646  21512118.3834                   21512114.2344
   9111207.47747   7087283.47545  22801635.9144                   22801633.8834
  -5525403.22347  -4289150.40844  23151949.4144                   23151947.6214
 11  8 19 17 27  0.0000000  0  9G03G24G07G08G11G13G19G23G28
   8661760.00447   6738376.20043  23344847.7894                   23344847.1254
   1386220.94146   1092553.72844  24228970.7734                   24228972.7664
  -5088203.03948  -3953208.45446  20857562.8364                   20857560.4144
  -7488754.38747  -5822343.72445  22216522.3674                   22216520.8054
  -7910692.12947  -6149931.82444  22752268.2344                   22752267.0234
   4754159.86748   3701826.08746  21119696.7504                   21119694.6054
   2443034.82048   1905303.98946  21516309.0084                   21516304.7624
   9185672.90247   7145308.36545  22815806.3364                   22815803.9144
  -5601199.85247  -4348212.69044  23137525.7894                   23137524.0274
 11  8 19 17 27 30.0000000  0  9G03G24G07G08G11G13G19G23G28
   8732072.43847   6793165.05044  23358227.3594                   23358227.2734
   1280109.44146   1009869.58744  24208777.7114                   24208780.3014
  -5160594.88348  -4009617.67946  20843787.6174                   20843784.7734
  -7593584.10247  -5904029.17945  22196574.0164                   22196571.8134
  -8012314.09847  -6229117.72845  22732930.6024                   22732929.0204
   4796777.28148   3735034.41346  21127806.5394                   21127804.8754
   2465574.38347   1922867.27046  21520597.8134                   21520593.9574
   9260334.05547   7203485.77045  22830013.5164                   22830011.5784
  -5676810.96547  -4407130.39644  23123137.5314                   23123135.6254
 11  8 19 17 28  0.0000000  0  9G03G24G07G08G11G13G19G23G28
   8802597.56347   6848119.60643  23371647.8754                   23371647.8284
   1173974.24246    927166.92143  24188580.8914                   24188583.3984
  -5232752.38748  -4065844.30446  20830056.2424                   20830053.5634
  -7698366.64847  -5985677.91245  22176634.5234                   22176632.4534
  -8113683.58647  -6308106.88344  22713640.2034                   22713638.7734
   4839849.81648   3768597.38646  21136003.0634                   21136000.9884
   2488634.24248   1940835.97046  21524985.7584                   21524982.3984
   9335192.49247   7261816.91444  22844259.2734                   22844256.6644
  -5752232.73847  -4465900.61844  23108785.7504                   23108783.0824
 11  8 19 17 28 30.0000000  0  9G03G24G07G08G11G13G19G23G28
   8873329.55147   6903235.36743  23385107.5474                   23385107.1914
   1067815.22346    844445.68743  24168379.8364                   24168382.0164
  -5304676.99248  -4121889.44046  20816369.3914                   20816367.0824
  -7803103.32447  -6067290.88745  22156703.6804                   22156702.2154
  -8214800.64547  -6386899.35144  22694398.3914                   22694396.6564
   4883372.02348   3802510.76146  21144284.8134                   21144282.8834
   2512209.17648   1959206.04246  21529472.1724                   21529468.4774
   9410242.11347   7320296.99944  22858540.6024                   22858538.3984
  -5827469.23847  -4524526.43344  23094468.2114                   23094466.3634
 11  8 19 17 29  0.0000000  0  9G03G24G07G08G11G13G19G23G28
   8944273.08246   6958515.97243  23398608.1414                   23398607.7194
    961642.89146    761714.09943  24148175.6484                   24148177.5164
  -5376359.02348  -4177745.57046  20802728.6334                   20802726.1994
  -7907784.74647  -6148860.79945  22136783.6804                   22136781.8324
  -8315654.00847  -6465486.35144  22675206.7734                   22675204.8914
   4927349.34447   3836778.75546  21152653.6564                   21152651.5704
   2536305.00447   1977981.98746  21534057.5084                   21534053.6454
   9485487.88347   7378929.95744  22872859.9924                   22872857.3594
  -5902513.16447  -4583002.18944  23080187.6644                   23080185.8134
 11  8 19 17 29 30.0000000  0  9G03G24G07G08G11G13G19G23G28
   9015416.48047   7013952.31243  23412147.2584                   23412145.8204
    855450.42646    678966.86744  24127967.7344                   24127969.7274
  -5447806.33248  -4233418.78846  20789132.8914                   20789130.2344
  -8012418.99247  -6230393.96045  22116872.4304                   22116870.9384
  -8416250.55147  -6543873.23145  22656064.2814                   22656062.3404
   4971769.63348   3871391.92546  21161106.6024                   21161104.7734
   2560909.52048   1997154.32246  21538739.3834                   21538735.5314
   9560917.19547   7437705.93644  22887213.3444                   22887211.0784
  -5977375.29347  -4641336.26845  23065941.6414                   23065939.8284
 11  8 19 17 30  0.0000000  0  9G03G24G07G08G11G13G19G23G28
   9086756.81647   7069542.13944  23425721.7034                   23425722.1374
    749240.90246    596206.25443  24107756.8364                   24107758.7664
  -5519016.72348  -4288907.40746  20775582.0164                   20775579.5594
  -8117004.51647  -6311889.15545  22096970.0554                   22096968.6804
  -8516587.09047  -6622057.49644  22636970.7114                   22636968.4144
   5016630.00448   3906348.01946  21169643.2504                   21169641.3794
   2586020.88747   2016721.59546  21543518.1024                   21543514.0554
   9636527.19947   7496622.68344  22901601.8444                   22901599.6414
  -6052056.14847  -4699529.11644  23051730.4534                   23051728.5864
 11  8 19 17 30 30.0000000  0  9G03G24G07G08G11G13G19G23G28
   9158292.20346   7125283.88943  23439334.6334                   23439334.6254
    643017.87946    513435.19443  24087542.6804                   24087545.3244
  -5589987.15648  -4344209.05246  20762076.5314                   20762073.9964
  -8221538.32447  -6393344.04445  22077077.9614                   22077076.8204
  -8616659.56247  -6700035.98145  22617927.3754                   22617925.3754
   5061929.23048   3941646.07846  21178263.1804                   21178261.5864
   2611637.91448   2036682.90346  21548392.5394                   21548388.7584
   9712316.27047   7555678.96844  22916023.7424                   22916021.6884
  -6126555.31647  -4757580.38745  23037554.1024                   23037552.1564
 11  8 19 17 31  0.0000000  0  9G03G24G07G08G11G13G19G23G28
   9230019.02046   7181174.81943  23452984.5784                   23452983.7544
    536783.84446    430655.55343  24067326.7814                   24067329.1724
  -5660716.36348  -4399322.70846  20748617.5554                   20748614.8484
  -8326019.86747  -6474758.22445  22057196.1174                   22057194.6484
  -8716465.71147  -6777806.95645  22598934.8594                   22598933.1134
   5107664.21548   3977283.68546  21186966.3674                   21186964.8404
   2637757.46947   2057035.76646  21553363.3524                   21553359.3834
   9788280.45347   7614871.73345  22930479.4144                   22930477.0474
  -6200874.47347  -4815491.37644  23023411.1414                   23023409.2074
 11  8 19 17 31 30.0000000  0  9G03G24G07G08G11G13G19G23G28
   9301937.41446   7237215.04744  23466669.5394                   23466669.8284
    430544.35946    347871.60143  24047110.4064                   24047112.1564
  -5731200.00848  -4454245.03446  20735204.4384                   20735202.2894
  -8430444.17647  -6556127.79045  22037324.5634                   22037323.3014
  -8815999.59447  -6855365.79144  22579994.2114                   22579992.2504
   5153835.35548   4013261.15346  21195752.7894                   21195751.2584
   2664380.31347   2077780.80646  21558429.6954                   21558425.3204
   9864419.95747   7674201.06745  22944968.5704                   22944966.7194
  -6275011.39547  -4873260.40945  23009303.5474                   23009301.3914
 11  8 19 17 32  0.0000000  0  9G03G24G07G08G11G13G19G23G28
   9374040.50446   7293399.22743  23480390.2114                   23480389.5204
    324298.27346    265082.51843  24026892.2584                   24026894.3324
  -5801440.04348  -4508977.52546  20721838.4304                   20721836.1174
  -8534813.91447  -6637454.83745  22017463.8594                   22017461.8134
  -8915262.50847  -6932713.51445  22561104.7814                   22561103.3134
   5200435.68048   4049573.05146  21204620.5554                   21204618.3874
   2691499.94947   2098912.96246  21563590.3594                   21563586.3594
   9940727.60947   7733661.43345  22959489.4224                   22959487.2664
  -6348970.89547  -4930891.13645  22995229.6334                   22995227.6094
 11  8 19 17 32 30.0000000  0  9G03G24G07G08G11G13G19G23G28
   9446324.42246   7349724.28543  23494145.5164                   23494145.4264
    218047.30946    182289.55543  24006673.2114                   24006675.8444
  -5871435.75048  -4563519.63046  20708518.5084                   20708516.1334
  -8639128.26647  -6718738.74045  21997613.4844                   21997611.7384
  -9014252.53547  -7009848.54345  22542267.9144                   22542266.1334
   5247462.04347   4086216.93546  21213569.1094                   21213567.6254
   2719112.79747   2120429.43746  21568844.6094                   21568841.3594
  10017199.21547   7793249.56744  22974041.4384                   22974039.5744
  -6422755.50847  -4988385.59645  22981188.7814                   22981187.0474
 11  8 19 17 33  0.0000000  0  9G03G24G07G08G11G13G19G23G28
   9518786.02346   7406187.78743  23507934.8204                   23507934.5084
    111794.10246     99494.93443  23986453.9844                   23986455.4414
  -5941185.64148  -4617870.19646  20695245.7114                   20695243.1134
  -8743386.23847  -6799978.68045  21977773.4144                   21977772.1914
  -9112967.06647  -7086768.92845  22523482.8754                   22523480.9454
   5294910.74647   4123189.89946  21222598.8364                   21222596.5824
   2747216.34047   2142328.28646  21574192.6254                   21574188.9774
  10093831.57847   7852962.96044  22988624.2274                   22988622.3714
  -6496366.00047  -5045744.38044  22967180.7424                   22967179.1764
 11  8 19 17 33 30.0000000  0  9G03G24G07G08G11G13G19G23G28
   9591425.67646   7462790.01043  23521757.6884                   23521757.6684
      5544.59446     16703.13343  23966235.7114                   23966237.1094
  -6010684.60948  -4672025.20646  20682020.4454                   20682017.9494
  -8847583.04347  -6881170.96045  21957945.7424                   21957944.2934
  -9211399.95747  -7163469.86245  22504751.7344                   22504750.1604
   5342782.48048   4160492.50546  21231708.1644                   21231706.5704
   2775811.41848   2164610.14446  21579634.2034                   21579630.5744
  10170624.73847   7912801.62644  23003237.8444                   23003235.8754
  -6569800.33247  -5102965.92244  22953206.9454                   22953205.1134
 11  8 19 17 34  0.0000000  0  9G03G24G07G08G11G13G19G23G28
   9664240.87546   7519529.09243  23535613.8594                   23535614.2194
   -100697.88746    -66083.12543  23946018.0864                   23946020.0904
  -6079930.18448  -4725982.80646  20668843.3284                   20668841.2384
  -8951716.74647  -6962314.06445  21938129.5004                   21938127.8134
  -9309547.69547  -7239948.59145  22486074.3444                   22486073.0634
   5391075.22348   4198123.17146  21240898.3524                   21240896.6454
   2804895.82848   2187273.29446  21585168.7274                   21585165.1414
  10247576.35247   7972763.78144  23017881.2034                   23017878.8284
  -6643058.71947  -5160050.35344  22939266.4064                   22939264.9264
 11  8 19 17 34 30.0000000  0  9G03G24G07G08G11G13G19G23G28
   9737228.53146   7576402.52143  23549503.4534                   23549502.2504
   -206931.23047   -148862.31243  23925801.9064                   23925804.4494
  -6148921.73448  -4779742.45446  20655714.7504                   20655712.2194
  -9055786.28547  -7043407.18445  21918325.7974                   21918324.2544
  -9407408.34847  -7316203.61745  22467452.4924                   22467451.1054
   5439785.46148   4236079.15846  21250167.6174                   21250165.6884
   2834466.40648   2210315.28546  21590795.8054                   21590792.0314
  10324682.66847   8032846.51044  23032554.4144                   23032551.9534
  -6716142.76647  -5216998.92445  22925358.9844                   22925357.3094
 11  8 19 17 35  0.0000000  0  9G03G24G07G08G11G13G19G23G28
   9810390.32446   7633411.64843  23563425.5164                   23563425.2544
   -313147.89147   -231628.45643  23905590.2814                   23905592.2814
  -6217652.43448  -4833298.83446  20642636.0314                   20642633.3134
  -9159784.93047  -7124445.06745  21898535.2424                   21898534.2814
  -9504973.96547  -7392228.76845  22448886.6254                   22448884.4884
   5488915.66448   4274362.37246  21259516.4144                   21259514.7544
   2864525.82448   2233738.18746  21596515.9454                   21596512.1024
  10401945.33247   8093051.03144  23047256.9144                   23047255.0664
  -6789048.62547  -5273808.67245  22911485.3754                   22911483.6644
 11  8 19 17 35 30.0000000  0  9G03G24G07G08G11G13G19G23G28
   9883714.06646   7690546.92343  23577378.3594                   23577378.3204
   -419354.39546   -314386.77843  23885380.3674                   23885381.2774
  -6286129.72348  -4886657.75846  20629605.1484                   20629602.3914
  -9263720.82048  -7205434.04345  21878757.2424                   21878756.0234
  -9602251.31647  -7468029.26745  22430375.4774                   22430373.6214
   5538453.29747   4312963.08646  21268943.2344                   21268941.5434
   2895061.80548   2257532.44046  21602327.0864                   21602323.2424
  10479351.88747   8153367.69144  23061986.8284                   23061984.6884
  -6861787.07447  -5330487.96445  22897643.5004                   22897641.7934
 11  8 19 17 36  0.0000000  0  9G03G24G07G08G11G13G19G23G28
   9957207.76647   7747814.68443  23591363.9534                   23591363.7854
   -525536.49247   -397125.96844  23865173.9224                   23865175.9654
  -6354340.71147  -4939809.17146  20616624.9144                   20616622.5204
  -9367581.14147  -7286364.14545  21858993.0314                   21858991.8874
  -9699226.21947  -7543594.08645  22411920.8834                   22411919.7114
   5588406.52348   4351887.63846  21278449.1804                   21278447.3954
   2926083.23048   2281704.95746  21608230.5314                   21608226.4774
  10556910.46547   8213802.81144  23076746.0314                   23076744.1914
  -6934347.17647  -5387028.28045  22883835.5864                   22883834.1564
 11  8 19 17 36 30.0000000  0  9G03G24G07G08G11G13G19G23G28
  10030864.02346   7805209.09743  23605379.8444                   23605379.6884
   -631696.38747   -479847.92944  23844972.3834                   23844974.5044
  -6422288.47747  -4992755.48846  20603695.0164                   20603692.2194
  -9471369.02747  -7367237.81945  21839242.9384                   21839241.0784
  -9795900.87547  -7618924.97645  22393524.7274                   22393522.9304
   5638767.74248   4391130.08946  21288032.4384                   21288030.7194
   2957582.44948   2306249.78246  21614224.1024                   21614220.3714
  10634613.48847   8274350.48944  23091532.4694                   23091530.4844
  -7006735.27047  -5443434.57045  22870060.8914                   22870059.5944
 11  8 19 17 37  0.0000000  0  9G03G24G07G08G11G13G19G23G28
  10104676.55146   7862725.29943  23619426.5004                   23619425.9304
   -737834.66047   -562553.01544  23824775.0474                   23824776.9654
  -6489974.37947  -5045497.74146  20590814.6484                   20590812.0784
  -9575086.12948  -7448056.32645  21819506.5394                   21819504.5394
  -9892275.42647  -7694022.00145  22375185.5474                   22375184.0784
   5689531.09048   4430685.87446  21297692.5474                   21297690.5784
   2989554.25448   2331162.84946  21620308.2344                   21620304.1914
  10712454.53947   8335005.67744  23106345.5784                   23106343.4384
  -7078955.51247  -5499710.05445  22856318.0554                   22856316.3554
 11  8 19 17 37 30.0000000  0  9G03G24G07G08G11G13G19G23G28
  10178644.14546   7920362.25243  23633502.4304                   23633502.1334
   -843947.18047   -645238.03644  23804582.7814                   23804583.9144
  -6557395.18747  -5098033.44046  20577984.9614                   20577982.3164
  -9678729.33247  -7528817.24945  21799783.7584                   21799781.8714
  -9988346.08247  -7768882.23545  22356903.8204                   22356902.2114
   5740695.02047   4470553.83346  21307428.8674                   21307426.6844
   3021996.52748   2356442.53046  21626482.1174                   21626477.6684
  10790431.72747   8395766.98744  23121184.6024                   23121181.9734
  -7151007.52047  -5555854.44245  22842606.5634                   22842604.4264
 11  8 19 17 38  0.0000000  0  9G03G24G07G08G11G13G19G23G28
  10252764.79646   7978118.53943  23647606.9224                   23647606.7584
   -950030.06247   -727899.94344  23784395.6644                   23784397.5824
  -6624548.41447  -5150360.62946  20565206.2034                   20565203.6294
  -9782296.03948  -7609518.55745  21780075.9304                   21780073.7344
 -10084108.87147  -7843502.58545  22338680.3364                   22338678.9264
   5792257.55148   4510732.36246  21317241.0704                   21317239.1884
   3054908.28948   2382088.04146  21632744.3754                   21632740.7974
  10868542.89147   8456632.66344  23136048.4304                   23136046.3554
  -7222891.23847  -5611867.69345  22828927.8524                   22828925.9384
 11  8 19 17 38 30.0000000  0  9G03G24G07G08G11G13G19G23G28
  10327041.94146   8035996.80043  23661741.3754                   23661741.3164
  -1056074.02347   -810531.51444  23764216.0164                   23764217.6174
  -6691425.61348  -5202472.73246  20552479.8524                   20552477.3014
  -9885778.24648  -7690154.02245  21760383.6954                   21760381.9144
 -10179554.36347  -7917875.65945  22320517.7974                   22320516.5124
   5844222.56647   4551224.53146  21327129.3984                   21327127.7664
   3088293.21148   2408102.25846  21639097.4534                   21639093.6684
  10946791.64147   8517605.57844  23150938.4774                   23150936.9344
  -7294601.02047  -5667745.41745  22815281.7894                   22815279.5864
 11  8 19 17 39  0.0000000  0  9G03G24G07G08G11G13G19G23G28
  10401469.46946   8093992.17243  23675904.4384                   23675904.2854
  -1162080.00047   -893133.46844  23744042.9844                   23744045.4844
  -6758028.95748  -5254371.44246  20539805.5784                   20539802.9694
  -9989177.68048  -7770725.00145  21740707.1024                   21740705.4964
 -10274683.57847  -7992002.28845  22302415.4694                   22302413.9024
   5896583.35947   4592025.09746  21337093.3134                   21337091.7194
   3122144.89848   2434480.17246  21645539.4304                   21645535.6914
  11025170.88347   8578680.14044  23165854.0084                   23165852.4884
  -7366141.88347  -5723491.51045  22801667.8834                   22801665.6484
 11  8 19 17 39 30.0000000  0  9G03G24G07G08G11G13G19G23G28
  10476036.99646   8152096.68943  23690093.9694                   23690094.3134
  -1268052.22747   -975709.16344  23723877.5474                   23723879.8554
  -6824363.57448  -5306060.74746  20527183.0004                   20527179.8484
 -10092499.97348  -7851235.85345  21721045.9304                   21721043.7464
 -10369500.79347  -8065885.80545  22284372.2664                   22284370.7624
   5949329.78547   4633126.14246  21347130.8834                   21347128.6954
   3156453.68448   2461214.27446  21652068.3984                   21652063.9654
  11103670.90247   8639848.82744  23180791.7194                   23180790.2584
  -7437521.96147  -5779112.30445  22788084.4454                   22788083.2384
 11  8 19 17 40  0.0000000  0  9G03G24G07G08G11G13G19G23G28
  10550745.51646   8210311.00543  23704310.5554                   23704311.4064
  -1373984.03547  -1058253.28344  23703719.4454                   23703721.3244
  -6890424.12947  -5357536.50446  20514611.5004                   20514608.9774
 -10195739.91447  -7931682.55545  21701399.9384                   21701398.0864
 -10463999.68447  -8139521.28745  22266389.7664                   22266387.8204
   6002462.98048   4674528.57546  21357241.7974                   21357240.2114
   3191220.73448   2488305.45946  21658684.2734                   21658680.1804
  11182292.22747   8701112.02644  23195753.0474                   23195751.6764
  -7508738.58247  -5834605.73245  22774532.7974                   22774531.1454
 11  8 19 17 40 30.0000000  0  9G03G24G07G08G11G13G19G23G28
  10625595.95346   8268636.00143  23718554.5944                   23718554.7704
  -1479869.06247  -1140760.98143  23683570.0394                   23683572.0124
  -6956205.16847  -5408794.45046  20502093.8204                   20502091.2664
 -10298892.00048  -8012060.78645  21681770.7504                   21681768.6684
 -10558173.75047  -8212903.63745  22248468.9694                   22248467.2154
   6055983.07848   4716232.50745  21367426.7034                   21367424.7814
   3226446.70348   2515754.26146  21665387.6094                   21665383.6094
  11261035.19547   8762469.99344  23210738.1094                   23210736.1994
  -7579789.07447  -5889969.72445  22761012.0634                   22761010.5434
 11  8 19 17 41  0.0000000  0  9G03G24G07G08G11G13G19G23G28
  10700585.54346   8327069.34943  23732824.7504                   23732824.6914
  -1585704.02746  -1223229.60144  23663429.2664                   23663432.2464
  -7021704.64848  -5459833.00646  20489629.6564                   20489627.0904
 -10401954.22748  -8092369.00045  21662158.5004                   21662156.6024
 -10652019.98447  -8286030.53745  22230610.5314                   22230609.2034
   6109887.81648   4758236.12646  21377683.9304                   21377682.6454
   3262129.25448   2543558.82146  21672177.3674                   21672173.6564
  11339897.06347   8823920.58244  23225744.6724                   23225743.0824
  -7650674.14847  -5945204.80145  22747523.0784                   22747521.6454
 11  8 19 17 41 30.0000000  0  9G03G24G07G08G11G13G19G23G28
  10775706.84447   8385605.39343  23747120.4454                   23747119.3164
  -1691491.30946  -1305661.11443  23643299.0084                   23643300.9654
  -7086925.67248  -5510654.58646  20477218.4454                   20477215.8634
 -10504929.69947  -8172609.61745  21642563.0314                   21642561.2624
 -10745540.81247  -8358903.86845  22212814.3984                   22212812.1884
   6164169.41847   4800533.44146  21388013.7194                   21388012.5234
   3298261.01248   2571713.41046  21679053.1334                   21679049.1954
  11418870.12147   8885457.85944  23240772.4224                   23240770.8874
  -7721399.89147  -6000315.73645  22734064.5634                   22734062.4734
 11  8 19 17 42  0.0000000  0  9G03G24G07G08G11G13G19G23G28
  10850961.26246   8444245.09943  23761440.0704                   23761440.4304
  -1797223.73846  -1388049.89643  23623179.1024                   23623180.4184
  -7151862.28947  -5561254.55546  20464861.6094                   20464858.9734
 -10607812.87948  -8252778.31145  21622984.7344                   21622983.3164
 -10838729.19947  -8431518.18045  22195080.7814                   22195079.1994
   6218828.59848   4843124.94146  21398415.0784                   21398413.5234
   3334843.30148   2600219.06846  21686014.7504                   21686010.9384
  11497955.10247   8947082.33844  23255822.8984                   23255821.1334
  -7791963.03547  -6055299.98245  22720636.9224                   22720634.8524
 11  8 19 17 42 30.0000000  0  9G03G24G07G08G11G13G19G23G28
  10926338.66446   8502980.68343  23775783.8594                   23775784.3244
  -1902905.26246  -1470398.97543  23603068.5634                   23603069.2464
  -7216519.61347  -5611636.87846  20452557.9304                   20452555.2464
 -10710608.63347  -8332878.87345  21603423.5004                   21603421.4804
 -10931588.89847  -8503876.34145  22177410.1174                   22177408.3674
   6273856.26247   4886003.59545  21408886.5864                   21408884.5944
   3371866.49247   2629068.29546  21693059.9304                   21693056.3094
  11577142.34847   9008786.49344  23270891.3674                   23270889.9614
  -7862371.36347  -6110163.59545  22707238.2974                   22707236.8834
 11  8 19 17 43  0.0000000  0  9G03G24G07G08G11G13G19G23G28
  11001847.16846   8561818.40543  23790153.2894                   23790153.4384
  -2008523.09846  -1552698.41543  23582969.0084                   23582971.5864
  -7280885.34448  -5661792.00246  20440309.4844                   20440306.6334
 -10813304.68448  -8412901.76145  21583880.7814                   21583879.2974
 -11024106.85947  -8575968.22145  22159804.6254                   22159802.6024
   6329259.48047   4929174.88945  21419429.2114                   21419427.5394
   3409338.37547   2658267.14446  21700190.3364                   21700186.5514
  11656439.17647   9070576.02944  23285981.1724                   23285979.7774
  -7932615.64147  -6164899.38045  22693870.9064                   22693868.8324
 11  8 19 17 43 30.0000000  0  9G03G24G07G08G11G13G19G23G28
  11077482.87546   8620755.17943  23804546.2274                   23804546.2704
  -2114074.76646  -1634946.34643  23562883.7194                   23562885.7344
  -7344958.45348  -5711719.10846  20428116.6884                   20428114.2304
 -10915900.53148  -8492846.55146  21564357.5164                   21564355.7384
 -11116281.77347  -8647792.80645  22142264.6334                   22142262.3834
   6385034.19947   4972635.64145  21430042.7664                   21430041.6914
   3447255.16048   2687812.67046  21707405.7504                   21707402.3524
  11735841.65247   9132447.89844  23301090.8524                   23301089.3404
  -8002697.85247  -6219508.87545  22680535.1484                   22680532.9064
 11  8 19 17 44  0.0000000  0  9G03G24G07G08G11G13G19G23G28
  11153235.92246   8679783.47743  23818961.4304                   23818961.1484
  -2219564.08247  -1717145.64743  23542809.2664                   23542811.6684
  -7408744.14148  -5761422.24746  20415979.2114                   20415976.3244
 -11018400.55547  -8572716.67545  21544852.5004                   21544850.9924
 -11208117.03147  -8719352.70145  22124789.2894                   22124786.7734
   6441171.28948   5016378.78045  21440725.4534                   21440724.0274
   3485607.60548   2717697.66846  21714704.1644                   21714700.3984
  11815340.02047   9194394.51044  23316219.8674                   23316217.4344
  -8072625.90247  -6273998.24645  22667228.5634                   22667226.4574
 11  8 19 17 44 30.0000000  0  9G03G24G07G08G11G13G19G23G28
  12804528.47746   9966504.87143  24133192.1024                   24133191.5234
   -749557.95347   -571686.26144  23822543.1024                   23822543.9344
  -5896811.84448  -4583293.21147  20703689.9844                   20703687.4344
  -9545373.53948  -7424903.41245  21825160.1254                   21825158.4264
  -9724180.66447  -7563038.62345  22407172.4454                   22407170.4494
   8073092.28947   6288005.48045  21751269.2114                   21751268.0864
   5099818.34448   3975524.18846  22021878.4614                   22021874.5474
  13470355.02347  10484016.42344  23631158.1254                   23631157.2304
  -6566971.85547  -5100761.31445  22953745.2034                   22953742.3914
 11  8 19 17 45  0.0000000  0  9G03G24G07G08G11G13G19G23G28
  12880521.11746  10025719.80943  24147653.2664                   24147653.0434
   -854902.12947   -653772.48443  23802495.9774                   23802498.2704
  -5960005.43048  -4632534.97846  20691664.1024                   20691662.0004
  -9647665.76248  -7504611.60645  21805694.6644                   21805692.7584
  -9815317.40247  -7634054.21645  22389829.4144                   22389827.5394
   8129956.09847   6332314.89646  21762090.6094                   21762089.2234
   5139045.80148   4006091.01346  22029343.0164                   22029339.5554
  13550047.93047  10546114.60844  23646323.6644                   23646322.0004
  -6636582.62147  -5155003.43644  22940498.3284                   22940496.1484
 11  8 19 17 45 30.0000000  0  9G03G24G07G08G11G13G19G23G28
  12956623.39845  10085020.19542  24162133.6334                   24162134.3364
   -960175.60547   -735803.67943  23782463.6564                   23782464.9884
  -6022906.13747  -4681548.52446  20679694.8134                   20679691.9804
  -9749857.01248  -7584241.13845  21786248.5784                   21786246.8164
  -9906106.65647  -7704799.07245  22372553.1094                   22372550.7304
   8187172.73447   6376899.22645  21772978.5784                   21772977.3324
   5178700.39148   4036990.66146  22036889.5784                   22036885.3054
  13629827.41047  10608280.22044  23661505.2664                   23661504.2734
  -6706041.99647  -5209127.60044  22927280.3834                   22927277.9614
 11  8 19 17 46  0.0000000  0  9G03G24G07G08G11G13G19G23G28
  13032841.99646  10144411.17642  24176639.3054                   24176637.7584
  -1065365.73047   -817769.90343  23762446.3594                   23762447.2814
  -6085502.72747  -4730325.06546  20667783.2894                   20667780.4414
  -9851936.03548  -7663783.23845  21766823.3524                   21766821.3834
  -9996536.40647  -7775263.78445  22355344.6804                   22355342.4384
   8244749.17647   6421763.92546  21783935.3364                   21783933.8444
   5218788.83248   4068228.39046  22044518.1564                   22044514.0234
  13709700.23847  10670518.57644  23676705.1724                   23676703.2854
  -6775341.84047  -5263127.44945  22914092.7814                   22914090.9384
 11  8 19 17 46 30.0000000  0  9G03G24G07G08G11G13G19G23G28
  13109174.05146  10203890.77742  24191164.3134                   24191163.3914
  -1170469.87947   -899669.16343  23742445.6804                   23742446.6644
  -6147793.50048  -4778863.33746  20655929.7584                   20655927.0904
  -9953901.24648  -7743236.63046  21747419.9384                   21747417.9804
 -10086603.22747  -7845445.70345  22338205.6484                   22338203.7624
   8302682.09847   6466906.42345  21794959.6644                   21794957.7194
   5259308.56648   4099802.19046  22052228.3674                   22052224.4734
  13789663.17646  10732827.13844  23691921.2114                   23691920.4494
  -6844482.93047  -5317003.56945  22900935.3754                   22900934.2464
 11  8 19 17 47  0.0000000  0  9G03G24G07G08G11G13G19G23G28
  13185614.24246  10263454.48042  24205710.4144                   24205710.3674
  -1275488.07447   -981501.50944  23722461.5394                   23722462.2384
  -6209779.75448  -4827164.30446  20644134.0554                   20644131.4104
 -10055753.66448  -7822602.14346  21728037.9694                   21728036.2854
 -10176308.49247  -7915345.85945  22321134.9614                   22321133.4614
   8360965.29347   6512321.83045  21806050.4454                   21806048.5824
   5300253.69947   4131707.47446  22060020.1024                   22060016.1334
  13869710.11346  10795201.16444  23707153.5234                   23707152.3794
  -6913469.39847  -5370759.24045  22887807.8914                   22887806.2344
 11  8 19 17 47 30.0000000  0  9G03G24G07G08G11G13G19G23G28
  13262160.03946  10323100.41543  24220276.7734                   24220276.7664
  -1380416.57047  -1063263.94244  23702493.5084                   23702495.2934
  -6271458.86348  -4875225.95646  20632396.7814                   20632394.0514
 -10157490.52748  -7901877.60946  21708678.2274                   21708676.4454
 -10265648.69947  -7984961.58945  22304134.2894                   22304132.2344
   8419596.74247   6558008.60345  21817208.0784                   21817206.6804
   5341622.12948   4163942.58546  22067892.5864                   22067888.4304
  13949839.05546  10857639.06244  23722401.6174                   23722401.1414
  -6982302.14147  -5424395.11345  22874709.7504                   22874707.7774
 11  8 19 17 48  0.0000000  0  9G03G24G07G08G11G13G19G23G28
  13338814.25846  10382830.96243  24234863.6254                   24234863.8444
  -1485247.32047  -1144950.18544  23682545.7344                   23682546.8914
  -6332823.81248  -4923042.79946  20620719.7584                   20620717.0434
 -10259104.96948  -7981057.67446  21689341.4844                   21689340.2734
 -10354615.69147  -8054286.50145  22287204.3054                   22287202.3524
   8478578.50847   6603968.37645  21828431.6254                   21828430.0004
   5383416.24248   4196509.40446  22075845.5164                   22075841.6684
  14030051.93846  10920142.38644  23737666.1334                   23737665.7464
  -7050976.37147  -5477907.45545  22861641.6564                   22861639.3984
 11  8 19 17 48 30.0000000  0  9G03G24G07G08G11G13G19G23G28
  13415572.16846  10442642.30243  24249470.4224                   24249470.5634
  -1589979.09047  -1226559.33344  23662616.1564                   23662616.6094
  -6393874.60548  -4970614.83947  20609101.6954                   20609099.1804
 -10360596.61348  -8060142.06046  21670028.6644                   21670026.2274
 -10443208.53147  -8123319.85545  22270345.7034                   22270343.4654
   8537905.73047   6650197.30845  21839721.2584                   21839719.4694
   5425631.71147   4229404.54445  22083878.7814                   22083874.8594
  14110344.37946  10982707.70844  23752945.7664                   23752944.3874
  -7119494.93747  -5531298.50745  22848602.5944                   22848600.6884
 11  8 19 17 49  0.0000000  0  8G24G07G08G11G13G19G23G28
  -1694608.01647  -1308088.32443  23642704.8134                   23642706.2814
  -6454608.51248  -5017939.95946  20597544.5944                   20597541.8794
 -10461962.77048  -8139128.66846  21650738.8594                   21650736.6954
 -10531423.38747  -8192058.69245  22253558.8914                   22253557.1334
   8597576.53547   6696693.98645  21851076.3364                   21851074.8484
   5468266.66847   4262626.56145  22091991.8204                   22091988.0904
  14190714.12147  11045333.26544  23768239.9144                   23768238.5164
  -7187857.97747  -5584568.36145  22835593.5704                   22835591.3984
 11  8 19 17 49 30.0000000  0  8G24G07G08G11G13G19G23G28
  -1799129.49247  -1389533.60344  23622815.2814                   23622815.8674
  -6515021.89548  -5065015.34246  20586048.3054                   20586045.7584
 -10563199.74648  -8218014.59946  21631474.3674                   21631472.7854
 -10619256.13747  -8260499.76045  22236844.9614                   22236842.9264
   8657589.65648   6743457.39245  21862496.5784                   21862494.8794
   5511320.15247   4296174.69445  22100184.8134                   22100180.9964
  14271159.80546  11108018.03144  23783547.8134                   23783547.2074
  -7256064.84447  -5637716.54045  22822614.4304                   22822611.9884
 11  8 19 17 50  0.0000000  0  8G24G07G08G11G13G19G23G28
  -1903529.77747  -1470884.45344  23602948.7194                   23602950.1334
  -6575102.18748  -5111831.16046  20574615.3754                   20574612.7664
 -10664294.73448  -8296789.88946  21612236.5554                   21612234.8094
 -10706693.25847  -8328632.55945  22220205.9774                   22220204.4734
   8717952.82847   6790493.56745  21873983.1484                   21873981.7154
   5554799.89847   4330054.98745  22108458.3914                   22108454.7194
  14351689.46147  11170768.19744  23798872.8754                   23798871.3364
  -7324105.69147  -5690735.33045  22809666.2344                   22809664.5004
 11  8 19 17 50 30.0000000  0  8G24G07G08G11G13G19G23G28
  -2007802.42647  -1552135.80544  23583106.4384                   23583107.3164
  -6634844.37548  -5158383.48847  20563246.7504                   20563244.3754
 -10765242.50048  -8375450.47846  21593026.8204                   21593025.1094
 -10793728.73447  -8396452.40145  22203643.5554                   22203641.8914
   8778666.07047   6837802.53645  21885536.6094                   21885535.0664
   5598706.25847   4364267.69545  22116813.6334                   22116810.1724
  14432303.33247  11233584.01043  23814213.4774                   23814211.7424
  -7391978.44947  -5743623.16545  22796750.9384                   22796748.7704
 11  8 19 17 51  0.0000000  0  8G24G07G08G11G13G19G23G28
  -2111949.89546  -1633289.58444  23563287.1644                   23563288.6254
  -6694251.95748  -5204675.14247  20551942.1254                   20551939.5784
 -10866046.98848  -8453999.40946  21573844.3984                   21573842.8954
 -10880365.84847  -8463961.81345  22187157.2274                   22187155.2854
   8839720.71547   6885377.51145  21897155.0944                   21897153.3714
   5643031.10247   4398806.48045  22125248.5084                   22125244.7854
  14512992.84046  11296458.74343  23829567.2974                   23829566.8594
  -7459689.52047  -5796385.02745  22783865.8984                   22783863.9654
 11  8 19 17 51 30.0000000  0  8G24G07G08G11G13G19G23G28
  -2215971.09847  -1714345.03644  23543492.8914                   23543494.3954
  -6753325.21548  -5250706.25846  20540700.8364                   20540698.3754
 -10966707.73848  -8532436.34446  21554689.3754                   21554687.3714
 -10966603.47747  -8531159.93545  22170746.6724                   22170745.2424
   8901112.26247   6933215.01645  21908837.5704                   21908835.8054
   5687769.88348   4433667.83946  22133762.4774                   22133758.5664
  14593753.37947  11359388.83144  23844936.4144                   23844935.5514
  -7527241.73047  -5849023.07045  22771011.1414                   22771008.9384
 11  8 19 17 52  0.0000000  0  8G24G07G08G11G13G19G23G28
  -2319871.02046  -1795305.94744  23523721.2034                   23523722.6564
  -6812070.14848  -5296481.53446  20529521.9924                   20529519.2974
 -11067230.74648  -8610765.95746  21535559.9144                   21535558.2424
 -11052446.86347  -8598050.84645  22154411.3524                   22154410.3134
   8962829.71948   6981306.47645  21920581.8914                   21920579.8404
   5732911.75047   4468843.28045  22142352.4384                   22142348.6604
  14674574.29746  11422365.96643  23860316.1954                   23860314.8204
  -7594643.94147  -5901544.27045  22758184.6334                   22758183.0274
 11  8 19 17 52 30.0000000  0  8G24G07G08G11G13G19G23G28
  -2423648.11346  -1876171.12843  23503972.3674                   23503974.6174
  -6870486.30948  -5342000.62946  20518405.7344                   20518403.1684
 -11167615.33248  -8688987.70246  21516457.7894                   21516456.0904
 -11137894.91847  -8664633.70745  22138150.9614                   22138149.3204
   9024868.63747   7029648.42745  21932387.4304                   21932385.7664
   5778452.60247   4504329.61945  22151018.7034                   22151014.9924
  14755451.23846  11485386.77943  23875706.6174                   23875706.1454
  -7661898.64147  -5953950.49945  22745386.3834                   22745384.7274
 11  8 19 17 53  0.0000000  0  8G24G07G08G11G13G19G23G28
  -2527298.51646  -1956937.58143  23484248.5004                   23484250.1484
  -6928570.66448  -5387261.16947  20507352.7194                   20507350.1724
 -11267858.75048  -8767099.45946  21497381.9614                   21497380.1764
 -11222944.25047  -8730905.87545  22121966.8834                   22121964.4694
   9087227.08247   7078239.34345  21944253.9534                   21944252.5984
   5824390.52747   4540125.37445  22159760.1334                   22159756.6524
  14836382.02746  11548449.48843  23891107.2664                   23891106.6804
  -7729005.92647  -6006241.87745  22732616.4774                   22732615.1024
 11  8 19 17 53 30.0000000  0  8G24G07G08G11G13G19G23G28
  -2630823.95746  -2037606.63944  23464548.3984                   23464550.1374
  -6986326.66048  -5432265.84746  20496362.0314                   20496359.2584
 -11367963.37148  -8845103.03946  21478332.4224                   21478330.9344
 -11307596.52747  -8796868.65145  22105857.8364                   22105856.2074
   9149896.94947   7127072.94645  21956180.0164                   21956178.3754
   5870717.78547   4576224.49145  22168575.7664                   22168572.4344
  14917359.10546  11611548.26843  23906517.3284                   23906516.5554
  -7795971.34047  -6058422.69245  22719873.5474                   22719870.9304
 11  8 19 17 54  0.0000000  0  8G24G07G08G11G13G19G23G28
  -2734210.15247  -2118167.21744  23444874.2734                   23444875.8094
  -7043741.19948  -5477004.46847  20485436.4144                   20485433.8134
 -11467916.27048  -8922988.40846  21459312.2034                   21459310.4454
 -11391838.43447  -8862511.66345  22089827.3204                   22089825.7704
   9212885.92248   7176155.18245  21968166.5944                   21968165.4654
   5917442.77747   4612633.53346  22177467.9614                   22177463.9734
  14998390.38346  11674689.29943  23921936.8444                   23921936.8014
  -7862785.12947  -6110485.34345  22707159.1334                   22707157.2074
 11  8 19 17 54 30.0000000  0  9G17G24G07G08G11G13G19G23G28
   4493509.57857   3517592.83854  24627745.6804                   24627747.7274
  -2837461.06647  -2198622.37044  23425226.9614                   23425228.0234
  -7100819.21148  -5521480.83847  20474574.7974                   20474572.2814
 -11567721.96948  -9000759.07746  21440319.9064                   21440318.0864
 -11475674.18048  -8927838.18145  22073873.8364                   22073871.7584
   9276184.45347   7225478.64845  21980211.1724                   21980209.9654
   5964556.06647   4649345.14445  22186433.1174                   22186429.3914
  15079466.39846  11737865.20743  23937365.5784                   23937365.0124
  -7929455.11347  -6162435.95845  22694472.3524                   22694470.3634
 11  8 19 17 55  0.0000000  0  9G17G24G07G08G11G13G19G23G28
   4355889.18847   3410356.24044  24601557.1564                   24601559.4144
  -2940587.50046  -2278980.54544  23405602.0474                   23405603.9654
  -7157572.82048  -5565704.42547  20463775.2344                   20463772.3484
 -11667392.63748  -9078424.51546  21421353.3134                   21421351.4844
 -11559115.05147  -8992857.02345  22057995.4304                   22057993.7894
   9339775.57847   7275030.10545  21992312.7424                   21992311.5554
   6012040.81647   4686346.21646  22195468.7114                   22195465.7384
  15160570.27346  11801062.70443  23952798.5004                   23952798.9694
  -7995995.81647  -6214285.84445  22681810.2424                   22681807.0664
 11  8 19 17 55 30.0000000  0  9G17G24G07G08G11G13G19G23G28
   4218362.83647   3303192.88444  24575387.2974                   24575388.5704
  -3043590.23847  -2359242.34044  23386001.9614                   23386002.9614
  -7214004.09048  -5609676.85247  20453036.7034                   20453034.1134
 -11766929.92248  -9155986.04146  21402411.8594                   21402410.0394
 -11642162.46547  -9057569.25745  22042192.1884                   22042190.0004
   9403652.66847   7324804.39845  22004468.4224                   22004466.2304
   6059890.16447   4723631.39145  22204574.3914                   22204570.8834
  15241695.60246  11864277.04544  23968236.6954                   23968236.8094
  -8062412.27047  -6266038.90945  22669171.6414                   22669169.3404
 11  8 19 17 56  0.0000000  0  9G17G24G07G08G11G13G19G23G28
   4080937.49647   3196108.29044  24549235.4924                   24549237.4184
  -3146460.93047  -2439401.28544  23366425.8364                   23366426.6094
  -7270105.81648  -5653392.49246  20442360.6174                   20442358.4064
 -11866326.29348  -9233437.74146  21383497.3284                   21383495.4534
 -11724808.49647  -9121968.72245  22026464.7274                   22026463.5274
   9467817.79347   7374803.11845  22016678.5394                   22016677.1684
   6108106.84447   4761202.78945  22213750.0864                   22213746.5554
  15322844.67246  11927509.89844  23983679.3204                   23983679.4844
  -8128700.05947  -6317691.70745  22656556.9064                   22656554.9614
 11  8 19 17 56 30.0000000  0  9G17G24G07G08G11G13G19G23G28
   3943622.88347   3089110.02644  24523105.1254                   24523106.9774
  -3249189.19547  -2519449.19044  23346877.7034                   23346878.0784
  -7325868.82848  -5696844.19547  20431749.1484                   20431747.0164
 -11965572.41048  -9310772.38346  21364611.6334                   21364609.4694
 -11807042.96948  -9186047.51045  22010816.6564                   22010814.4184
   9532275.48447   7425029.81945  22028944.3594                   22028942.7774
   6156695.18847   4799063.81845  22222995.9694                   22222992.0784
  15404021.93846  11990764.70044  23999127.0004                   23999127.0984
  -8194852.89147  -6369239.34945  22643968.9694                   22643966.2544
 11  8 19 17 57  0.0000000  0  9G17G24G07G08G11G13G19G23G28
   3806421.59446   2982200.06244  24496996.5704                   24496999.1994
  -3351771.26247  -2599383.21244  23327356.8984                   23327358.4144
  -7381290.69548  -5740030.06646  20421202.8364                   20421200.2664
 -12064665.43048  -9387987.69046  21345754.5864                   21345752.8714
 -11888862.85947  -9249803.24345  21995246.3524                   21995244.6454
   9597023.12147   7475482.43945  22041265.6484                   22041264.5554
   6205653.24647   4837212.92245  22232312.0004                   22232308.7584
  15485225.16446  12054039.65444  24014579.9384                   24014579.5594
  -8260871.01647  -6420682.00145  22631405.9384                   22631404.0164
 11  8 19 17 57 30.0000000  0  9G17G24G07G08G11G13G19G23G28
   3669332.59446   2875377.59743  24470908.4224                   24470911.4414
  -3454207.08647  -2679203.22644  23307863.7664                   23307864.5204
  -7436372.32848  -5782950.82346  20410721.2504                   20410718.9884
 -12163606.18748  -9465084.37146  21326927.0944                   21326924.8164
 -11970268.71548  -9313236.34445  21979755.5004                   21979753.2624
   9662054.58647   7526156.24045  22053640.8204                   22053639.2894
   6254974.89547   4875645.34845  22241697.9534                   22241694.1604
  15566448.50847  12117330.38443  24030035.7814                   24030036.1094
  -8326758.71947  -6472023.04245  22618867.8204                   22618865.8594
 11  8 19 17 58  0.0000000  0  9G17G24G07G08G11G13G19G23G28
   3532360.78146   2768646.41843  24444844.2894                   24444846.1994
  -3556490.85247  -2758904.78944  23288399.4774                   23288400.5944
  -7491109.53148  -5825603.19146  20400305.1564                   20400302.7544
 -12262389.74648  -9542058.57646  21308128.8364                   21308127.1884
 -12051255.32848  -9376342.77445  21964344.4144                   21964342.0234
   9727369.35547   7577050.76645  22066069.8284                   22066068.3594
   6304660.20347   4914361.14645  22251152.8054                   22251149.1024
  15647692.01246  12180636.79343  24045496.6174                   24045496.2034
  -8392513.98847  -6523260.88945  22606355.3444                   22606352.4694
 11  8 19 17 58 30.0000000  0  9G17G24G07G08G11G13G19G23G28
   3395510.15646   2662009.68543  24418801.9454                   24418804.6054
  -3658617.78547  -2838484.16344  23268965.2194                   23268966.6174
  -7545498.79748  -5867984.42347  20389955.2734                   20389952.9144
 -12361012.08248  -9618907.13546  21289361.7734                   21289359.7894
 -12131817.94548  -9439118.81045  21949013.6484                   21949011.5474
   9792966.57847   7628165.42745  22078552.0704                   22078551.1844
   6354708.22347   4953359.57845  22260676.7274                   22260673.0474
  15728954.57046  12243958.02343  24060960.2584                   24060960.8794
  -8458135.98847  -6574394.89945  22593867.5634                   22593865.6134
 11  8 19 17 59  0.0000000  0  9G17G24G07G08G11G13G19G23G28
   3258784.65246   2555470.51743  24392783.3444                   24392785.5354
  -3760582.93747  -2917937.46344  23249562.0634                   23249562.8524
  -7599535.77748  -5910091.16446  20379672.2344                   20379669.5634
 -12459469.21548  -9695626.96846  21270626.2584                   21270624.0594
 -12211952.43447  -9501561.25745  21933764.2894                   21933762.4064
   9858845.18447   7679499.31445  22091089.0164                   22091087.5514
   6405118.23447   4992640.07945  22270269.0554                   22270265.7854
  15810235.65246  12307293.73343  24076428.0944                   24076426.6604
  -8523623.74247  -6625424.33645  22581405.8054                   22581403.3634
 11  8 19 17 59 30.0000000  0  9G17G24G07G08G11G13G19G23G28
   3122183.43846   2449028.09943  24366790.0084                   24366791.2624
  -3862385.82447  -2997264.33944  23230189.4064                   23230190.1134
  -7653221.86348  -5951924.47946  20369456.0474                   20369453.3634
 -12557761.62948  -9772218.43746  21251921.3594                   21251919.3094
 -12291659.28547  -9563670.46845  21918596.7034                   21918594.7664
   9924999.18047   7731047.79845  22103677.6804                   22103676.4694
   6455884.43047   5032198.12745  22279930.0554                   22279926.2384
  15891529.43846  12370639.30142  24091897.4614                   24091897.5514
  -8588980.92247  -6676351.97145  22568968.1564                   22568966.3484
 11  8 19 18  0  0.0000000  0  9G17G24G07G08G11G13G19G23G28
   2985707.74246   2342683.62543  24340819.1024                   24340820.3244
  -3964024.30947  -3076463.08844  23210848.2894                   23210848.8054
  -7706556.19148  -5993483.70246  20359306.9614                   20359304.5594
 -12655888.32848  -9848680.79346  21233248.7584                   21233246.5904
 -12370936.58247  -9625444.97645  21903510.4304                   21903509.2424
   9991424.43047   7782807.66545  22116317.8984                   22116316.5434
   6507003.12947   5072030.84045  22289657.2034                   22289653.9884
  15972832.40246  12433992.01543  24107368.9384                   24107368.7154
  -8654209.64847  -6727179.55245  22556555.5394                   22556554.2544
 11  8 19 18  0 30.0000000  0  9G17G24G07G08G11G13G19G23G28
   2849357.39847   2236436.75043  24314872.9844                   24314873.8324
  -4065497.61347  -3155533.11743  23191538.4844                   23191538.9774
  -7759539.23448  -6034769.20047  20349224.8834                   20349222.2544
 -12753848.91048  -9925013.69646  21214607.3524                   21214605.5164
 -12449784.10548  -9686884.55645  21888506.6094                   21888505.0234
  10058115.72347   7834774.82145  22129008.8984                   22129008.0784
   6558469.12947   5112134.20445  22299450.9224                   22299447.5004
  16054139.38346  12497347.86643  24122841.6564                   24122841.4144
  -8719312.80547  -6777909.27845  22544167.2814                   22544164.6294
 11  8 19 18  1  0.0000000  0  9G17G24G07G08G11G13G19G23G28
   2713140.48447   2130293.86344  24288951.4924                   24288952.5864
  -4166796.91847  -3234467.59044  23172261.8364                   23172262.5594
  -7812162.80548  -6075774.60747  20339210.8674                   20339208.0944
 -12851635.30148 -10001210.88946  21195999.3444                   21195997.2974
 -12528193.69548  -9747982.92545  21873585.5634                   21873583.7664
  10125075.97747   7886951.56345  22141750.8984                   22141749.6884
   6610285.64547   5152510.67245  22309311.5004                   22309308.1134
  16135453.23046  12560709.13043  24138315.0164                   24138315.2734
  -8784285.48047  -6828537.33445  22531803.3134                   22531801.2504
 11  8 19 18  1 30.0000000  0  9G17G24G07G08G11G13G19G23G28
   2577052.87947   2024251.75344  24263054.2114                   24263056.6994
  -4267925.00047  -3313268.63244  23153017.8284                   23153018.7194
  -7864431.64848  -6116503.56946  20329264.2584                   20329261.7304
 -12949251.66448 -10077275.58546  21177423.3754                   21177421.2814
 -12606168.38747  -9808742.39945  21858747.6334                   21858745.5594
  10192296.27747   7939330.93845  22154542.3754                   22154541.6954
   6662443.53947   5193153.17245  22319236.6564                   22319233.1254
  16216765.21246  12624068.76943  24153789.0004                   24153789.0744
  -8849134.93047  -6879069.37745  22519462.6334                   22519460.5594
 11  8 19 18  2  0.0000000  0  9G17G24G07G08G11G13G19G23G28
   2441099.61347   1918314.34644  24237183.5704                   24237185.0664
  -4368876.09447  -3391931.73344  23133807.5004                   23133808.4024
  -7916341.01648  -6156952.44447  20319386.3674                   20319383.6374
 -13046692.69948 -10153203.64746  21158881.0784                   21158878.9884
 -12683703.75447  -9869159.55145  21843993.2194                   21843991.0474
  10259776.15647   7991912.56845  22167383.8524                   22167382.8484
   6714942.75847   5234061.62445  22329227.3594                   22329223.4734
  16298075.48846  12687427.24244  24169261.7194                   24169262.0744
  -8913859.09047  -6929503.77445  22507146.0394                   22507144.2424
 11  8 19 18  2 30.0000000  0  9G17G24G07G08G11G13G19G23G28
   2305285.25847   1812485.14944  24211338.1804                   24211340.3364
  -4469644.09447  -3470452.22944  23114631.5234                   23114633.1214
  -7967886.09448  -6197117.45647  20309577.7274                   20309575.0664
 -13143953.70748 -10228991.44246  21140372.9144                   21140370.9494
 -12760794.24648  -9929230.02845  21829323.2974                   21829321.2114
  10327515.59847   8044696.47145  22180274.2504                   22180273.0314
   6767783.85247   5275236.47045  22339282.8674                   22339278.9414
  16379384.45746  12750784.57544  24184734.6024                   24184735.2734
  -8978456.18447  -6979839.15945  22494854.0704                   22494851.4534
 11  8 19 18  3  0.0000000  0  9G17G24G07G08G11G13G19G23G28
   2169613.33246   1706766.96344  24185520.7034                   24185522.7114
  -4570224.63347  -3548826.63944  23095492.4614                   23095493.3984
  -8019063.88748  -6236996.26146  20299839.0314                   20299836.5864
 -13241030.87948 -10304635.97946  21121899.9534                   21121897.5864
 -12837436.16047  -9988950.98545  21814738.1254                   21814736.8284
  10395512.39547   8097680.90245  22193213.1484                   22193213.1254
   6820965.07847   5316676.34945  22349402.5394                   22349399.3874
  16460690.37546  12814139.57044  24200206.8134                   24200207.0084
  -9042925.91847  -7030075.30345  22482585.3134                   22482583.8754
 11  8 19 18  3 30.0000000  0  9G17G24G07G08G11G13G19G23G28
   2034078.22346   1601155.42844  24159729.6174                   24159730.6524
  -4670622.25047  -3627058.54144  23076386.9304                   23076388.6804
  -8069880.30948  -6276593.49046  20290168.7344                   20290165.9224
 -13337929.54348 -10380141.42546  21103460.5784                   21103458.5824
 -12913634.56647 -10048326.31645  21800238.8284                   21800236.6804
  10463756.12547   8150857.73945  22206200.1334                   22206199.1054
   6874475.56647   5358372.82145  22359585.0634                   22359581.5474
  16541983.05546  12877484.25644  24215676.2114                   24215676.7504
  -9107276.54347  -7080218.63445  22470340.4534                   22470337.8634
 11  8 19 18  4  0.0000000  0  9G17G24G07G08G11G13G19G23G28
   1898683.20346   1495653.00744  24133963.6334                   24133965.5634
  -4770833.09447  -3705144.88944  23057317.8754                   23057318.3324
  -8120332.80548  -6315907.13347  20280568.0314                   20280565.5354
 -13434646.24648 -10455505.07746  21085055.9384                   21085054.1764
 -12989386.28548 -10107353.61045  21785823.6804                   21785821.3524
  10532244.78147   8204225.43645  22219233.3674                   22219232.1484
   6928314.00047   5400324.82145  22369829.9924                   22369826.9574
  16623260.48847  12940817.08544  24231142.9694                   24231143.9574
  -9171508.19147  -7130269.26345  22458117.2974                   22458114.7114
 11  8 19 18  4 30.0000000  0  9G17G24G07G08G11G13G19G23G28
   1763430.39846   1390261.49544  24108226.4844                   24108228.0004
  -4870853.95747  -3783083.23344  23038283.8364                   23038285.0314
  -8170419.08648  -6354935.41047  20271036.8284                   20271034.3284
 -13531178.67648 -10530725.13646  21066686.5634                   21066684.3594
 -13064688.68448 -10166030.78745  21771493.5474                   21771491.5744
  10600975.07047   8257781.42045  22232312.0944                   22232311.2504
   6982477.46547   5442530.09745  22380137.5004                   22380134.1764
  16704519.98846  13004135.90043  24246605.9844                   24246607.0354
  -9235621.96147  -7180228.03745  22445916.6564                   22445914.7424
 11  8 19 18  5  0.0000000  0  9G17G24G07G08G11G13G19G23G28
   1628320.73446   1284981.44844  24082515.2344                   24082517.6564
  -4970682.40247  -3860871.61444  23019287.5634                   23019288.4534
  -8220138.28548  -6393677.67447  20261575.9774                   20261572.9224
 -13627525.48048 -10605800.56046  21048351.9774                   21048350.6024
 -13139540.35948 -10224356.72345  21757250.2504                   21757248.1844
  10669943.16847   8311522.69845  22245436.6724                   22245435.4694
   7036962.18847   5484985.69145  22390505.6644                   22390501.7194
  16785758.33646  13067438.18343  24262066.0634                   24262066.6334
  -9299619.28547  -7230096.05345  22433738.4384                   22433735.6844
 11  8 19 18  5 30.0000000  0  9G17G24G07G08G11G13G19G23G28
   1493354.48446   1179813.16844  24056832.1954                   24056833.2504
  -5070317.52047  -3938509.34744  23000327.7274                   23000329.0314
  -8269490.76648  -6432134.15247  20252183.9844                   20252181.6134
 -13723686.37148 -10680731.10546  21030053.5704                   21030051.4494
 -13213941.05547 -10282331.28745  21743092.5234                   21743090.1334
  10739144.32847   8365445.60745  22258605.1254                   22258604.1134
   7091763.42646   5527687.93045  22400933.7584                   22400930.3404
  16866970.83246  13130720.32743  24277520.5234                   24277520.5474
  -9363503.21147  -7279875.70445  22421582.1804                   22421579.6254
 11  8 19 18  6  0.0000000  0  9G17G24G07G08G11G13G19G23G28
   1358527.85546   1074753.67244  24031174.9774                   24031176.8524
  -5169761.51647  -4015998.16144  22981403.5234                   22981404.9414
  -8318480.38748  -6470307.88947  20242861.7894                   20242859.0004
 -13819664.56248 -10755519.30546  21011789.2584                   21011787.4344
 -13287893.79347 -10339956.76345  21729019.0474                   21729017.2274
  10808569.67647   8419543.18245  22271815.9144                   22271815.0164
   7146872.69147   5570630.18745  22411420.5394                   22411416.8594
  16948149.18046  13193975.93143  24292967.5394                   24292968.8054
  -9427280.19147  -7329572.01545  22409445.1724                   22409442.7384
 11  8 19 18  6 30.0000000  0  9G17G24G07G08G11G13G19G23G28
   1223852.19946    969811.80844  24005547.2114                   24005549.0124
  -5269002.25047  -4093328.57344  22962518.9924                   22962519.9694
  -8367096.27348  -6508190.38146  20233610.4384                   20233607.9774
 -13915448.60548 -10830156.20046  20993562.4454                   20993560.4264
 -13361387.02348 -10397224.18245  21715034.3204                   21715032.0664
  10878225.40247   8473820.28945  22285071.5634                   22285070.2584
   7202296.29347   5613817.38045  22421967.5164                   22421964.6844
  17029299.51246  13257209.60542  24308409.8674                   24308411.8094
  -9490941.95747  -7379178.56345  22397331.1094                   22397328.6094
 11  8 19 18  7  0.0000000  0  8G17G24G07G08G11G13G19G28
   1089325.75447    864986.20244  23979948.2814                   23979948.4774
  -5368040.55547  -4170501.26144  22943672.3914                   22943673.5004
  -8415340.38348  -6545783.19947  20224429.8364                   20224427.3794
 -14011039.97748 -10904642.98946  20975371.6024                   20975370.1954
 -13434422.57847 -10454134.99545  21701135.5004                   21701133.6294
  10948104.38747   8528271.34245  22298368.7664                   22298367.7034
   7258027.63747   5657244.37245  22432572.9144                   22432569.0824
  -9554493.36747  -7428699.10545  22385237.3524                   22385235.1024
 11  8 19 18  7 30.0000000  0  8G17G24G07G08G11G13G19G28
    954951.98047    760279.52844  23954376.7274                   23954377.9104
  -5466871.71947  -4247512.53244  22924865.7114                   22924866.5634
  -8463209.54748  -6583083.85647  20215320.6334                   20215317.9614
 -14106434.84448 -10978976.64046  20957218.7504                   20957217.0634
 -13506996.98048 -10510686.46945  21687325.2734                   21687323.6564
  11018205.20347   8582895.26645  22311708.9534                   22311707.5554
   7314065.40647   5700910.12345  22443236.4064                   22443233.0554
  -9617933.87147  -7478133.23845  22373165.1254                   22373162.4574
 11  8 19 18  8  0.0000000  0  8G17G24G07G08G11G13G19G28
   2396177.42647   1883312.53844  24228632.4774                   24228634.9534
  -3990049.50047  -3096741.91144  23205895.7814                   23205896.3874
  -6935260.51248  -5392474.21447  20506079.9924                   20506077.1764
 -12626188.05147  -9825537.56946  21238899.9844                   21238898.3674
 -12003665.21948  -9339259.09645  21973400.1334                   21973397.9574
  12663962.30547   9865303.32845  22624885.9064                   22624884.5004
   8945844.44147   6972426.23645  22753753.4844                   22753750.1094
  -8105822.59047  -6299864.68445  22660910.0394                   22660908.1374
 11  8 19 18  8 30.0000000  0  8G17G24G07G08G11G13G19G28
   2262142.16047   1778869.62444  24203126.8134                   24203127.8014
  -4088430.23047  -3173402.18744  23187174.2424                   23187175.3404
  -6982347.68748  -5429165.55347  20497119.4144                   20497116.7894
 -12721156.43747  -9899538.89746  21220828.4534                   21220826.4614
 -12075282.86348  -9395065.02145  21959771.5164                   21959769.4804
  12734524.50047   9920286.74345  22638313.9224                   22638312.7304
   9002513.27347   7016583.72245  22764537.3054                   22764533.9024
  -8169017.26647  -6349107.25345  22648884.7664                   22648882.1644
 11  8 19 18  9  0.0000000  0  8G17G24G07G08G11G13G19G28
   2128277.57047   1674559.75444  24177652.9304                   24177654.3134
  -4186582.71947  -3249884.56044  23168495.8834                   23168497.0704
  -7029042.72348  -5465551.28647  20488233.5864                   20488231.1684
 -12815909.44548  -9973372.40946  21202797.3594                   21202795.7344
 -12146420.17648  -9450496.66345  21946234.4774                   21946232.8524
  12805311.23847   9975445.14544  22651783.7974                   22651782.5554
   9059492.00447   7060982.70445  22775380.4454                   22775376.5234
  -8232091.73447  -6398256.18345  22636882.1954                   22636879.6134
 11  8 19 18  9 30.0000000  0  8G17G24G07G08G11G13G19G28
   1994580.78547   1570380.60044  24152211.4144                   24152212.3444
  -4284509.02047  -3326190.69144  23149861.6254                   23149862.0744
  -7075349.17648  -5501634.25246  20479421.9454                   20479419.2114
 -12910449.52048 -10047039.99246  21184807.0864                   21184805.3404
 -12217079.91448  -9505556.18145  21932788.1724                   21932786.3954
  12876314.33647  10030772.12345  22665295.3134                   22665294.6994
   9116772.53547   7105616.86145  22786280.6564                   22786276.8054
  -8295052.23447  -6447316.29745  22624901.1954                   22624898.9344
 11  8 19 18 10  0.0000000  0  9G17G24G07G08G26G11G13G19G28
   1861052.46146   1466332.74144  24126801.1724                   24126802.4264
  -4382207.44547  -3402319.27344  23131270.2034                   23131270.5984
  -7121266.35248  -5537413.87846  20470684.1954                   20470681.5274
 -13004775.85248 -10120541.02146  21166857.3524                   21166855.7074
   6096980.49656   4764866.15653  24357366.8594                   24357367.6414
 -12287261.82448  -9560243.36245  21919433.0554                   21919430.9964
  12947529.06347  10086264.00544  22678846.8594                   22678846.4144
   9174350.57047   7150482.82245  22797236.9614                   22797233.6254
  -8357900.98847  -6496289.35445  22612941.1414                   22612939.4264
 11  8 19 18 10 30.0000000  0  9G17G24G07G08G26G11G13G19G28
   1727679.22346   1362405.64344  24101421.4774                   24101422.4224
  -4479689.60946  -3478279.32044  23112719.5704                   23112720.4344
  -7166807.89848  -5572900.81647  20462017.9304                   20462015.0554
 -13098901.03147 -10193885.31246  21148945.7584                   21148944.0314
   5976514.35546   4670996.53243  24334443.1644                   24334443.9104
 -12356978.31247  -9614567.86445  21906166.2504                   21906164.2584
  13018938.11747  10141907.33044  22692436.0394                   22692435.4924
   9232208.59847   7195566.95145  22808247.0944                   22808243.8094
  -8420653.64547  -6545187.51145  22600999.7114                   22600998.3014
 11  8 19 18 11  0.0000000  0  9G17G24G07G08G26G11G13G19G28
   1594456.29746   1258595.77144  24076069.8364                   24076070.6454
  -4576959.78547  -3554074.17544  23094209.6954                   23094210.0124
  -7211978.95748  -5608099.05347  20453421.9144                   20453419.3014
 -13192829.43048 -10267076.25446  21131071.7344                   21131070.1524
   5856414.36346   4577412.14343  24311589.4064                   24311589.7974
 -12426234.28548  -9668533.54645  21892987.3364                   21892985.7194
  13090530.75447  10197693.71044  22706059.6024                   22706059.0204
   9290336.59447   7240861.46245  22819308.8134                   22819305.0634
  -8483318.26647  -6594017.08045  22589075.4064                   22589073.0084
 11  8 19 18 11 30.0000000  0  9G17G24G07G08G26G11G13G19G28
   1461392.44946   1154909.80944  24050748.2584                   24050748.6254
  -4674008.10247  -3629696.15644  23075741.6094                   23075743.0274
  -7256771.39148  -5643002.26147  20444898.1884                   20444895.7664
 -13286552.61748 -10340107.31346  21113237.2114                   21113234.8984
   5736689.96146   4484120.46944  24288806.5004                   24288806.7624
 -12495021.21948  -9722133.73445  21879897.5784                   21879896.0274
  13162310.77047  10253626.07844  22719719.1884                   22719718.3524
   9348738.23447   7286369.18345  22830422.3204                   22830418.3014
  -8545889.41847  -6642773.83245  22577168.3754                   22577166.0394
 11  8 19 18 12  0.0000000  0  9G17G24G07G08G26G11G13G19G28
   1328490.35546   1051349.87744  24025457.7194                   24025458.6884
  -4770830.64147  -3705142.20144  23057317.6564                   23057317.9224
  -7301182.62548  -5677608.42247  20436446.9694                   20436444.6684
 -13380067.16848 -10412975.78146  21095441.8054                   21095439.8554
   5617344.86746   4391124.36143  24266095.7814                   24266096.0904
 -12563336.09847  -9775366.08845  21866898.1644                   21866895.9614
  13234275.94547  10309702.72544  22733413.9534                   22733412.8524
   9407412.34847   7332089.23145  22841588.0704                   22841583.8834
  -8608366.89147  -6691457.57645  22565279.4454                   22565277.0784
 11  8 19 18 12 30.0000000  0  9G17G24G07G08G26G11G13G19G28
   1195755.12546    947919.94744  24000198.9534                   24000199.7074
  -4867421.25847  -3780407.52144  23038936.3364                   23038937.3244
  -7345208.02748  -5711913.93747  20428069.3674                   20428066.8324
 -13473367.43448 -10485677.27146  21077687.2734                   21077685.7074
   5498384.71146   4298428.23043  24243458.8754                   24243458.6684
 -12631173.35247  -9828226.25845  21853988.9064                   21853986.8094
  13306426.09847  10365923.51644  22747143.4454                   22747142.6414
   9466358.58647   7378021.33245  22852803.9924                   22852800.9454
  -8670748.53547  -6740066.64445  22553408.1564                   22553406.0124
 11  8 19 18 13  0.0000000  0  9G17G24G07G08G26G11G13G19G28
   1063189.37547    844622.08944  23974972.2664                   23974973.2734
  -4963776.24247  -3855489.22844  23020600.3524                   23020601.2854
  -7388844.92248  -5745916.69647  20419765.5314                   20419762.8244
 -13566450.22348 -10558209.30546  21059974.4224                   21059972.4104
   5379813.22746   4206034.90943  24220895.1884                   24220894.8984
 -12698530.52747  -9880712.34545  21841171.1414                   21841169.1724
  13378759.10247  10422286.80244  22760907.9694                   22760907.2274
   9525574.60547   7424163.62845  22864073.2034                   22864070.1174
  -8733034.29747  -6788600.97445  22541555.5634                   22541553.7194
 11  8 19 18 13 30.0000000  0  9G17G24G07G08G26G11G13G19G28
    930800.71946    741462.21744  23949779.5084                   23949781.2274
  -5059886.94547  -3930380.64644  23002311.2344                   23002311.7114
  -7432086.05548  -5779611.10047  20411537.1954                   20411534.4384
 -13659307.59448 -10630565.68046  21042303.9924                   21042302.3404
   5261638.35546   4113950.60843  24198406.7114                   24198406.7544
 -12765400.00448  -9932818.40345  21828446.2664                   21828444.4804
  13451277.21547  10478794.31044  22774707.9694                   22774707.4694
   9585063.07447   7470518.22145  22875393.3834                   22875390.4774
  -8795219.94147  -6837057.31345  22529722.2344                   22529719.8164
 11  8 19 18 14  0.0000000  0  9G17G24G07G08G26G11G13G19G28
    798589.21546    638440.38744  23924620.6644                   23924621.3594
  -5155752.25847  -4005080.80444  22984068.5394                   22984069.9924
  -7474932.06648  -5812997.60347  20403383.7114                   20403381.3324
 -13751939.37147 -10702746.27046  21024676.6174                   21024674.9774
   5143861.27746   4022176.35943  24175994.3754                   24175994.7154
 -12831781.36348  -9984544.11345  21815814.4144                   21815812.3754
  13523975.64147  10535442.32744  22788541.7424                   22788541.4264
   9644819.52747   7517081.62745  22886764.7114                   22886761.3164
  -8857308.18447  -6885437.74345  22517907.4384                   22517905.3634
 11  8 19 18 14 30.0000000  0  9G17G24G07G08G26G11G13G19G28
    666559.41846    535560.11744  23899496.3204                   23899497.0664
  -5251366.68047  -4079585.46344  22965873.8674                   22965874.6524
  -7517379.05948  -5846073.18547  20395305.9534                   20395303.7074
 -13844340.58647 -10774747.19946  21007093.6334                   21007091.4384
   5026486.60546   3930715.64943  24153659.2894                   24153658.8444
 -12897670.54748 -10035886.30845  21803276.1414                   21803274.3674
  13596853.42247  10592230.12244  22802410.0084                   22802409.9884
   9704843.43847   7563853.45545  22898186.6414                   22898183.5744
  -8919297.94947  -6933741.42545  22506110.9844                   22506109.1994
 11  8 19 18 15  0.0000000  0  9G17G24G07G08G26G11G13G19G28
    534709.59847    432820.11144  23874406.4304                   23874406.8204
  -5346730.39547  -4153894.77844  22947727.3524                   22947727.6644
  -7559428.42648  -5878838.93247  20387304.7974                   20387301.8164
 -13936512.16848 -10846569.20346  20989553.9924                   20989551.5784
   4909514.24646   3839568.35243  24131399.5944                   24131399.2774
 -12963068.70748 -10086845.89145  21790831.4534                   21790829.0704
  13669904.14847  10649152.65044  22816311.0704                   22816310.7894
   9765128.46547   7610828.75945  22909658.6884                   22909655.3364
  -8981192.74647  -6981971.11545  22494332.8984                   22494330.7384
 11  8 19 18 15 30.0000000  0  9G17G24G07G08G26G11G13G19G28
    403039.10946    330219.80544  23849349.6724                   23849350.1914
  -5441843.06247  -4228008.49844  22929627.5164                   22929628.0434
  -7601081.17248  -5911295.63047  20379378.3594                   20379375.8914
 -14028454.25048 -10918212.37746  20972057.8984                   20972055.4654
   4792944.24646   3748734.71142  24109216.4384                   24109216.3134
 -13027976.54747 -10137423.40445  21778479.6094                   21778478.0514
  13743122.52347  10706205.82444  22830244.6174                   22830244.3364
   9825669.62947   7658003.63245  22921179.3914                   22921175.7854
  -9042996.10547  -7030129.55245  22482572.1254                   22482569.3094
 11  8 19 18 16  0.0000000  0  9G17G24G07G08G26G11G13G19G28
    271549.95747    227760.85244  23824328.2814                   23824328.6294
  -5536701.83647  -4301924.37644  22911576.4534                   22911577.0944
  -7642335.92648  -5943442.19447  20371527.9614                   20371525.3204
 -14120164.52048 -10989674.92546  20954605.7734                   20954604.0474
   4676778.85246   3658216.29342  24087111.5554                   24087110.9734
 -13092392.60947 -10187617.72445  21766221.7814                   21766219.4694
  13816504.94547  10763386.83344  22844208.7814                   22844208.1804
   9886463.75447   7705375.63845  22932748.5234                   22932744.6524
  -9104709.39147  -7078217.81145  22470828.2274                   22470826.4454
 11  8 19 18 16 30.0000000  0  9G17G24G07G08G26G11G13G19G28
    140245.89146    125446.08844  23799342.0474                   23799341.8794
  -5631301.75047  -4375638.53244  22893574.7194                   22893575.0704
  -7683189.23848  -5975275.96647  20363753.9304                   20363751.2234
 -14211638.90648 -11060953.64846  20937198.7814                   20937196.5704
   4561022.73846   3568016.71942  24065083.8284                   24065083.7934
 -13156312.50047 -10237425.43145  21754058.0634                   21754056.0824
  13890050.16447  10820694.66344  22858204.1094                   22858203.1994
   9947509.87947   7752943.99745  22944365.0234                   22944361.3094
  -9166331.68047  -7126235.16345  22459101.3524                   22459099.9264
 11  8 19 18 17  0.0000000  0  9G17G24G07G08G26G11G13G19G28
      9129.49646     23277.57944  23774390.7194                   23774391.5474
  -5725639.25847  -4449148.24144  22875622.8914                   22875623.4104
  -7723639.09848  -6006795.35046  20356056.5704                   20356053.8444
 -14302873.98448 -11132045.91446  20919837.3364                   20919835.6414
   4445679.38346   3478138.83242  24043134.6174                   24043134.5704
 -13219733.65247 -10286844.50645  21741989.7814                   21741987.6954
  13963756.24247  10878127.84744  22872229.9384                   22872229.7504
  10008806.00447   7800707.17845  22956029.5864                   22956026.1454
  -9227863.03147  -7174181.65545  22447392.7814                   22447390.4104
 11  8 19 18 17 30.0000000  0  9G17G24G07G08G26G11G13G19G28
   -121795.84846    -78742.04744  23749476.3834                   23749476.6254
  -5819710.22747  -4522450.26444  22857721.5314                   22857722.4574
  -7763682.23448  -6037997.79847  20348436.6564                   20348433.9064
 -14393866.10247 -11202948.84946  20902522.1724                   20902520.3524
   4330752.44146   3388585.45043  24021264.9304                   24021263.5864
 -13282653.02347 -10335872.56545  21730016.2814                   21730014.4924
  14037620.75047  10935684.48444  22886285.9534                   22886286.0354
  10070350.29347   7848663.71545  22967740.9844                   22967737.0904
  -9289302.93747  -7222056.88645  22435701.4064                   22435698.9654
 11  8 19 18 18  0.0000000  0  9G17G24G07G08G26G11G13G19G28
   -252529.12146   -180612.01344  23724598.9454                   23724599.1024
  -5913512.16847  -4595542.65744  22839871.8674                   22839872.4844
  -7803318.32048  -6068883.07347  20340893.8364                   20340891.5904
 -14484613.14848 -11273660.83746  20885253.4844                   20885251.6254
   4216244.06647   3299358.19443  23999474.8834                   23999474.0944
 -13345069.36747 -10384508.67245  21718138.7664                   21718137.1994
  14111640.54747  10993362.12044  22900371.1254                   22900371.2584
  10132139.35947   7896810.99945  22979499.0004                   22979495.8014
  -9350653.29747  -7269862.33345  22424026.6804                   22424024.5004
 11  8 19 18 18 30.0000000  0  9G17G24G07G08G26G11G13G19G28
   -383071.67646   -282333.41444  23699757.5004                   23699757.7034
  -6007045.19147  -4668425.51944  22822073.2344                   22822073.5864
  -7842548.85248  -6099452.34247  20333428.7034                   20333426.2814
 -14575116.53547 -11344182.94146  20868031.4064                   20868029.0314
   4102153.43446   3210456.47443  23977764.0704                   23977763.6024
 -13406984.45747 -10432754.17245  21706356.5164                   21706354.6054
  14185808.72347  11051155.39644  22914485.6334                   22914485.2814
  10194166.87947   7945144.07944  22991302.4844                   22991299.0664
  -9411918.28147  -7317601.28645  22412368.1094                   22412365.8324
 11  8 19 18 19  0.0000000  0  9G17G24G07G08G26G11G13G19G28
   -513418.39846   -383902.17044  23674952.6724                   23674953.8444
  -6100303.02347  -4741093.92045  22804326.8204                   22804326.9654
  -7881368.61348  -6129701.50947  20326041.7114                   20326039.2034
 -14665370.41048 -11414510.63146  20850856.6414                   20850854.3874
   3988486.73447   3121885.06343  23956133.6804                   23956133.4804
 -13468392.82047 -10480604.85245  21694671.4774                   21694669.2584
  14260125.90247  11109064.75444  22928627.6174                   22928627.2504
  10256433.48447   7993663.46645  23003151.4454                   23003148.1484
  -9473095.17647  -7365271.55545  22400726.5314                   22400724.6414
 11  8 19 18 19 30.0000000  0  9G17G24G07G08G26G11G13G19G28
   -643564.09446   -485314.26844  23650186.6254                   23650188.1214
  -6193279.84847  -4813543.34944  22786633.4224                   22786633.4774
  -7919773.86748  -6159627.69347  20318733.1804                   20318730.7114
 -14755369.39847 -11484639.71146  20833730.5234                   20833728.3794
   3875249.18847   3033648.09743  23934585.5314                   23934585.5784
 -13529289.81247 -10528057.02645  21683082.9144                   21683080.8324
  14334592.03147  11167090.18344  22942798.4454                   22942798.0554
  10318939.52747   8042369.42044  23015045.8284                   23015042.9384
  -9534182.20747  -7412871.84345  22389102.1884                   22389099.9804
 11  8 19 18 20  0.0000000  0  9G17G24G07G08G26G11G13G19G28
   -773508.45747   -586569.50244  23625459.4224                   23625460.4454
  -6285974.24647  -4885772.70144  22768994.7974                   22768995.0274
  -7957764.42248  -6189230.75947  20311503.7974                   20311501.7194
 -14845112.43048 -11554569.34446  20816652.6724                   20816650.4774
   3762441.99247   2945746.42143  23913118.6884                   23913118.9494
 -13589675.15247 -10575110.53245  21671591.8594                   21671589.7034
  14409201.84447  11225227.59944  22956995.8834                   22956995.7704
  10381680.33247   8091258.31345  23026985.0234                   23026981.9104
  -9595181.69947  -7460403.89445  22377494.4454                   22377492.0354
 11  8 19 18 20 30.0000000  0  9G17G24G07G08G26G11G13G19G28
   -903256.59047   -687671.82344  23600768.7194                   23600769.2274
  -6378389.64546  -4957784.68244  22751408.6334                   22751409.0634
  -7995345.02348  -6218514.34947  20304352.5474                   20304350.2734
 -14934603.62548 -11624302.74146  20799623.2344                   20799620.9964
   3650061.15647   2858176.99644  23891732.8984                   23891733.2504
 -13649553.59447 -10621769.04745  21660196.9614                   21660195.0904
  14483946.36747  11283469.95144  22971219.8524                   22971219.1604
  10444646.77047   8140323.02444  23038967.2894                   23038964.1914
  -9656100.70747  -7507873.22845  22365901.9844                   22365899.7074
 11  8 19 18 21  0.0000000  0  9G17G24G07G08G26G11G13G19G28
  -1032801.63747   -788615.89144  23576117.5314                   23576117.3164
  -6470518.41446  -5029573.30244  22733876.4924                   22733877.3404
  -8032509.87948  -6247473.99047  20297280.5474                   20297277.9884
 -15023835.68448 -11693834.21046  20782643.2894                   20782640.8984
   3538113.92246   2770945.44643  23870429.7274                   23870431.0084
 -13708918.58247 -10668027.44145  21648900.4614                   21648898.1994
  14558826.93047  11341818.29844  22985469.0944                   22985468.6804
  10507840.68447   8189564.96545  23050993.2034                   23050989.4224
  -9716935.78147  -7555277.16245  22354325.4774                   22354323.3444
 11  8 19 18 21 30.0000000  0  9G17G24G07G08G26G11G13G19G28
  -1162140.60947   -889399.40545  23551504.9384                   23551505.5944
  -6562356.42247  -5101135.36444  22716400.6884                   22716401.4144
  -8069256.09048  -6276107.41147  20290287.6644                   20290285.3594
 -15112805.08648 -11763161.02246  20765712.9384                   20765710.6174
   3426604.22746   2684054.77744  23849211.0004                   23849211.7234
 -13767767.26647 -10713883.53845  21637701.7504                   21637699.7234
  14633841.64547  11400271.22344  22999743.7504                   22999743.0704
  10571260.57447   8238983.03745  23063061.4844                   23063057.9614
  -9777686.53947  -7602615.41645  22342764.8134                   22342762.5274
 11  8 19 18 22  0.0000000  0  9G17G24G07G08G26G11G13G19G28
  -1291270.13347   -990019.68645  23526932.0004                   23526933.1174
  -6653899.01647  -5172467.19444  22698980.5944                   22698981.2234
  -8105580.76248  -6304412.36547  20283375.6334                   20283373.0164
 -15201507.89548 -11832280.08146  20748832.5474                   20748831.0164
   3315535.96546   2597508.11643  23828075.5004                   23828075.9144
 -13826096.54747 -10759334.89145  21626602.2894                   21626600.4144
  14708989.02747  11458827.47344  23014043.1804                   23014043.6524
  10634905.05947   8288576.10144  23075172.1254                   23075169.1564
  -9838352.30947  -7649887.42245  22331220.1724                   22331218.0354
 11  8 19 18 22 30.0000000  0  9G17G24G07G08G26G11G13G19G28
  -1420192.80947  -1090478.78344  23502399.1254                   23502399.5864
  -6745148.11747  -5243570.34244  22681616.4534                   22681617.0314
  -8141487.14148  -6332391.36647  20276542.8134                   20276540.2344
 -15289946.33248 -11901193.14946  20732003.5394                   20732001.6914
   3204906.90646   2511303.67643  23807023.3524                   23807023.9064
 -13883909.54347 -10804383.96145  21615600.8134                   21615598.6294
  14784261.66847  11517481.34844  23028367.7974                   23028367.8364
  10698766.63747   8338338.30745  23087324.7274                   23087321.2774
  -9898938.65647  -7697097.54545  22319691.0704                   22319689.3404
 11  8 19 18 23  0.0000000  0  9G17G24G07G08G26G11G13G19G28
  -1548902.00847  -1190771.52744  23477906.1024                   23477907.1294
  -6836095.85247  -5314438.65444  22664309.4694                   22664310.1764
  -8176968.82048  -6360039.45447  20269790.7734                   20269788.1764
 -15378112.99647 -11969894.43646  20715226.1334                   20715224.2774
   3094724.67246   2425447.45743  23786056.0554                   23786056.5744
 -13941199.43047 -10849025.41845  21604698.6954                   21604696.7664
  14859660.90247  11576233.87044  23042715.6724                   23042715.6374
  10762847.55547   8388271.43345  23099519.6804                   23099516.3834
  -9959441.49647  -7744242.61345  22308177.6254                   22308175.3914
 11  8 19 18 23 30.0000000  0  9G17G24G07G08G26G11G13G19G28
  -1677400.52047  -1290900.10644  23453453.6564                   23453454.1994
  -6926743.68447  -5385073.25644  22647059.9304                   22647060.1024
  -8212028.88748  -6387359.00447  20263119.0554                   20263116.6484
 -15466009.44147 -12038385.16946  20698500.0474                   20698498.1374
   2984987.26246   2339937.82743  23765173.6954                   23765174.1374
 -13997969.00847 -10893261.43945  21593896.0004                   21593894.5394
  14935179.41847  11635079.30944  23057087.1884                   23057086.5354
  10827140.14147   8438369.51045  23111753.3284                   23111750.6994
 -10019866.07447  -7791326.66845  22296679.3984                   22296677.2814
 11  8 19 18 24  0.0000000  0  9G17G24G07G08G26G11G13G19G28
  -1805686.64847  -1390863.21144  23429041.6414                   23429042.0984
  -7017088.96947  -5455472.11944  22629868.0474                   22629868.4774
  -8246666.49247  -6414349.36347  20256527.9534                   20256525.4614
 -15553634.17248 -12106664.16246  20681825.5784                   20681823.7704
   2875696.60246   2254776.31643  23744375.7734                   23744376.4694
 -14054217.03947 -10937091.08345  21583192.4224                   21583190.4184
  15010813.75847  11694015.03944  23071479.2274                   23071479.5434
  10891641.23447   8488630.04445  23124027.7664                   23124024.4224
 -10080213.80947  -7838350.86845  22285195.5314                   22285193.2274
 11  8 19 18 24 30.0000000  0  9G17G24G07G08G26G11G13G19G28
  -1933753.57447  -1490655.47144  23404671.2814                   23404671.0474
  -7107123.59847  -5525628.89244  22612734.8914                   22612734.8164
  -8280874.97347  -6441005.32047  20250018.2424                   20250015.9844
 -15640979.39548 -12174725.36846  20665204.2894                   20665202.2664
   2766860.74646   2169969.26543  23723665.3524                   23723665.7624
 -14109936.91047 -10980509.15946  21572589.0634                   21572587.1724
  15086566.18047  11753042.71844  23085894.8754                   23085895.5274
  10956353.92247   8539055.45545  23136342.3364                   23136339.2194
 -10140480.32047  -7885311.76445  22273726.9844                   22273724.7934
 11  8 19 18 25  0.0000000  0  9G17G24G07G08G26G11G13G19G28
  -2061603.03147  -1590278.28344  23380342.0944                   23380342.4304
  -7196848.41447  -5595544.26044  22595660.2424                   22595660.7304
  -8314656.60948  -6467328.69247  20243590.0164                   20243587.1764
 -15728045.86748 -12242569.35746  20648635.9224                   20648634.1294
   2658478.39846   2085515.44943  23703040.8524                   23703041.2624
 -14165130.58648 -11023517.20345  21562085.9064                   21562084.0004
  15162429.64547  11812156.96744  23100332.1724                   23100331.9694
  11021271.46947   8589640.50945  23148696.1254                   23148692.9064
 -10200670.28947  -7932213.00245  22262273.3984                   22262271.6844
 11  8 19 18 25 30.0000000  0  9G17G24G07G08G26G11G13G19G28
  -2189229.94947  -1689727.72244  23356055.5234                   23356055.8094
  -7286257.70747  -5665213.81044  22578646.4774                   22578646.8444
  -8348006.62148  -6493315.73347  20237243.2584                   20237241.1994
 -15814828.55548 -12310192.21746  20632121.7034                   20632119.9384
   2550554.59846   2001419.07843  23682503.7194                   23682503.9734
 -14219793.64848 -11066111.80745  21551684.0554                   21551681.7704
  15238404.15647  11871357.74644  23114789.6884                   23114789.2854
  11086393.89847   8640385.19544  23161087.8754                   23161084.6054
 -10260781.50847  -7979052.91345  22250834.5784                   22250832.1334
 11  8 19 18 26  0.0000000  0  9G17G24G07G08G26G11G13G19G28
  -2316637.05947  -1789005.84444  23331810.8594                   23331810.3444
  -7375353.07847  -5734638.70944  22561692.1254                   22561692.3794
  -8380928.99648  -6518969.54747  20230978.4924                   20230976.1524
 -15901329.22748 -12377595.33546  20615661.3524                   20615659.4734
   2443087.46547   1917678.52643  23662053.6254                   23662053.4104
 -14273928.80948 -11108295.04245  21541382.8204                   21541380.8634
  15314482.36347  11930639.30344  23129266.7734                   23129266.7194
  11151713.91847   8691283.88244  23173518.3364                   23173515.0394
 -10320818.48847  -8025834.96345  22239410.0474                   22239407.6564
 11  8 19 18 26 30.0000000  0  9G17G24G07G08G26G11G13G19G28
  -2443818.89547  -1888108.44644  23307608.5394                   23307608.8324
  -7464127.38347  -5803813.44144  22544798.7424                   22544798.8794
  -8413417.86747  -6544285.54847  20224796.2114                   20224793.6254
 -15987541.07848 -12444773.37846  20599255.7034                   20599253.8284
   2336083.61347   1834298.87543  23641691.2194                   23641691.3364
 -14327530.26248 -11150062.36745  21531182.4384                   21531180.7424
  15390665.33647  11990002.51644  23143763.8134                   23143763.9384
  11217233.41846   8742337.98344  23185985.9304                   23185982.7154
 -10380778.78947  -8072557.25345  22228000.1254                   22227997.6994
 11  8 19 18 27  0.0000000  0  9G17G24G07G08G26G11G13G19G28
  -2570779.08247  -1987038.32544  23283448.8444                   23283449.0204
  -7552583.03147  -5872739.86644  22527966.4694                   22527966.2544
  -8445477.26248  -6569266.91247  20218695.5634                   20218693.0234
 -16073467.59448 -12511729.10546  20582904.4614                   20582902.6374
   2229540.14847   1751278.07143  23621417.0474                   23621416.4224
 -14380602.56248 -11191417.40145  21521082.9924                   21521081.0434
  15466944.59847  12049440.72744  23158279.1644                   23158279.2504
  11282943.66447   8793540.73244  23198490.2424                   23198486.9694
 -10440668.44947  -8119224.50945  22216603.3984                   22216601.2854
 11  8 19 18 27 30.0000000  0  9G17G24G07G08G26G11G13G19G28
  -2697508.72347  -2085788.58345  23259332.8674                   23259333.4344
  -7640710.37547  -5941410.45444  22511196.1644                   22511196.2664
  -8477098.68748  -6593906.99747  20212678.0394                   20212675.6764
 -16159099.25448 -12578455.07646  20566609.2344                   20566607.3164
   2123466.12947   1668623.05543  23601231.8204                   23601230.9924
 -14433137.12547 -11232353.38845  21511086.5864                   21511083.6604
  15543323.94547  12108956.95744  23172813.7974                   23172814.2814
  11348848.85946   8844895.34044  23211032.2974                   23211029.1134
 -10500481.56647  -8165832.13245  22205221.2034                   22205218.8164
 11  8 19 18 28  0.0000000  0  9G17G24G07G08G26G11G13G19G28
  -2824010.62547  -2184361.41545  23235260.5394                   23235259.9734
  -7728511.43747  -6009826.81844  22494488.1954                   22494488.6564
  -8508285.94148  -6618208.75947  20206743.4924                   20206740.7624
 -16244438.06648 -12644952.83946  20550369.8524                   20550367.6174
   2017859.04347   1586331.88543  23581135.4224                   23581134.9224
 -14485136.83648 -11272872.61645  21501191.4304                   21501188.6724
  15619795.48047  12168544.98844  23187365.9924                   23187366.4534
  11414941.87546   8896396.36244  23223609.2274                   23223605.3324
 -10560223.00847  -8212383.87345  22193853.2114                   22193850.8794
 11  8 19 18 28 30.0000000  0  9G17G24G07G08G26G11G13G19G28
  -2950278.33647  -2282751.73845  23211232.6334                   23211232.4104
  -7815978.09847  -6077982.61444  22477843.9304                   22477844.2734
  -8539033.02048  -6642167.54147  20200892.2034                   20200890.0664
 -16329476.90648 -12711216.87146  20534187.5314                   20534185.7154
   1912726.48847   1504410.45843  23561128.7194                   23561129.1994
 -14536595.93748 -11312970.58845  21491398.2504                   21491396.2974
  15696361.25847  12228206.49244  23201936.2424                   23201936.2034
  11481224.48846   8948045.09744  23236221.7274                   23236218.6134
 -10619889.69147  -8258877.37945  22182498.9224                   22182495.8714
 11  8 19 18 29  0.0000000  0  9G17G24G07G08G26G11G13G19G28
  -3076318.62547  -2380964.84045  23187247.3524                   23187247.3754
  -7903116.08647  -6145882.30544  22461261.3834                   22461262.2544
  -8569347.03548  -6665788.85647  20195123.8524                   20195121.6604
 -16414221.61748 -12777251.70546  20518061.0554                   20518059.3054
   1808062.16447   1422853.83743  23541211.8444                   23541211.8484
 -14587521.10948 -11352652.50145  21481707.7664                   21481705.7074
  15773010.04747  12287932.64743  23216521.8054                   23216522.5004
  11547685.48446   8999832.83344  23248869.5394                   23248866.0744
 -10679490.87147  -8305319.84145  22171157.0864                   22171154.9614
 11  8 19 18 29 30.0000000  0  9G17G24G07G08G26G11G13G19G28
  -3202117.82447  -2478990.08445  23163308.4924                   23163308.4804
  -7989910.82847  -6213514.55545  22444745.7734                   22444745.6764
  -8599214.88348  -6689062.52647  20189440.1414                   20189437.5394
 -16498657.91048 -12843046.23346  20501993.2114                   20501991.3324
   1703880.31647   1341673.25343  23521387.6484                   23521386.6564
 -14637899.59048 -11391908.42945  21472120.9774                   21472118.9734
  15849750.14547  12347729.93743  23231125.6644                   23231126.0664
  11614334.00446   9051766.68544  23261552.0704                   23261548.4104
 -10739014.87147  -8351702.15745  22159829.9304                   22159827.1454
 11  8 19 18 30  0.0000000  0  9G17G24G07G08G26G11G13G19G28
  -3327681.45347  -2576831.75745  23139414.3674                   23139414.5124
  -8076366.93447  -6280882.92245  22428293.2894                   22428293.7234
  -8628642.50848  -6711993.14747  20183840.4064                   20183837.9224
 -16582790.42648 -12908604.03046  20485983.5704                   20485981.7304
   1600175.72747   1260864.46244  23501653.0004                   23501652.5744
 -14687737.21548 -11430742.92045  21462637.3134                   21462635.2504
  15926571.12547  12407590.30244  23245743.9064                   23245744.0864
  11681159.78147   9103838.65244  23274269.1174                   23274265.8484
 -10798470.03547  -8398030.83045  22148515.7974                   22148513.4694
 11  8 19 18 30 30.0000000  0  9G17G24G07G08G26G11G13G19G28
  -3453006.93447  -2674487.86945  23115565.4064                   23115566.0744
  -8162480.62147  -6347984.44945  22411906.3204                   22411907.1804
  -8657627.88748  -6734579.16447  20178324.6414                   20178322.0704
 -16666615.73048 -12973922.43946  20470032.0554                   20470030.1764
   1496951.75047   1180430.22843  23482009.6954                   23482009.6524
 -14737031.88348 -11469154.32045  21453256.5474                   21453254.3324
  16003471.23447  12467512.28644  23260377.4064                   23260378.3754
  11748161.26247   9156047.55445  23287018.9304                   23287015.6254
 -10857856.27747  -8444305.81245  22137215.2034                   22137213.1604
 11  8 19 18 31  0.0000000  0  9G17G24G07G08G26G11G13G19G28
  -3578091.51247  -2771956.26745  23091762.9144                   23091763.0314
  -8248248.12147  -6414816.24044  22395584.9694                   22395585.5784
  -8686168.60948  -6756818.67647  20172893.7114                   20172890.8444
 -16750130.28148 -13038998.71746  20454139.9384                   20454137.7344
   1394211.98047   1100373.28044  23462458.8594                   23462459.0004
 -14785780.97748 -11507140.61045  21443979.9534                   21443978.3164
  16080448.37147  12527494.29943  23275026.2194                   23275026.5124
  11815337.11747   9208392.29845  23299802.0474                   23299798.6684
 -10917173.32447  -8490526.87545  22125927.6884                   22125924.8794
 11  8 19 18 31 30.0000000  0  9G17G24G07G08G26G11G13G19G28
  -3702932.36747  -2869234.75345  23068006.4614                   23068006.8404
  -8333665.49647  -6481375.18745  22379330.8054                   22379331.3834
  -8714262.57848  -6778710.08947  20167547.4694                   20167545.0124
 -16833330.73848 -13103830.23846  20438307.3204                   20438305.4924
   1291959.21546   1020695.84643  23443000.8284                   23443000.9264
 -14833982.10548 -11544699.92045  21434807.7034                   21434805.3284
  16157500.61347  12587534.84544  23289689.1884                   23289689.3554
  11882685.11346   9260871.22245  23312617.8134                   23312614.7114
 -10976421.02047  -8536693.89045  22114652.9774                   22114650.8014
 11  8 19 18 32  0.0000000  0  9G17G24G07G08G26G11G13G19G28
  -2252101.75046  -1738717.27245  23344089.6414                   23344090.0274
  -6843305.30947  -5320055.53245  22662936.8834                   22662937.5664
  -7166486.09848  -5572650.51347  20462079.0864                   20462076.9494
 -15340790.21548 -11940811.65546  20722328.5554                   20722325.9734
   2765620.99646   2169003.74543  23723429.3674                   23723429.2584
 -13306210.98848 -10354228.91445  21725532.9924                   21725530.8484
  17810044.10247  13875230.88044  23604157.2114                   23604157.9264
  13525622.35247  10541081.97545  23625259.1024                   23625255.3714
  -9460176.39547  -7355204.56145  22403184.4924                   22403182.3794
 11  8 19 18 32 30.0000000  0  9G17G24G07G08G26G11G13G19G28
  -2376446.83247  -1835609.44445  23320428.1254                   23320428.2934
  -6928010.69547  -5386059.69245  22646817.9064                   22646818.1914
  -7193679.96148  -5593840.55147  20456904.5004                   20456902.1884
 -15423351.90248 -12005145.43746  20706617.6724                   20706615.4694
   2664352.75046   2090093.42843  23704158.6484                   23704158.4384
 -13353309.68748 -10390929.19145  21716569.9384                   21716567.9184
  17887240.48047  13935383.71144  23618848.0084                   23618848.2934
  13593310.14847  10593825.68244  23638139.1724                   23638136.0274
  -9519284.57847  -7401262.87845  22391936.8444                   22391934.2814
 11  8 19 18 33  0.0000000  0  9G17G24G07G08G26G11G13G19G28
  -2500544.29747  -1932308.64144  23296812.7424                   23296812.7464
  -7012358.60547  -5451785.27945  22630767.0634                   22630767.3634
  -7220424.82848  -5614680.72947  20451815.3754                   20451812.7504
 -15505593.06648 -12069229.46446  20690967.3524                   20690965.3714
   2563577.01246   2011566.95843  23684981.2664                   23684981.4734
 -13399858.08248 -10427200.66745  21707712.3834                   21707710.6094
  17964502.00447  13995587.33144  23633550.2894                   23633551.0314
  13661160.97746  10646696.37844  23651050.5704                   23651047.7774
  -9578327.01247  -7447269.94745  22380701.6334                   22380698.8484
 11  8 19 18 33 30.0000000  0  9G17G24G07G08G26G11G13G19G28
  -2624396.06247  -2028816.43545  23273244.8834                   23273244.0984
  -7096350.03947  -5517233.11245  22614783.5634                   22614784.8094
  -7246723.09048  -5635172.89247  20446810.9774                   20446808.6174
 -15587515.01248 -12133064.74446  20675378.1024                   20675375.9884
   2463292.66446   1933423.37343  23665898.0084                   23665898.6524
 -13445858.81248 -10463045.38445  21698958.5704                   21698956.7624
  18041821.61347  14055836.20244  23648263.7194                   23648264.6524
  13729168.43046  10699689.11244  23663991.6884                   23663989.0474
  -9637307.94147  -7493229.09945  22369478.0634                   22369475.0824
 11  8 19 18 34  0.0000000  0  9G17G24G07G08G26G11G13G19G28
  -2747997.80947  -2125129.39345  23249723.4844                   23249723.4224
  -7179979.50047  -5582398.91745  22598869.7344                   22598869.9774
  -7272571.14148  -5655314.24547  20441891.9064                   20441889.5514
 -15669112.36348 -12196647.10646  20659850.7504                   20659848.8874
   2363504.48446   1855666.41943  23646908.8754                   23646907.8244
 -13491308.00848 -10498460.33945  21690310.0554                   21690307.9224
  18119199.37147  14116130.36744  23662988.0234                   23662989.1644
  13797332.40646  10752803.85444  23676963.0234                   23676959.3754
  -9696225.75447  -7539139.08445  22358266.2114                   22358263.6414
 11  8 19 18 34 30.0000000  0  9G17G24G07G08G26G11G13G19G28
  -2871350.97347  -2221248.64745  23226250.8834                   23226250.1524
  -7263247.29747  -5647282.87445  22583024.4694                   22583024.8364
  -7297970.76248  -5675106.17347  20437058.8674                   20437056.3674
 -15750385.56648 -12259976.87346  20644385.0394                   20644382.7194
   2264211.47346   1778295.30543  23628013.8594                   23628013.7544
 -13536207.30148 -10533446.78445  21681766.0864                   21681763.7464
  18196628.93046  14176464.86843  23677723.0864                   23677723.7584
  13865647.64846  10806036.40344  23689963.4304                   23689960.4774
  -9755083.68048  -7585002.38845  22347065.8444                   22347063.2194
 11  8 19 18 35  0.0000000  0  9G17G24G07G08G26G11G13G19G28
  -2994451.30547  -2317170.89445  23202825.4304                   23202824.9884
  -7346148.05547  -5711880.81945  22567248.5864                   22567249.8524
  -7322918.14848  -5694545.71347  20432311.3834                   20432309.2074
 -15831329.75448 -12323050.25746  20628981.7274                   20628979.9964
   2165418.47346   1701313.80444  23609214.2814                   23609213.8794
 -13580553.14848 -10568001.97845  21673327.5004                   21673325.0164
  18274110.22746  14236839.68843  23692466.9694                   23692468.1564
  13934114.05546  10859386.82444  23702991.7504                   23702988.4414
  -9813880.23848  -7630817.88345  22335877.1644                   22335874.7034
 11  8 19 18 35 30.0000000  0  9G17G24G07G08G26G11G13G19G28
  -3117287.35947  -2412887.21645  23179450.7274                   23179449.7384
  -7428669.27346  -5776183.02745  22551546.1724                   22551545.9654
  -7347402.67248  -5713624.58047  20427651.7814                   20427649.8594
 -15911932.64548 -12385857.70846  20613643.7504                   20613641.7934
   2067137.52346   1624731.30044  23590512.1564                   23590511.5634
 -13624334.52048 -10602117.31846  21664995.7424                   21664993.8444
  18351649.75446  14297259.94643  23707222.4534                   23707223.5164
  14002738.39846  10912860.28944  23716051.0634                   23716047.3484
  -9872606.43048  -7676578.55045  22324701.8524                   22324699.6764
 11  8 19 18 36  0.0000000  0  9G17G24G07G08G26G11G13G19G28
  -3239871.49647  -2508407.26545  23156123.3284                   23156123.1644
  -7510822.67647  -5840198.61845  22535912.5164                   22535912.6214
  -7371437.50448  -5732353.03847  20423078.4614                   20423076.0084
 -15992206.01248 -12448408.38346  20598368.0864                   20598366.1884
   1969356.33247   1548538.19444  23571904.9304                   23571905.0864
 -13667564.91048 -10635803.33245  21656769.4384                   21656767.6024
  18429230.23046  14357712.07343  23721985.9304                   23721986.6764
  14071503.87946  10966443.73144  23729137.2344                   23729132.8404
  -9931277.10247  -7722295.96145  22313537.2734                   22313535.0904
 11  8 19 18 36 30.0000000  0  9G17G24G07G08G26G11G13G19G28
  -3362198.39547  -2603726.85045  23132844.9534                   23132844.7114
  -7592601.71147  -5903922.48444  22520350.0314                   22520350.3984
  -7395017.52348  -5750727.08547  20418591.1334                   20418589.1214
 -16072143.33648 -12510697.21946  20583156.6254                   20583154.8364
   1872080.84847   1472739.18144  23553393.9614                   23553393.9734
 -13710239.29348 -10669056.08346  21648648.9844                   21648646.7384
  18506853.01647  14418197.16043  23736756.5474                   23736757.9884
  14140411.79746  11020138.17144  23742249.5474                   23742246.5124
  -9989889.16448  -7767967.68045  22302383.6724                   22302381.7194
 11  8 19 18 37  0.0000000  0  9G17G24G07G08G26G11G13G19G28
  -3484265.08647  -2698843.65445  23109617.0704                   23109616.7704
  -7674002.27047  -5967351.44345  22504860.0394                   22504860.7734
  -7418140.35248  -5768744.90047  20414191.2974                   20414188.8484
 -16151740.73048 -12572721.15746  20568009.7814                   20568007.7344
   1775314.62547   1397336.97544  23534980.2504                   23534979.7734
 -13752355.01248 -10701873.51145  21640634.4224                   21640632.2074
  18584516.32446  14478713.88243  23751536.3674                   23751537.2344
  14209460.88346  11073942.60244  23755389.1024                   23755385.7704
 -10048442.02747  -7813593.28345  22291241.6094                   22291238.8834
 11  8 19 18 37 30.0000000  0  9G17G24G07G08G26G11G13G19G28
  -3606074.54747  -2793760.06245  23086436.9144                   23086436.7274
  -7755026.21147  -6030486.94345  22489441.3594                   22489442.2304
  -7440809.39148  -5786409.10447  20409877.4614                   20409875.4614
 -16231000.48848 -12634482.01246  20552927.1254                   20552925.3324
   1679054.99647   1322329.48444  23516662.6644                   23516662.2344
 -13793915.96948 -10734258.66145  21632725.2344                   21632723.2894
  18662212.51646  14539256.17843  23766321.6484                   23766322.5744
  14278643.84047  11127851.31844  23768554.2034                   23768551.2624
 -10106941.18447  -7859177.02545  22280109.5864                   22280107.2624
 11  8 19 18 38  0.0000000  0  9G17G24G07G08G26G11G13G19G28
  -3727620.49247  -2888471.11745  23063307.5864                   23063307.3444
  -7835666.48847  -6093323.46845  22474095.9614                   22474096.1564
  -7463019.41848  -5803715.63947  20405651.0394                   20405648.5084
 -16309915.34848 -12695974.11346  20537909.7974                   20537908.0944
   1583308.55547   1247721.91444  23498442.5944                   23498442.1094
 -13834916.83247 -10766207.37945  21624923.5784                   21624921.2774
  18739943.30547  14599825.43443  23781113.2034                   23781113.9104
  14347962.68046  11181865.95544  23781745.0554                   23781742.5784
 -10165382.66447  -7904715.82645  22268988.3444                   22268986.0124
 11  8 19 18 38 30.0000000  0  9G17G24G07G08G26G11G13G19G28
  -3848904.85947  -2982978.33345  23040227.5004                   23040227.2974
  -7915923.88347  -6155861.65045  22458823.9144                   22458824.2234
  -7484772.97748  -5820666.47947  20401511.4924                   20401509.2544
 -16388486.17248 -12757198.12746  20522958.7034                   20522956.5084
   1488074.02747   1173513.20644  23480319.6174                   23480319.7974
 -13875359.81648 -10797721.38245  21617227.6644                   21617225.4924
  18817702.61747  14660416.90443  23795910.6024                   23795911.7194
  14417411.35946  11235981.70744  23794960.8524                   23794957.9924
 -10223770.28147  -7950212.64645  22257877.8594                   22257875.7074
 11  8 19 18 39  0.0000000  0  9G17G24G07G08G26G11G13G19G28
  -3969922.31247  -3077277.54745  23017198.4304                   23017198.9884
  -7995792.18047  -6218096.63345  22443625.8134                   22443625.8524
  -7506065.09448  -5837257.75547  20397459.7814                   20397457.6254
 -16466707.37148 -12818149.72846  20508073.4774                   20508071.4104
   1393357.02747   1099707.72844  23462295.8364                   23462295.2934
 -13915240.32848 -10828797.09045  21609637.9224                   21609636.1804
  18895490.60547  14721030.72744  23810713.5944                   23810714.3594
  14486990.88346  11290199.48844  23808201.3204                   23808198.8204
 -10282101.37948  -7995665.41045  22246777.6484                   22246774.8554
 11  8 19 18 39 30.0000000  0  9G17G24G07G08G26G11G13G19G28
  -4090669.37947  -3171366.09745  22994221.5164                   22994221.4024
  -8075266.62947  -6280024.73645  22428502.1174                   22428501.9694
  -7526893.48848  -5853487.69947  20393495.9774                   20393494.0314
 -16544574.44948 -12878825.37146  20493255.8204                   20493253.9924
   1299161.27346   1026308.46743  23444370.9384                   23444370.7624
 -13954555.93448 -10859432.62445  21602156.5004                   21602154.4694
  18973306.37947  14781666.18043  23825521.1094                   23825522.8054
  14556700.46946  11344518.56544  23821466.6414                   23821463.9614
 -10340374.85548  -8041073.32345  22235688.6644                   22235686.3164
 11  8 19 18 40  0.0000000  0  9G17G24G07G08G26G11G13G19G28
  -4211147.18047  -3265244.81145  22971295.3754                   22971294.9494
  -8154347.13347  -6341645.86245  22413453.3364                   22413453.6454
  -7547259.53548  -5869357.36546  20389621.1804                   20389618.1804
 -16622086.98048 -12939224.73446  20478505.6644                   20478503.7854
   1205485.90646    953314.73643  23426544.9844                   23426544.7934
 -13993308.12148 -10889629.12545  21594782.4844                   21594780.1724
  19051144.44547  14842319.02643  23840332.8914                   23840334.8794
  14626534.89546  11398934.90944  23834755.5634                   23834752.8984
 -10398593.86748  -8086438.77745  22224609.7734                   22224607.6764
 11  8 19 18 40 30.0000000  0  9G17G24G07G08G26G11G13G19G28
  -4331351.89847  -3358910.72945  22948421.1174                   22948421.3324
  -8233028.96147  -6402956.34045  22398480.7504                   22398481.1684
  -7567159.78148  -5884864.07147  20385834.1954                   20385831.6174
 -16699240.24648 -12999344.17046  20463823.8284                   20463821.9494
   1112335.80146    880730.26743  23408818.9844                   23408818.7774
 -14031493.56648 -10919384.02345  21587516.1334                   21587513.7384
  19129004.31646  14902988.84843  23855149.5944                   23855151.0864
  14696494.23446  11453448.58444  23848068.8674                   23848066.2424
 -10456756.77348  -8131760.50546  22213541.4144                   22213539.3754
 11  8 19 18 41  0.0000000  0  9G17G24G07G08G26G11G13G19G28
  -4451282.64547  -3452363.19345  22925598.5314                   22925598.9304
  -8311310.30546  -6463954.74245  22383584.1414                   22383584.3554
  -7586594.09448  -5900007.70647  20382135.7034                   20382133.2074
 -16776032.90248 -13059182.59946  20449210.7734                   20449208.8674
   1019711.71946    808555.69543  23391192.9384                   23391192.7424
 -14069112.50848 -10948697.47145  21580357.1804                   21580355.3484
  19206882.05146  14963672.54243  23869969.3444                   23869971.3134
  14766574.74246  11508056.69644  23861404.0394                   23861401.4924
 -10514865.19548  -8177039.78846  22202484.2894                   22202481.7624
 11  8 19 18 41 30.0000000  0  9G17G24G07G08G26G11G13G19G28
  -4570938.90247  -3545601.74945  22902829.1954                   22902828.6214
  -8389189.68447  -6524639.92145  22368764.1174                   22368763.8834
  -7605562.82448  -5914788.56347  20378526.2734                   20378523.7624
 -16852463.27748 -13118738.73946  20434666.7664                   20434664.2624
    927614.64846    736791.76244  23373667.7114                   23373667.4024
 -14106165.21948 -10977569.70745  21573306.5234                   21573304.0474
  19284774.16446  15024367.52043  23884791.8054                   23884794.1024
  14836772.97746  11562756.57844  23874762.7274                   23874760.2814
 -10572920.75048  -8222277.87245  22191436.2194                   22191433.8674
 11  8 19 18 42  0.0000000  0  9G17G24G07G08G26G11G13G19G28
  -4690318.35947  -3638624.62145  22880111.3984                   22880111.2384
  -8466663.32446  -6585008.95745  22354021.5784                   22354021.6524
  -7624064.00448  -5929205.07746  20375005.3984                   20375003.2664
 -16928528.00848 -13178009.94846  20420191.9064                   20420190.0664
    836047.39547    665440.71944  23356243.3594                   23356242.7854
 -14142649.71948 -11005999.16245  21566363.6884                   21566361.4774
  19362678.46146  15085071.81643  23899616.9694                   23899618.3554
  14907087.47346  11617547.00744  23888143.2114                   23888140.8874
 -10630922.96948  -8267474.39645  22180398.8754                   22180397.2074
 11  8 19 18 42 30.0000000  0  9G17G24G07G08G26G11G13G19G28
  -4809420.51247  -3731431.41745  22857447.4224                   22857446.6604
  -8543730.23847  -6645061.05445  22339356.0784                   22339356.7154
  -7642098.02748  -5943257.57647  20371573.8754                   20371571.2624
 -17004225.96548 -13236995.36346  20405787.0864                   20405785.3094
    745010.54346    594502.92944  23338918.9144                   23338919.3524
 -14178566.64548 -11033986.36145  21559529.1094                   21559526.5594
  19440590.78147  15145782.50143  23914443.1094                   23914444.7344
  14977513.84047  11672424.63444  23901545.3984                   23901542.1954
 -10688873.93448  -8312630.97545  22169371.2974                   22169368.9384
 11  8 19 18 43  0.0000000  0  9G17G24G07G08G26G11G13G19G28
  -4928239.46147  -3824017.54545  22834837.1484                   22834835.6294
  -8620383.41447  -6704790.74945  22324769.4304                   22324769.2424
  -7659659.74248  -5956942.04647  20368232.0314                   20368229.6334
 -17079550.52048 -13295689.82846  20391453.5164                   20391451.4264
    654510.33646    523983.28144  23321697.0314                   23321697.8594
 -14213911.14148 -11061527.52145  21552803.2114                   21552801.0944
  19518512.50847  15206500.55543  23929271.9774                   23929273.4654
  15048054.48046  11727391.27344  23914968.7194                   23914966.0744
 -10746769.87947  -8357744.68646  22158353.8834                   22158351.8834
 11  8 19 18 43 30.0000000  0  9G17G24G07G08G26G11G13G19G28
  -5046781.18747  -3916387.66445  22812279.0234                   22812278.7114
  -8696627.84447  -6764201.96445  22310260.7034                   22310260.5274
  -7676755.92648  -5970263.76647  20364978.5784                   20364976.1054
 -17154506.37548 -13354096.99046  20377189.6644                   20377187.7304
    564540.80546    453877.19644  23304576.9304                   23304577.7074
 -14248689.88347 -11088627.82145  21546185.0704                   21546182.5744
  19596433.57047  15267218.03743  23944099.3834                   23944101.1764
  15118699.23447  11782439.07044  23928412.1254                   23928409.3284
 -10804619.20748  -8402822.07346  22147345.6024                   22147342.7274
 11  8 19 18 44  0.0000000  0  9G17G24G07G08G26G11G13G19G28
  -5165041.70747  -4008538.64345  22789774.7894                   22789774.0274
  -8772458.13747  -6823290.47145  22295830.8524                   22295830.6134
  -7693382.95348  -5983219.91747  20361814.6564                   20361812.3954
 -17229088.21948 -13412212.71746  20362997.2424                   20362995.3094
    475106.98846    384188.56844  23287558.7274                   23287558.4064
 -14282899.38747 -11115284.54946  21539674.9694                   21539672.6994
  19674353.68447  15327934.71843  23958927.5234                   23958929.3364
  15189448.37547  11837568.23844  23941875.5234                   23941872.2274
 -10862419.57448  -8447861.32046  22136346.8984                   22136344.5824
 11  8 19 18 44 30.0000000  0  9G17G24G07G08G26G11G13G19G28
  -5283016.41447  -4100466.91845  22767325.0864                   22767325.1254
  -8847869.00047  -6882052.16645  22281480.5944                   22281480.3134
  -7709536.93748  -5995807.46247  20358740.4534                   20358738.5204
 -17303290.93048 -13470033.01046  20348877.0084                   20348875.0514
    386213.35546    314920.84644  23270642.2894                   23270642.5434
 -14316536.09448 -11141494.96145  21533274.0004                   21533271.8754
  19752272.92246  15388650.87843  23973755.3674                   23973756.5004
  15260302.53547  11892779.19944  23955358.1724                   23955354.8444
 -10920168.71148  -8492860.63146  22125357.1174                   22125354.9184
 11  8 19 18 45  0.0000000  0  9G17G24G07G08G26G11G13G19G28
  -5400709.05147  -4192175.37645  22744928.5084                   22744927.7344
  -8922863.25447  -6940489.19845  22267209.4614                   22267209.4064
  -7725222.44148  -6008029.95647  20355755.6484                   20355753.5944
 -17377117.48848 -13527560.20146  20334828.3204                   20334826.2734
    297856.15247    246071.14544  23253828.4454                   23253828.1174
 -14349604.75848 -11167262.73345  21526981.4694                   21526978.8014
  19830182.92246  15449359.72843  23988581.0474                   23988582.4494
  15331253.51247  11948065.58444  23968859.8754                   23968857.0124
 -10977872.41048  -8537824.54945  22114376.8594                   22114374.2274
 11  8 19 18 45 30.0000000  0  9G17G24G07G08G26G11G13G19G28
  -5518115.54347  -4283660.88945  22722586.2424                   22722586.3594
  -8997435.50047  -6998597.39445  22253018.6564                   22253019.1764
  -7740436.28148  -6019884.92747  20352860.8134                   20352858.1214
 -17450562.78948 -13584790.30646  20320852.0234                   20320849.9304
    210040.49647    177643.37544  23237117.8914                   23237117.2274
 -14382101.80947 -11192585.10045  21520797.7424                   21520795.3404
  19908083.85546  15510061.46143  24003404.8754                   24003407.6374
  15402301.55947  12003427.63844  23982379.6174                   23982377.8874
 -11035528.54348  -8582751.39145  22103405.3674                   22103402.7464
 11  8 19 18 46  0.0000000  0  9G17G24G07G08G26G11G13G19G28
  -5635236.07447  -4374923.54445  22700299.5634                   22700299.1254
  -9071585.14547  -7056376.29045  22238908.4694                   22238908.4384
  -7755179.16048  -6031372.90447  20350055.3984                   20350052.8914
 -17523625.53948 -13641722.31846  20306948.5554                   20306946.3204
    122765.84447    109637.20044  23220509.1954                   23220509.9414
 -14414028.62548 -11217463.12945  21514721.8754                   21514719.8754
  19985971.28546  15570752.78143  24018227.1254                   24018228.5004
  15473442.69146  12058862.19144  23995917.2424                   23995915.0594
 -11093139.51247  -8627643.03145  22092442.0554                   22092439.7034
 11  8 19 18 46 30.0000000  0  9G17G24G07G08G26G11G13G19G28
  -5752067.21147  -4465960.72945  22678067.1564                   22678066.6024
  -9145308.10947  -7113822.73845  22224879.5474                   22224879.8204
  -7769448.66847  -6042492.02847  20347339.8204                   20347337.5394
 -17596301.48047 -13698352.90946  20293118.9454                   20293117.0394
     36035.87146     42055.44344  23204006.4064                   23204005.4344
 -14445383.19548 -11241895.25945  21508755.3834                   21508752.8054
  20063843.89546  15631432.45943  24033046.3674                   24033047.8714
  15544676.00446  12114368.62944  24009472.8524                   24009470.6564
 -11150704.44947  -8672498.82245  22081487.7894                   22081485.2504
 11  8 19 18 47  0.0000000  0  9G17G24G07G08G26G11G13G19G28
  -5868608.75847  -4556772.25145  22655889.8054                   22655889.5354
  -9218602.45746  -7170935.15645  22210932.1254                   22210932.2814
  -7783244.80147  -6053242.28647  20344714.3284                   20344712.2384
 -17668589.12147 -13754680.94546  20279362.9384                   20279360.9024
    -50148.55946    -25101.22444  23187605.1804                   23187604.0164
 -14476165.24648 -11265881.27845  21502897.8204                   21502895.4414
  20141698.80946  15692098.43343  24047861.3524                   24047863.5234
  15615998.44146  12169944.44144  24023045.5554                   24023042.6724
 -11208224.64147  -8717319.72945  22070542.1094                   22070539.7344
 11  8 19 18 47 30.0000000  0  9G17G24G07G08G26G11G13G19G28
  -5984860.44547  -4647357.90945  22633767.9304                   22633767.5824
  -9291467.52747  -7227713.10745  22197066.2194                   22197066.4384
  -7796568.30947  -6063624.26746  20342179.4304                   20342177.0594
 -17740487.93747 -13810706.00446  20265681.1024                   20265678.9884
   -135787.31246    -91832.71044  23171309.3444                   23171308.5234
 -14506376.04348 -11289422.15545  21497149.0234                   21497146.3484
  20219530.69146  15752746.34843  24062672.2894                   24062674.6454
  15687405.83646  12225586.53044  24036633.5314                   24036631.3324
 -11265701.93447  -8762107.23245  22059604.3594                   22059601.9344
 11  8 19 18 48  0.0000000  0  9G17G24G07G08G26G11G13G19G28
  -6100816.85547  -4737713.50845  22611702.3834                   22611701.8164
  -9363896.64847  -7284151.34945  22183283.5234                   22183283.5314
  -7809414.54747  -6073634.36746  20339734.6484                   20339732.5124
 -17811991.19548 -13866422.81946  20252074.3134                   20252072.2664
   -220874.63747   -158134.52144  23155117.2734                   23155116.0594
 -14536010.94147 -11312514.28545  21491509.6804                   21491507.2274
  20297341.23846  15813377.69543  24077479.2584                   24077481.8284
  15758900.08646  12281296.29144  24050238.5164                   24050236.0164
 -11323132.78547  -8806858.55345  22048675.5864                   22048672.4654
 11  8 19 18 48 30.0000000  0  9G17G24G07G08G26G11G13G19G28
  -6216479.47747  -4827840.16945  22589692.3914                   22589691.7704
  -9435890.33247  -7340250.28245  22169583.3754                   22169583.6484
  -7821785.53147  -6083274.12247  20337380.6884                   20337378.2504
 -17883098.96147 -13921831.46746  20238543.1644                   20238541.3444
   -305411.65647   -224007.51744  23139030.4924                   23139029.4064
 -14565072.27747 -11335159.48845  21485979.6254                   21485976.8914
  20375124.97746  15873988.15443  24092281.0634                   24092283.8674
  15830475.62546  12337069.28644  24063859.4534                   24063857.2774
 -11380520.53947  -8851576.26945  22037755.4614                   22037752.6374
 11  8 19 18 49  0.0000000  0  9G17G24G07G08G26G11G13G19G28
  -6331844.45347  -4917734.89145  22567739.0554                   22567739.0394
  -9507444.02347  -7396006.37345  22155967.3054                   22155967.1684
  -7833678.77747  -6092541.60747  20335117.3984                   20335115.2664
 -17953806.91848 -13976928.57846  20225087.9144                   20225086.0664
   -389394.54346   -289448.69544  23123049.0164                   23123048.6604
 -14593557.55947 -11357355.81345  21480558.5314                   21480556.3984
  20452881.17246  15934577.14343  24107078.2584                   24107080.4104
  15902132.57447  12392905.79144  24077495.0784                   24077492.7854
 -11437863.81647  -8896259.33645  22026842.8984                   22026840.7424
 11  8 19 18 49 30.0000000  0  9G17G24G07G08G26G11G13G19G28
  -6446915.38747  -5007400.51445  22545841.6414                   22545841.0554
  -9578560.51647  -7451421.78645  22142433.8134                   22142434.0904
  -7845098.18447  -6101439.86747  20332944.2034                   20332942.0164
 -18024117.43748 -14031715.97946  20211708.2974                   20211706.3054
   -472826.70747   -354460.74444  23107172.1024                   23107172.0434
 -14621471.21148 -11379106.69845  21475246.6954                   21475244.7734
  20530602.23846  15995138.69743  24121868.7504                   24121870.6374
  15973863.53946  12448800.01843  24091144.7974                   24091142.5274
 -11495168.02048  -8940911.94945  22015938.5004                   22015935.8914
 11  8 19 18 50  0.0000000  0  9G17G24G07G08G26G11G13G19G28
  -6561692.15647  -5096836.90745  22524000.2894                   22523999.7154
  -9649238.50847  -7506495.53645  22128984.6414                   22128984.3674
  -7856044.31648  -6109969.34947  20330861.3524                   20330859.5004
 -18094029.35248 -14086192.80746  20198404.2274                   20198402.4844
   -555708.03147   -419043.57744  23091400.1804                   23091400.0824
 -14648814.38748 -11400413.07045  21470043.8524                   21470041.2114
  20608283.88746  16055669.62643  24136650.6954                   24136653.1724
  16045664.60246  12504748.82344  24104808.3674                   24104805.5984
 -11552434.76648  -8985535.39345  22005040.8134                   22005038.7974
 11  8 19 18 50 30.0000000  0  9G17G24G07G08G26G11G13G19G28
  -6676167.36747  -5186038.31145  22502216.4384                   22502216.1564
  -9719469.84847  -7561221.19245  22115619.9534                   22115619.9304
  -7866510.88347  -6118125.11946  20328869.7894                   20328867.3244
 -18163534.49647 -14140352.67246  20185178.1884                   20185176.2504
   -638030.90247   -483191.22944  23075734.6644                   23075734.5124
 -14675580.47747 -11421269.75845  21464950.3284                   21464948.1094
  20685929.65246  16116172.51743  24151426.5314                   24151428.9184
  16117539.55546  12560755.18544  24118485.3754                   24118483.2704
 -11609658.80947  -9030125.53045  21994151.1804                   21994148.9574
 11  8 19 18 51  0.0000000  0  9G17G24G07G08G26G11G13G19G28
  -6790342.06647  -5275005.56345  22480489.3674                   22480489.2504
  -9789254.44946  -7615598.76545  22102340.0004                   22102340.5864
  -7876499.77347  -6125908.69347  20326968.7734                   20326966.7734
 -18232632.88747 -14194195.57446  20172029.0314                   20172027.0634
   -719796.07447   -546904.33844  23060175.8754                   23060175.0234
 -14701771.85247 -11441678.62545  21459966.2194                   21459963.7154
  20763534.32446  16176643.39743  24166194.3594                   24166196.8954
  16189483.66846  12616815.39644  24132176.0864                   24132174.1454
 -11666842.95347  -9074684.59045  21983269.7734                   21983267.4024
 11  8 19 18 51 30.0000000  0  9G17G24G07G08G26G11G13G19G28
  -6904215.35547  -5363737.94945  22458819.7584                   22458819.0394
  -9858590.43447  -7669626.75545  22089145.4614                   22089146.0434
  -7886010.54348  -6133319.69947  20325158.8284                   20325156.8364
 -18301322.03948 -14247719.59346  20158957.6564                   20158955.9414
   -801002.46547   -610182.05344  23044722.6724                   23044721.7384
 -14727388.15647 -11461639.37845  21455091.5004                   21455089.5274
  20841094.68046  16237079.75643  24180954.7894                   24180956.5274
  16261494.19147  12672927.42844  24145879.7974                   24145876.9104
 -11723988.04347  -9119213.22545  21972395.4304                   21972392.9454
 11  8 19 18 52  0.0000000  0  9G17G24G07G08G26G11G13G19G28
  -7017784.34047  -5452233.20145  22437208.5314                   22437208.0984
  -9927474.28947  -7723302.46345  22076037.4534                   22076037.4224
  -7895041.32047  -6140356.69746  20323440.5864                   20323438.2814
 -18369598.44147 -14300921.99646  20145965.4064                   20145963.2894
   -881647.32847   -673022.16144  23029375.9694                   23029376.1414
 -14752427.68448 -11481150.69745  21450326.7664                   21450324.3834
  20918609.53146  16297480.63543  24195704.8134                   24195706.6414
  16333569.89847  12729090.23844  24159595.6024                   24159592.7894
 -11781093.24248  -9163710.76245  21961528.4844                   21961526.2034
 11  8 19 18 52 30.0000000  0  9G17G24G07G08G26G11G13G19G28
  -7131046.94947  -5540489.72445  22415655.3674                   22415654.9064
  -9995902.74647  -7776623.29345  22063015.9844                   22063016.4804
  -7903590.83648  -6147018.67846  20321813.7034                   20321811.3404
 -18437459.07447 -14353800.40546  20133051.8834                   20133050.0234
   -961728.28547   -735422.91244  23014137.4304                   23014136.9344
 -14776889.93047 -11500212.16945  21445671.7894                   21445669.3364
  20996076.87546  16357844.59243  24210446.6094                   24210448.9924
  16405709.72347  12785303.02843  24173323.0234                   24173320.2464
 -11838158.20748  -9208176.96045  21950669.7274                   21950666.8524
 11  8 19 18 53  0.0000000  0  9G17G24G07G08G26G11G13G19G28
  -7243997.78947  -5628503.31745  22394161.7664                   22394161.0314
 -10063869.36347  -7829584.25345  22050083.1564                   22050082.9184
  -7911654.35248  -6153301.96146  20320279.2584                   20320277.0314
 -18504897.56248 -14406349.88646  20120218.6724                   20120216.7034
  -1041239.77047   -797379.90144  22999006.1024                   22999006.1054
 -14800770.42248 -11518820.34945  21441127.6644                   21441125.0664
  21073497.96146  16418172.41442  24225179.1954                   24225181.5594
  16477914.97746  12841566.80943  24187062.6094                   24187060.4024
 -11895179.41048  -9252609.05146  21939818.6804                   21939816.1374
 11  8 19 18 53 30.0000000  0  9G17G24G07G08G26G11G13G19G28
  -7356636.73047  -5716273.86045  22372726.9224                   22372726.4264
 -10131373.28947  -7882184.65945  22037237.0314                   22037237.2774
  -7919232.79748  -6159207.27046  20318837.2504                   20318834.8244
 -18571912.58248 -14458569.37546  20107466.0864                   20107464.4494
  -1120181.78947   -858893.15544  22983984.1334                   22983984.6214
 -14824070.07048 -11536975.91445  21436693.7814                   21436691.0234
  21150869.09446  16478461.34442  24239903.5084                   24239905.2504
  16550182.35946  12897878.97643  24200815.0164                   24200812.7544
 -11952158.67648  -9297008.48645  21928975.5554                   21928973.4344
 11  8 19 18 54  0.0000000  0  9G17G24G07G08G26G11G13G19G28
  -7468962.31647  -5803800.22345  22351352.3054                   22351351.7814
 -10198412.26247  -7934422.78745  22024479.8594                   22024480.1604
  -7926325.79748  -6164734.32847  20317487.1254                   20317485.1524
 -18638501.55548 -14510456.88646  20094795.1254                   20094792.8364
  -1198552.64847   -919961.36344  22969071.3204                   22969070.8484
 -14846788.52748 -11554678.58345  21432370.3834                   21432368.0944
  21228187.16046  16538708.93442  24254615.2504                   24254618.1884
  16622509.27746  12954237.52143  24214578.7424                   24214576.4574
 -12009096.32848  -9341375.47045  21918140.7504                   21918138.1024
 11  8 19 18 54 30.0000000  0  9G17G24G07G08G26G11G13G19G28
  -7580981.81647  -5891088.09245  22330035.5944                   22330034.6844
 -10264992.65647  -7986303.58445  22011809.7194                   22011809.7464
  -7932941.04748  -6169889.08946  20316228.6174                   20316226.5704
 -18704670.56648 -14562017.15146  20082203.3834                   20082201.3444
  -1276359.75047   -980590.24244  22954265.2424                   22954264.1484
 -14868934.37148 -11571935.07845  21428156.1254                   21428154.0944
  21305441.70746  16598906.90642  24269317.4774                   24269320.0904
  16694885.38746  13010634.42343  24228351.5704                   24228348.9184
 -12066001.25048  -9385716.98045  21907312.2424                   21907309.9144
 11  8 19 18 55  0.0000000  0  9G17G24G07G08G26G11G13G19G28
  -7692689.59047  -5978133.04245  22308778.3914                   22308777.3404
 -10331107.78947  -8037821.83345  21999229.1254                   21999228.7194
  -7939073.57048  -6174667.69746  20315061.7584                   20315059.4654
 -18770413.23048 -14613245.20746  20069692.9694                   20069690.8364
  -1353597.40647  -1040775.34844  22939567.3364                   22939565.9924
 -14890503.11348 -11588741.88545  21424051.7114                   21424049.4414
  21382634.00846  16659056.49242  24284006.5634                   24284010.0984
  16767312.31646  13067070.90043  24242134.3834                   24242131.2584
 -12122869.63348  -9430029.97745  21896490.3674                   21896488.5864
 11  8 19 18 55 30.0000000  0  9G17G24G07G08G26G11G13G19G28
  -6228657.35247  -4837328.66445  22587374.2274                   22587373.7424
  -8821329.93747  -6861371.53245  22286529.8444                   22286529.8324
  -6369299.60548  -4951467.23846  20613779.7194                   20613777.3914
 -17260301.37148 -13436534.67546  20357057.6724                   20357055.7464
    145161.91447    127089.03844  23224771.0394                   23224769.8594
 -13336070.13748 -10377495.40445  21719850.7584                   21719848.1484
  23035182.41046  17946756.22443  24598476.6564                   24598479.3524
  18415209.00846  14351146.15943  24555718.4064                   24555716.3054
 -10604276.50448  -8246710.65746  22185469.3754                   22185466.8594
 11  8 19 18 56  0.0000000  0  9G17G24G07G08G26G11G13G19G28
  -6339731.68447  -4923880.01645  22566237.5084                   22566237.0634
  -8886502.23047  -6912155.08245  22274127.9774                   22274128.1914
  -6374460.01247  -4955488.35847  20612797.5944                   20612795.4224
 -17325178.05548 -13487087.94246  20344711.9224                   20344709.8914
     69073.32847     67799.23544  23210293.0314                   23210291.6914
 -13356477.96548 -10393397.60245  21715966.9304                   21715964.9534
  23112248.60246  18006807.43443  24613142.3054                   24613145.5594
  18487737.27746  14407661.64043  24569519.8364                   24569517.8484
 -10661066.87148  -8290962.87745  22174662.2034                   22174659.7934
 11  8 19 18 56 30.0000000  0  9G17G24G07G08G26G11G13G19G28
  -6450491.39547  -5010186.23945  22545160.6174                   22545159.9774
  -8951203.45747  -6962571.59445  22261815.5164                   22261815.5704
  -6379137.31247  -4959133.03446  20611907.7344                   20611905.6334
 -17389622.06648 -13537304.05346  20332448.5234                   20332446.6724
     -6442.52047      8955.72944  23195921.6484                   23195921.6684
 -13376309.18448 -10408850.47445  21712193.4144                   21712191.0784
  23189243.73046  18066803.29343  24627794.3204                   24627797.0164
  18560309.06346  14464210.96544  24583330.3134                   24583328.5434
 -10717822.72748  -8335188.20245  22163862.2194                   22163860.0784
 11  8 19 18 57  0.0000000  0  9G17G24G07G08G26G11G13G19G28
  -6560933.08647  -5096244.65245  22524144.0164                   22524143.1884
  -9015429.98847  -7012618.20745  22249593.5164                   22249593.2624
  -6383329.43048  -4962399.64446  20611109.9924                   20611107.8714
 -17453629.37148 -13587179.87646  20320268.3364                   20320266.5354
    -81382.59447    -49439.10244  23181660.8834                   23181661.5554
 -13395561.88748 -10423852.57645  21708529.6564                   21708527.2664
  23266166.92247  18126743.18643  24642432.4224                   24642435.7034
  18632923.91446  14520793.86543  24597148.2734                   24597146.5984
 -10774542.46548  -8379385.38345  22153069.0864                   22153066.0044
 11  8 19 18 57 30.0000000  0  9G17G24G07G08G26G11G13G19G28
  -6671053.35547  -5182052.60445  22503189.0164                   22503187.9804
  -9079177.65247  -7062291.69445  22237463.4224                   22237463.2974
  -6387034.18448  -4965286.47846  20610404.8134                   20610402.8054
 -17517195.28548 -13636711.74746  20308172.5004                   20308170.3404
   -155743.67247   -107382.78844  23167511.3834                   23167510.5824
 -13414233.90647 -10438402.20845  21704976.5004                   21704974.1684
  23343017.95347  18186626.70844  24657056.6954                   24657060.7584
  18705581.66446  14577410.27944  24610975.2734                   24610972.8244
 -10831224.48448  -8423553.19345  22142282.2734                   22142279.9264
 11  8 19 18 58  0.0000000  0  9G17G24G07G08G26G11G13G19G28
  -6780857.70747  -5267614.39745  22482294.0634                   22482293.0044
  -9142450.82447  -7111595.41745  22225422.4774                   22225422.2544
  -6390257.46148  -4967798.16146  20609791.8914                   20609789.4774
 -17580324.10548 -13685903.04746  20296159.2894                   20296157.4064
   -229530.95347   -164879.34944  23153469.5704                   23153469.5664
 -13432331.78548 -10452504.45145  21701532.7344                   21701530.4454
  23419787.62947  18246446.97843  24671665.9774                   24671669.3134
  18778273.62546  14634053.25044  24624807.5234                   24624805.2344
 -10887875.99248  -8467697.20945  22131501.8134                   22131499.5434
 11  8 19 18 58 30.0000000  0  9G17G24G07G08G26G11G13G19G28
  -6890341.68047  -5352926.55245  22461459.4534                   22461458.5784
  -9205244.32847  -7160525.37245  22213473.7504                   22213473.6604
  -6392995.76248  -4969931.91946  20609270.5474                   20609268.5514
 -17643010.68748 -13734749.73746  20284230.3754                   20284228.0124
   -302740.19547   -221925.52344  23139538.6334                   23139538.1134
 -13449852.85948 -10466157.25445  21698198.4454                   21698196.3484
  23496476.39546  18306204.13143  24686259.2664                   24686263.4804
  18851000.70346  14690723.66744  24638647.5634                   24638644.7734
 -10944494.11348  -8511815.20645  22120728.0704                   22120725.5514
 11  8 19 18 59  0.0000000  0  9G17G24G07G08G26G11G13G19G28
  -6999497.59448  -5437983.05945  22440688.2504                   22440687.2074
  -9267549.18447  -7209074.63645  22201617.2194                   22201616.6684
  -6395242.22748  -4971682.44746  20608843.4614                   20608840.9614
 -17705245.77048 -13783244.60546  20272387.5784                   20272385.3524
   -375363.48447   -278515.07544  23125718.4224                   23125718.0514
 -13466790.04748 -10479355.05745  21694975.5784                   21694973.3134
  23573088.79346  18365901.74543  24700838.6174                   24700842.8874
  18923767.56646  14747425.05144  24652494.4614                   24652492.1724
 -11001072.12948  -8555901.95645  22109961.7034                   22109959.3094
 11  8 19 18 59 30.0000000  0  9G17G24G07G08G26G11G13G19G28
  -7108324.46547  -5522783.17845  22419978.9924                   22419978.1724
  -9329364.44147  -7257242.31245  22189854.4064                   22189854.0394
  -6396997.09847  -4973049.91046  20608509.2664                   20608507.1024
 -17767027.40247 -13831386.13346  20260630.3754                   20260629.3094
   -447400.30947   -334647.67844  23112010.3674                   23112009.9654
 -13483143.98848 -10492098.38945  21691863.4924                   21691861.3404
  23649621.25046  18425537.02043  24715402.3834                   24715406.7734
  18996571.18846  14804155.01643  24666348.3984                   24666346.5984
 -11057611.19948  -8599958.36445  22099202.4144                   22099199.8324
 11  8 19 19  0  0.0000000  0  9G17G24G07G08G26G11G13G19G28
  -7216822.11348  -5607326.76145  22399332.6724                   22399331.6414
  -9390688.43447  -7305027.27245  22178184.0634                   22178184.5864
  -6398260.59448  -4974034.46247  20608268.5554                   20608266.6414
 -17828354.01248 -13879173.11546  20248960.9384                   20248958.8874
   -518850.29347   -390322.97844  23098413.9774                   23098414.3404
 -13498915.61348 -10504387.97145  21688862.0864                   21688859.7464
  23726070.39545  18485107.46542  24729949.3754                   24729954.3164
  19069408.48846  14860911.29343  24680208.8054                   24680206.1724
 -11114112.53548  -8643985.37845  22088450.4454                   22088448.3634
 11  8 19 19  0 30.0000000  0  9G17G24G07G08G26G11G13G19G28
  -7324997.86347  -5691619.50245  22378747.2504                   22378746.4104
  -9451527.93447  -7352434.60645  22166607.1174                   22166606.5944
  -6399041.37548  -4974642.89346  20608120.1884                   20608118.0824
 -17889232.44548 -13926610.84346  20237375.9924                   20237374.1094
   -589721.05147   -445546.93844  23084927.7194                   23084927.7194
 -13514113.63748 -10516230.58145  21685970.0234                   21685967.6644
  23802425.10245  18544604.32842  24744479.7504                   24744484.3754
  19142269.19146  14917685.76843  24694074.0314                   24694071.3794
 -11170585.14848  -8687990.00645  22077704.0864                   22077701.8794
 11  8 19 19  1  0.0000000  0  8G17G24G07G08G26G11G19G28
  -7432837.77347  -5775650.56645  22358225.9144                   22358225.2344
  -9511868.13747  -7399452.94245  22155124.5004                   22155124.2934
  -6399326.50048  -4974865.10946  20608066.0554                   20608064.0044
 -17949647.59448 -13973687.60246  20225879.2584                   20225877.2584
   -659998.66847   -500308.71044  23071554.3364                   23071554.1884
 -13528725.48448 -10527616.44345  21683189.4454                   21683187.3674
  19215163.80946  14974486.72443  24707945.9924                   24707942.9884
 -11227016.39148  -8731962.40245  22066965.4774                   22066963.3834
 11  8 19 19  1 30.0000000  0  8G17G24G07G08G26G11G19G28
  -7540337.53548  -5859416.57445  22337769.7194                   22337768.7814
  -9571704.07847  -7446078.33045  22143738.5084                   22143738.2854
  -6399112.50048  -4974698.37246  20608106.9384                   20608104.5434
 -18009594.47748 -14020399.46446  20214471.6094                   20214470.0514
   -729679.17247   -554605.23044  23058294.3914                   23058294.1724
 -13542748.57048 -10538543.53045  21680521.3134                   21680518.7624
  19288092.82046  15031314.43343  24721822.7274                   24721820.7664
 -11283403.66048  -8775900.52945  22056235.7584                   22056233.1334
 11  8 19 19  2  0.0000000  0  8G17G24G07G08G26G11G19G28
  -7647487.58248  -5942910.04845  22317379.8674                   22317378.5394
  -9631025.20747  -7492302.55345  22132449.3284                   22132449.5784
  -6398390.74648  -4974135.98746  20608244.6254                   20608242.1684
 -18069061.68448 -14066737.54146  20203155.3984                   20203154.1334
   -798753.05547   -608429.02244  23045150.6724                   23045149.4494
 -13556174.42248 -10549005.22345  21677965.9384                   21677963.6564
  19361062.98446  15088174.25042  24735708.6024                   24735707.3984
 -11339738.77748  -8819798.00045  22045515.6094                   22045513.2234
 11  8 19 19  2 30.0000000  0  8G17G24G07G08G26G11G19G28
  -7754287.07847  -6026130.38345  22297056.1484                   22297055.5204
  -9689829.99247  -7538124.43845  22121259.6094                   22121259.1334
  -6397161.29348  -4973177.99746  20608478.3594                   20608475.9414
 -18128047.28148 -14112700.34646  20191930.8834                   20191929.3324
   -867219.53947   -661779.52644  23032121.3284                   23032121.1884
 -13569003.41048 -10559001.84045  21675525.0634                   21675522.6564
  19434071.93846  15145064.23843  24749602.3364                   24749600.4964
 -11396022.35247  -8863655.32945  22034804.8284                   22034802.5354
 11  8 19 19  3  0.0000000  0  8G17G24G07G08G26G11G19G28
  -7860734.85948  -6109076.68745  22276799.6884                   22276798.7774
  -9748116.73847  -7583542.66345  22110168.1024                   22110167.8404
  -6395424.19148  -4971824.43846  20608808.8204                   20608806.7074
 -18186549.68448 -14158286.64346  20180798.3054                   20180796.2194
   -935077.69147   -714656.02444  23019208.5084                   23019208.0234
 -13581235.93448 -10568533.66045  21673197.1334                   21673195.0554
  19507117.42646  15201982.67843  24763502.5394                   24763500.2894
 -11452254.75047  -8907472.77446  22024104.5864                   22024102.3594
 11  8 19 19  3 30.0000000  0  8G17G24G07G08G26G11G19G28
  -7966836.27047  -6191753.05845  22256609.4694                   22256608.2774
  -9805889.75847  -7628560.57945  22099173.9224                   22099174.0084
  -6393185.59048  -4970080.10746  20609234.8204                   20609232.6644
 -18244572.82848 -14203499.49346  20169757.0944                   20169755.3164
  -1002332.91447   -767062.71544  23006410.6174                   23006410.3444
 -13592878.46948 -10577605.78045  21670981.7424                   21670979.3054
  19580190.86346  15258923.01543  24777408.2274                   24777405.8324
 -11508442.60247  -8951255.51646  22013411.8524                   22013409.5984
 11  8 19 19  4  0.0000000  0  8G17G24G07G08G26G11G19G28
  -8072597.87548  -6274164.65745  22236483.3914                   22236482.5234
  -9863154.77347  -7673182.63145  22088277.0474                   22088276.6604
  -6390453.12548  -4967950.92746  20609754.5634                   20609752.5004
 -18302122.23448 -14248343.18546  20158805.8834                   20158803.9614
  -1068992.08247   -819004.90144  22993725.3594                   22993725.7704
 -13603939.59047 -10586224.83445  21668877.2194                   21668874.5394
  19653282.56346  15315877.48543  24791317.4144                   24791314.6414
 -11564593.90247  -8995009.75846  22002727.0164                   22002724.4414
 11  8 19 19  4 30.0000000  0  8G17G24G07G08G26G11G19G28
  -8178015.39548  -6356308.13446  22216422.8914                   22216421.9924
  -9919906.97747  -7717405.11645  22077477.1334                   22077477.1484
  -6387223.26648  -4965434.17646  20610369.2274                   20610367.3524
 -18359192.23848 -14292813.32546  20147945.4304                   20147943.7384
  -1135051.13747   -870479.51644  22981155.2504                   22981154.5634
 -13614415.91048 -10594388.20245  21666883.1334                   21666880.7234
  19726393.51646  15372846.98243  24805229.7114                   24805227.5864
 -11620705.49248  -9038733.05846  21992049.3594                   21992047.0744
 11  8 19 19  5  0.0000000  0  8G17G24G07G08G26G11G19G28
  -8283093.63748  -6438187.23545  22196427.6564                   22196426.5664
  -9976150.57447  -7761231.26645  22066773.8914                   22066774.1914
  -6383501.96548  -4962534.48446  20611077.6414                   20611075.4064
 -18415786.76248 -14336912.95346  20137176.2424                   20137174.0084
  -1200515.03147   -921490.29344  22968697.3594                   22968696.6334
 -13624313.88348 -10602100.91745  21664999.3364                   21664997.1024
  19799515.67647  15429825.26643  24819144.6254                   24819142.5864
 -11676783.57448  -9082430.26046  21981377.6484                   21981375.5904
 11  8 19 19  5 30.0000000  0  7G17G24G07G08G26G11G28
  -8387833.93748  -6519803.01646  22176496.0234                   22176494.9534
 -10031885.98847  -7804661.45145  22056168.4384                   22056168.6524
  -6379291.74248  -4959253.82146  20611878.7424                   20611876.9024
 -18471906.25048 -14380642.43546  20126496.5864                   20126494.6844
  -1265385.57047   -972038.74844  22956353.0554                   22956352.5744
 -13633636.45748 -10609365.24645  21663225.4304                   21663223.0904
 -11732831.24648  -9126103.77046  21970712.1484                   21970709.8094
 11  8 19 19  6  0.0000000  0  7G17G24G07G08G26G11G28
  -8492237.84448  -6601156.67046  22156628.5944                   22156627.7854
 -10087114.23047  -7847696.40045  22045658.7114                   22045658.7734
  -6374594.82048  -4955593.92646  20612772.7114                   20612770.2274
 -18527550.95748 -14424001.95946  20115908.0704                   20115906.3834
  -1329664.49246  -1022126.22144  22944120.5394                   22944120.5824
 -13642386.67648 -10616183.61845  21661560.9614                   21661558.5664
 -11788851.14548  -9169755.63346  21960052.2344                   21960049.4494
 11  8 19 19  6 30.0000000  0  7G17G24G07G08G26G11G28
  -8596285.35948  -6682232.61046  22136829.1334                   22136827.6564
 -10141814.39847  -7890319.89045  22035249.7034                   22035249.2274
  -6369392.53948  -4951540.21746  20613762.4614                   20613760.1564
 -18582699.78948 -14466975.07946  20105413.4774                   20105411.3054
  -1393331.97747  -1071737.22444  22932005.8834                   22932005.2704
 -13650545.83648 -10622541.40145  21660007.7504                   21660005.6214
 -11844824.52047  -9213371.24646  21949400.8364                   21949398.5394
 11  8 19 19  7  0.0000000  0  7G17G24G07G08G26G11G28
  -8699981.32048  -6763034.60245  22117096.2114                   22117095.4414
 -10195990.53147  -7932535.01245  22024940.1954                   22024939.9654
  -6363690.43748  -4947097.04246  20614847.5314                   20614845.4184
 -18637356.63748 -14509564.83446  20095012.5704                   20095011.0904
  -1456393.00847  -1120875.69244  22920005.5164                   22920004.8754
 -13658120.07448 -10628443.41345  21658566.4614                   21658564.4534
 -11900757.46947  -9256955.36346  21938756.9064                   21938755.0514
 11  8 19 19  7 30.0000000  0  7G17G24G07G08G26G11G28
  -8803324.46547  -6843561.69546  22097430.7504                   22097429.5864
 -10249641.18447  -7974340.68245  22014730.5784                   22014730.1764
  -6357488.66048  -4942264.53246  20616027.7274                   20616025.5004
 -18691519.33247 -14551769.54846  20084705.8524                   20084703.8754
  -1518846.89846  -1169541.04444  22908120.7504                   22908120.2734
 -13665109.75848 -10633889.91845  21657236.1724                   21657234.1454
 -11956650.11348  -9300508.08146  21928120.9534                   21928118.8054
 11  8 19 19  8  0.0000000  0  7G17G24G07G08G26G11G28
  -8906324.21548  -6923821.20146  22077830.3444                   22077829.4614
 -10302774.77347  -8015743.43745  22004619.7664                   22004619.4064
  -6350797.44148  -4937050.61546  20617300.7194                   20617299.2664
 -18745196.03948 -14593595.56646  20074491.5394                   20074489.9264
  -1580703.36747  -1217740.89344  22896349.8754                   22896349.9534
 -13671526.44948 -10638889.95245  21656015.7664                   21656012.9574
 -12012512.68748  -9344037.35846  21917490.8914                   21917488.3554
 11  8 19 19  8 30.0000000  0  7G17G24G07G08G26G11G28
  -9008975.68448  -7003809.31346  22058296.3984                   22058295.3484
 -10355385.87147  -8056739.04345  21994607.9454                   21994607.9804
  -6343612.97748  -4931452.36446  20618667.9844                   20618666.1604
 -18798380.71148 -14635038.17646  20064370.7734                   20064368.7274
  -1641957.85947  -1265471.68844  22884693.7584                   22884693.0744
 -13677366.04348 -10643440.29245  21654904.2664                   21654901.9654
 -12068341.94148  -9387540.66746  21906866.9064                   21906864.4964
 11  8 19 19  9  0.0000000  0  7G17G24G07G08G26G11G28
  -9111281.84048  -7083528.35146  22038828.2344                   22038826.8014
 -10407476.93747  -8097329.45145  21984695.2034                   21984695.2934
  -6335939.63748  -4925473.16046  20620128.1724                   20620126.3874
 -18851075.75047 -14676099.25346  20054343.5314                   20054341.3914
  -1702613.73047  -1312736.01044  22873151.4694                   22873151.6804
 -13682633.50447 -10647544.80845  21653901.9224                   21653899.8164
 -12124142.10548  -9431021.31246  21896248.3204                   21896245.8404
 11  8 19 19  9 30.0000000  0  7G17G24G07G08G26G11G28
  -9213241.74248  -7162977.55846  22019425.6954                   22019424.4924
 -10459046.07047  -8137513.16645  21974882.3524                   21974882.1844
  -6327776.98848  -4919112.68746  20621681.5864                   20621679.6414
 -18903278.35248 -14716776.61046  20044409.5864                   20044407.6884
  -1762670.18747  -1359533.24344  22861722.8674                   22861722.5744
 -13687328.85947 -10651203.52345  21653008.5944                   21653005.8204
 -12179912.83248  -9474479.01846  21885635.6884                   21885633.0434
 11  8 19 19 10  0.0000000  0  7G17G24G07G08G26G11G28
  -9314853.80948  -7242155.74946  22000089.3754                   22000088.5354
 -10510091.08247  -8177288.46245  21965168.9614                   21965168.3094
  -6319124.49248  -4912370.51946  20623328.3674                   20623326.2734
 -18954986.15248 -14757068.42146  20034569.9224                   20034567.7424
  -1822125.99246  -1405862.45544  22850408.7114                   22850408.5274
 -13691452.37548 -10654416.67945  21652223.9774                   21652221.0514
 -12235653.96948  -9517913.66846  21875028.4304                   21875026.3204
 11  8 19 19 10 30.0000000  0  7G17G24G07G08G26G11G28
  -9416123.77048  -7321067.35946  21980818.9694                   21980817.8054
 -10560616.95747  -8216659.24745  21955553.8134                   21955553.7934
  -6309989.03548  -4905252.02146  20625066.6024                   20625064.7544
 -19006203.85248 -14796978.33146  20024823.6024                   20024821.9384
  -1880987.25047  -1451728.38544  22839208.3134                   22839207.4304
 -13695011.50847 -10657190.01245  21651546.7114                   21651543.9924
 -12291372.18048  -9561330.44946  21864425.9534                   21864423.1454
 11  8 19 19 11  0.0000000  0  7G17G24G07G08G26G11G28
  -9517047.93447  -7399709.51346  21961613.1724                   21961612.2424
 -10610619.91047  -8255622.55545  21946038.7894                   21946038.3714
  -6300368.52348  -4897755.54646  20626897.6724                   20626895.4884
 -19056926.80548 -14836502.70646  20015171.0944                   20015169.4694
  -1939251.10547  -1497128.77544  22828120.6174                   22828119.6024
 -13698004.53548 -10659522.24145  21650977.1414                   21650974.5554
 -12347065.06247  -9604727.49846  21853827.7274                   21853825.3404
 11  8 19 19 11 30.0000000  0  7G17G24G07G08G26G11G28
  -9617624.89548  -7478081.13946  21942474.0634                   21942472.7624
 -10660097.55947  -8294176.53645  21936623.4844                   21936623.5394
  -6290262.18748  -4889880.52346  20628820.7344                   20628818.7034
 -19107152.52348 -14875639.64246  20005613.6254                   20005611.9304
  -1996916.23847  -1542062.66544  22817147.3444                   22817146.7854
 -13700430.98847 -10661412.98745  21650515.3754                   21650512.9734
 -12402732.24247  -9648104.52046  21843234.3284                   21843231.8204
 11  8 19 19 12  0.0000000  0  7G17G24G07G08G26G11G28
  -9717858.37548  -7556185.10446  21923399.7894                   21923398.5904
 -10709053.14147  -8332323.69445  21927307.2584                   21927306.9694
  -6279674.96548  -4881630.75846  20630835.3204                   20630833.5044
 -19156883.81648 -14914391.31146  19996150.0634                   19996148.1134
  -2053986.79747  -1586533.22044  22806286.9534                   22806287.2664
 -13702296.26647 -10662866.46845  21650160.1254                   21650157.5984
 -12458378.49648  -9691465.24146  21832645.1724                   21832643.0664
 11  8 19 19 12 30.0000000  0  7G17G24G07G08G26G11G28
  -9817746.50848  -7634019.98246  21904392.2114                   21904391.2344
 -10757484.06647  -8370062.03145  21918091.6484                   21918091.3874
  -6268605.99248  -4873005.62546  20632941.9144                   20632939.7544
 -19206117.83648 -14952755.48146  19986781.2424                   19986779.4224
  -2110461.41047  -1630539.42244  22795540.6564                   22795540.4574
 -13703600.24648 -10663882.55145  21649912.1484                   21649909.8284
 -12514003.13748  -9734809.09346  21822059.9844                   21822057.9104
 11  8 19 19 13  0.0000000  0  7G17G24G07G08G26G11G28
  -9917286.71548  -7711583.73346  21885450.3524                   21885449.1564
 -10805387.25447  -8407389.15945  21908975.8834                   21908975.5204
  -6257054.00048  -4864004.10346  20635140.1024                   20635138.1724
 -19254850.74247 -14990729.16746  19977507.5084                   19977506.2274
  -2166338.12946  -1674079.69744  22784907.4844                   22784907.1254
 -13704342.08247 -10664460.60945  21649770.8914                   21649768.3984
 -12569604.35247  -9778134.71346  21811479.8754                   21811477.1214
 11  8 19 19 13 30.0000000  0  7G17G24G07G08G26G11G28
 -10016482.52048  -7788879.12846  21866574.0554                   21866572.4924
 -10852765.51647  -8444307.25445  21899959.9224                   21899959.6844
  -6245023.30148  -4854629.56446  20637429.4694                   20637427.6884
 -19303084.93448 -15028314.25946  19968328.9064                   19968326.8954
  -2221620.71547  -1717157.03144  22774387.8204                   22774387.3874
 -13704526.74247 -10664604.51545  21649735.9614                   21649733.7194
 -12625186.61347  -9821445.56646  21800902.6484                   21800900.6724
 11  8 19 19 14  0.0000000  0  7G17G24G07G08G26G11G28
 -10115332.28148  -7865904.87746  21847763.2194                   21847762.0514
 -10899616.96147  -8480814.84845  21891044.2344                   21891044.1134
  -6232513.61348  -4844881.79146  20639810.0084                   20639808.1524
 -19350817.85248 -15065508.74746  19959245.5084                   19959243.8054
  -2276308.30947  -1759770.74344  22763980.8284                   22763980.3364
 -13704154.67248 -10664314.59445  21649806.6564                   21649804.7274
 -12680749.51248  -9864741.32346  21790329.8204                   21790326.9844
 11  8 19 19 14 30.0000000  0  7G17G24G07G08G26G11G28
 -10213834.44148  -7942659.78446  21829019.0944                   21829018.2384
 -10945939.19547  -8516910.07145  21882229.7274                   21882229.1914
  -6219524.23048  -4834760.23346  20642281.9694                   20642279.8984
 -19398046.72348 -15102310.46646  19950258.1954                   19950256.3634
  -2330399.06247  -1801919.39544  22753688.1884                   22753686.9494
 -13703225.39848 -10663590.50145  21649983.4144                   21649980.8244
 -12736292.17648  -9908021.32246  21779760.0084                   21779757.6294
 11  8 19 19 15  0.0000000  0  7G17G24G07G08G26G11G28
 -10311989.26248  -8019144.02046  21810340.5084                   21810339.2234
 -10991731.91447  -8552592.67145  21873514.9064                   21873515.0084
  -6206056.67248  -4824266.05346  20644844.5394                   20644842.6914
 -19444770.76647 -15138718.81846  19941366.9614                   19941365.1454
  -2383894.41447  -1843604.07544  22743508.2114                   22743507.4224
 -13701740.98448 -10662433.81245  21650265.5784                   21650263.4614
 -12791815.66848  -9951286.37646  21769194.1174                   21769191.9654
 11  8 19 19 15 30.0000000  0  7G17G24G07G08G26G11G28
 -10409792.72748  -8095354.47546  21791729.2034                   21791728.2704
 -11036990.87147  -8587859.38445  21864902.3284                   21864902.6294
  -6192108.09848  -4813397.07446  20647498.8984                   20647497.0784
 -19490985.06648 -15174729.98346  19932572.7734                   19932571.0864
  -2436790.57447  -1884821.87044  22733442.3134                   22733441.9774
 -13699699.35548 -10660842.94745  21650654.4924                   21650651.7114
 -12847317.01248  -9994534.17146  21758632.6954                   21758630.4964
 11  8 19 19 16  0.0000000  0  7G17G24G07G08G26G11G28
 -10507246.15648  -8171292.19246  21773184.8834                   21773183.4844
 -11081717.00847  -8622710.89245  21856391.6884                   21856391.7274
  -6177681.27748  -4802155.43646  20650244.3754                   20650242.5704
 -19536690.18748 -15210344.36446  19923875.4614                   19923873.4454
  -2489090.01647  -1925574.67444  22723490.0004                   22723489.7074
 -13697103.59847 -10658820.28245  21651147.8984                   21651145.7894
 -12902798.50848 -10037766.50346  21748074.8134                   21748072.7504
 11  8 19 19 16 30.0000000  0  7G17G24G07G08G26G11G28
 -10604348.02048  -8246955.92646  21754706.5474                   21754705.5084
 -11125907.83247  -8657145.28345  21847982.3984                   21847982.3204
  -6162775.39148  -4790540.50646  20653080.6954                   20653078.7344
 -19581883.27348 -15245559.76546  19915275.1884                   19915273.8914
  -2540791.41447  -1965861.49744  22713651.3444                   22713651.3284
 -13693953.88347 -10656365.97145  21651747.4844                   21651745.4734
 -12958259.25047 -10080982.67546  21737521.4614                   21737518.8794
 11  8 19 19 17  0.0000000  0  7G17G24G07G08G26G11G28
 -10701092.07048  -8322340.87946  21736296.7034                   21736295.7114
 -11169557.03147  -8691157.63845  21839676.2734                   21839675.8794
  -6147385.70348  -4778548.58246  20656009.8054                   20656007.5984
 -19626557.21548 -15280370.64346  19906774.1724                   19906772.4264
  -2591889.03147  -2005677.81644  22703928.0394                   22703927.1844
 -13690245.34447 -10653476.19745  21652453.3364                   21652451.0784
 -13013694.08647 -10124178.65246  21726972.1644                   21726969.6294
 11  8 19 19 17 30.0000000  0  7G17G24G07G08G26G11G28
 -10797482.79748  -8397450.50346  21717954.2034                   21717953.3204
 -11212668.33647  -8724750.85545  21831472.6804                   21831472.2274
  -6131517.77748  -4766184.00246  20659029.1094                   20659027.3984
 -19670715.19948 -15314779.48046  19898371.3674                   19898369.5124
  -2642387.72347  -2045027.46744  22694318.0634                   22694318.3954
 -13685984.23447 -10650155.86945  21653264.3834                   21653261.8094
 -13069107.85548 -10167358.21146  21716427.3444                   21716424.7664
 11  8 19 19 18  0.0000000  0  7G17G24G07G08G26G11G28
 -10893513.15648  -8472279.32246  21699679.9924                   21699679.1644
 -11255234.42647  -8757919.19945  21823372.3524                   21823372.2234
  -6115165.67648  -4753442.16246  20662140.8674                   20662138.9614
 -19714349.19547 -15348780.00746  19890068.1174                   19890066.4384
  -2692281.56247  -2083905.78144  22684824.0864                   22684823.2274
 -13681165.17247 -10646400.76245  21654181.2974                   21654179.2344
 -13124494.74648 -10210516.82946  21705887.9844                   21705884.9534
 11  8 19 19 18 30.0000000  0  7G17G24G07G08G26G11G28
 -10989184.30148  -8546828.24346  21681474.6484                   21681473.4414
 -11297255.63347  -8790662.99445  21815376.2734                   21815375.5944
  -6098331.01648  -4740324.27846  20665344.6024                   20665342.5234
 -19757459.45348 -15382372.43246  19881864.5864                   19881862.5664
  -2741571.82047  -2122313.76244  22675442.5704                   22675443.5204
 -13675791.15247 -10642213.21845  21655203.9924                   21655201.8094
 -13179856.34848 -10253655.74746  21695352.2734                   21695350.2464
 11  8 19 19 19  0.0000000  0  7G17G24G07G08G26G11G28
  -9509078.76647  -7393499.21846  21963129.3524                   21963128.2774
  -9763316.04747  -7595385.38245  22107275.3364                   22107274.4534
  -4505602.50048  -3499237.18546  20968430.4384                   20968428.5044
 -18224629.39148 -14187959.41646  20173552.5314                   20173550.1844
  -1214843.33647   -932655.20344  22965970.6484                   22965970.1844
 -12094450.06247  -9409999.38945  21956123.2814                   21956120.8634
 -11659777.46548  -9069178.70146  21984614.0864                   21984611.6914
 11  8 19 19 19 30.0000000  0  7G17G24G07G08G26G11G28
  -9604038.35247  -7467493.67846  21945059.3054                   21945057.6764
  -9804253.59847  -7627284.74345  22099484.8364                   22099484.7544
  -4487815.14548  -3485376.94346  20971815.3204                   20971813.6254
 -18266696.06247 -14220738.65746  20165547.1954                   20165545.4924
  -1262936.08647   -970130.06144  22956819.0634                   22956819.0824
 -12087978.75447  -9404956.82045  21957354.3594                   21957352.2154
 -11715097.89148  -9112285.52246  21974087.2034                   21974084.6884
 11  8 19 19 20  0.0000000  0  7G17G24G07G08G26G11G28
  -9698639.05947  -7541208.47146  21927057.1884                   21927056.3244
  -9844645.39147  -7658758.84745  22091798.3594                   22091798.2234
  -4469549.65248  -3471144.12846  20975291.1884                   20975289.3284
 -18308236.34448 -14253107.72246  20157642.2734                   20157640.8554
  -1310427.45747  -1007136.32644  22947781.8594                   22947781.7384
 -12080957.93447  -9399486.05845  21958690.8524                   21958688.1564
 -11770395.44148  -9155374.52246  21963564.3674                   21963561.7074
 11  8 19 19 20 30.0000000  0  7G17G24G07G08G26G11G28
  -9792884.44547  -7614646.41246  21909122.3674                   21909121.6214
  -9884494.75847  -7689810.30445  22084215.4454                   22084214.7894
  -4450811.08648  -3456542.68346  20978857.2114                   20978854.9924
 -18349252.78148 -14285068.58946  20149837.2974                   20149835.4264
  -1357322.27347  -1043677.76844  22938858.2734                   22938857.3984
 -12073393.10247  -9393591.40845  21960130.1724                   21960128.2664
 -11825674.64148  -9198449.21446  21953044.8054                   21953042.4774
 11  8 19 19 21  0.0000000  0  7G17G24G07G08G26G11G28
  -9886773.60547  -7687806.76646  21891256.2424                   21891254.8484
  -9923800.58647  -7720438.20645  22076735.7344                   22076735.7234
  -4431599.61748  -3441572.75946  20982512.8594                   20982510.8284
 -18389743.65648 -14316619.93946  20142132.2274                   20142130.7544
  -1403619.76647  -1079753.72044  22930047.5784                   22930047.5004
 -12065285.39848  -9387273.72545  21961673.1094                   21961670.8014
 -11880935.16048  -9241509.34946  21942528.9224                   21942526.8054
 11  8 19 19 21 30.0000000  0  7G17G24G07G08G26G11G28
  -9980307.35548  -7760690.18246  21873457.3594                   21873456.1254
  -9962563.21547  -7750642.84145  22069359.6804                   22069358.6884
  -4411917.41848  -3426236.03746  20986258.5704                   20986256.5744
 -18429708.93448 -14347761.73346  20134527.3524                   20134525.2274
  -1449322.32447  -1115366.11744  22921351.2584                   22921351.4694
 -12056637.59848  -9380535.19645  21963318.4144                   21963316.0514
 -11936178.48048  -9284556.08546  21932016.6804                   21932014.2734
 11  8 19 19 22  0.0000000  0  7G17G24G07G08G26G11G28
 -10073478.62548  -7833291.13846  21855727.4924                   21855726.0084
 -10000774.64147  -7780417.95545  22062088.0474                   22062087.5354
  -4391758.03548  -3410527.47146  20990094.6254                   20990092.8054
 -18469139.94548 -14378487.20846  20127023.4774                   20127021.8634
  -1494422.59447  -1150509.18144  22912768.4454                   22912768.3834
 -12047443.55548  -9373371.01445  21965068.6024                   21965065.9884
 -11991397.70348  -9327584.03946  21921508.8134                   21921506.6054
 11  8 19 19 22 30.0000000  0  7G17G24G07G08G26G11G28
 -10166287.63347  -7905609.82846  21838066.4384                   21838065.3794
 -10038435.00047  -7809763.65745  22054921.1254                   22054920.7934
  -4371123.18048  -3394448.39846  20994021.3674                   20994019.4654
 -18508036.38348 -14408796.13846  20119621.7114                   20119620.1374
  -1538921.91447  -1185183.98644  22904300.8524                   22904300.7894
 -12037705.77748  -9365783.15645  21966920.9924                   21966919.4804
 -12046593.91848  -9370594.07346  21911005.4384                   21911002.5314
 11  8 19 19 23  0.0000000  0  7G17G24G07G08G26G11G28
 -10258742.64147  -7977652.65546  21820473.1724                   21820471.3834
 -10075552.32847  -7838686.25545  22047858.0084                   22047857.6454
  -4350022.65247  -3378006.45746  20998036.5944                   20998034.7194
 -18546405.28548 -14438694.00046  20112320.6564                   20112318.6134
  -1582829.16047  -1219397.45144  22895945.6024                   22895946.0124
 -12027434.43448  -9357779.51345  21968876.1884                   21968873.8204
 -12101775.87148  -9413592.98446  21900504.2584                   21900501.8954
 11  8 19 19 23 30.0000000  0  7G17G24G07G08G26G11G28
 -10350839.81647  -8049416.64946  21802947.3364                   21802946.2194
 -10112122.39147  -7867182.37045  22040899.3594                   22040899.2114
  -4328453.77047  -3361199.57346  21002141.2194                   21002139.4264
 -18584242.10948 -14468177.26046  20105120.4844                   20105118.6764
  -1626141.68047  -1253147.47144  22887703.3524                   22887703.7034
 -12016627.39148  -9349358.44545  21970932.5554                   21970929.8874
 -12156940.37148  -9456578.29946  21890007.0234                   21890004.3834
 11  8 19 19 24  0.0000000  0  7G17G24G07G08G26G11G28
 -10442574.66447  -8120898.33446  21785491.3134                   21785489.4734
 -10148140.25847  -7895248.23445  22034044.9304                   22034044.9654
  -4306413.15248  -3344025.11346  21006335.6094                   21006333.3364
 -18621541.63348 -14497241.84246  20098022.4304                   20098021.1954
  -1668855.52347  -1286431.00344  22879574.9384                   22879574.9694
 -12005282.09048  -9340517.96045  21973091.5634                   21973089.5234
 -12212083.13348  -9499546.67146  21879513.3284                   21879510.8484
 11  8 19 19 24 30.0000000  0  7G17G24G07G08G26G11G28
 -10533947.31247  -8192097.76546  21768102.9384                   21768101.8164
 -10183605.81247  -7922883.72245  22027296.4384                   22027295.9414
  -4283902.22748  -3326484.17346  21010619.3524                   21010617.0864
 -18658302.83248 -14525886.95346  20091027.0474                   20091025.3054
  -1710971.57847  -1319248.72444  22871560.9384                   22871560.9184
 -11993400.41048  -9331259.50145  21975352.0474                   21975350.4844
 -12267204.99248  -9542498.76746  21869024.3594                   21869021.9454
 11  8 19 19 25  0.0000000  0  7G17G24G07G08G26G11G28
 -10624956.19548  -8263013.74546  21750784.5704                   21750783.1884
 -10218517.19147  -7950087.38345  22020653.2894                   22020652.7384
  -4260920.65248  -3308576.49946  21014992.2584                   21014990.6334
 -18694523.23848 -14554110.66146  20084134.7814                   20084132.7034
  -1752488.93447  -1351599.93244  22863660.5704                   22863660.1604
 -11980983.03548  -9321583.64445  21977715.5944                   21977713.2114
 -12322304.91448  -9585433.77146  21858539.2504                   21858536.8634
 11  8 19 19 25 30.0000000  0  7G17G24G07G08G26G11G28
 -10715599.44148  -8333644.82346  21733535.6174                   21733534.2504
 -10252872.47747  -7976857.72045  22014115.2894                   22014114.6174
  -4237468.15648  -3290301.86046  21019455.2504                   21019453.7704
 -18730200.14847 -14581910.87846  20077345.5554                   20077344.0904
  -1793406.84847  -1383483.99244  22855874.1724                   22855874.5314
 -11968029.50047  -9311490.00245  21980179.8594                   21980177.8634
 -12377381.38748  -9628350.48046  21848058.5234                   21848056.1414
 11  8 19 19 26  0.0000000  0  7G17G24G07G08G26G11G28
 -10805877.84847  -8403991.60546  21716356.3524                   21716354.9454
 -10286671.78547  -8003194.80945  22007683.2974                   22007683.3524
  -4213546.28547  -3271661.48046  21024007.3914                   21024005.4574
 -18765333.10547 -14609287.23346  20070660.1884                   20070658.3204
  -1833726.89147  -1414902.24444  22848201.6254                   22848200.9614
 -11954542.18448  -9300980.39745  21982747.0234                   21982744.5514
 -12432435.51648  -9671249.80546  21837582.0474                   21837579.4414
 11  8 19 19 26 30.0000000  0  7G17G24G07G08G26G11G28
 -10895786.00847  -8474049.87846  21699247.2274                   21699246.2664
 -10319909.83247  -8029094.57445  22001358.0394                   22001358.1954
  -4189151.10247  -3252652.29446  21028649.7274                   21028647.8244
 -18799915.79347 -14636234.79646  20064079.2814                   20064077.5434
  -1873444.70347  -1445851.19144  22840643.3834                   22840643.1724
 -11940518.09447  -9290052.54245  21985415.7504                   21985413.3404
 -12487462.35948  -9714127.85346  21827110.5944                   21827107.8444
 11  8 19 19 27  0.0000000  0  7G17G24G07G08G26G11G28
 -10985332.71548  -8543826.51646  21682207.5084                   21682205.9224
 -10352594.87547  -8054563.42945  21995138.3134                   21995138.4344
  -4164292.51647  -3233282.01046  21033380.1334                   21033378.2624
 -18833956.13347 -14662759.74946  20057601.3594                   20057599.8404
  -1912569.46947  -1476338.04344  22833198.5084                   22833197.5314
 -11925967.49648  -9278714.42845  21988184.3134                   21988182.0514
 -12542471.01648  -9756991.72346  21816642.8914                   21816640.2034
 11  8 19 19 27 30.0000000  0  7G17G24G07G08G26G11G28
 -11074511.52748  -8613316.46646  21665236.7424                   21665235.8914
 -10384720.09847  -8079596.05445  21989025.6254                   21989024.8594
  -4138965.37547  -3213546.62446  21038199.8834                   21038197.9614
 -18867446.94148 -14688856.49646  20051228.4144                   20051226.5824
  -1951095.59447  -1506358.40744  22825867.1954                   22825866.9264
 -11910885.86747  -9266962.52645  21991054.3364                   21991052.1094
 -12597455.16848  -9799836.52946  21806179.8204                   21806177.1604
 11  8 19 19 28  0.0000000  0  7G17G24G07G08G26G11G28
 -11163324.98447  -8682521.72046  21648336.1094                   21648334.8164
 -10416287.76247  -8104194.22345  21983018.6174                   21983018.1524
  -4113173.56247  -3193449.16046  21043107.7344                   21043106.2544
 -18900389.95347 -14714526.39246  20044959.4224                   20044957.6954
  -1989026.92247  -1535915.29844  22818648.3834                   22818647.9574
 -11895277.96147  -9254800.55045  21994024.6724                   21994022.0944
 -12652417.75048  -9842664.51846  21795721.1484                   21795718.5434
 11  8 19 19 28 30.0000000  0  7G17G24G07G08G26G11G28
 -11251771.06248  -8751440.71646  21631505.7194                   21631504.5594
 -10447296.14547  -8128356.57645  21977117.5314                   21977116.9804
  -4086916.88347  -3172989.45346  21048104.4614                   21048102.5234
 -18932782.35547 -14739767.24946  20038795.5704                   20038794.1954
  -2026362.49246  -1565007.96344  22811543.7664                   22811544.2704
 -11879143.93048  -9242228.59745  21997094.8524                   21997092.3794
 -12707357.35948  -9885474.59646  21785266.1334                   21785263.7074
 11  8 19 19 29  0.0000000  0  7G17G24G07G08G26G11G28
 -11339851.23048  -8820074.59646  21614744.4924                   21614743.3524
 -10477746.04747  -8152083.77745  21971323.1024                   21971323.1724
  -4060197.33247  -3152169.06846  21053188.9534                   21053187.2424
 -18964624.51247 -14764579.31846  20032736.2034                   20032734.5204
  -2063104.12547  -1593637.83344  22804552.5004                   22804552.0274
 -11862486.47747  -9229248.76945  22000265.0164                   22000262.6334
 -12762275.48848  -9928267.93346  21774814.9384                   21774812.6484
 11  8 19 19 29 30.0000000  0  7G17G24G07G08G26G11G28
 -11427563.44148  -8888421.74746  21598053.2584                   21598052.2114
 -10507635.33647  -8175374.12845  21965635.6954                   21965634.9884
  -4033014.46147  -3130987.66946  21058362.1174                   21058360.1524
 -18995913.63347 -14788960.47146  20026781.9614                   20026780.5314
  -2099251.03146  -1621804.28044  22797673.7034                   22797673.3524
 -11845305.57848  -9215861.09145  22003534.0864                   22003532.1724
 -12817170.46948  -9971043.24046  21764369.2734                   21764366.6414
 11  8 19 19 30  0.0000000  0  7G17G24G07G08G26G11G28
 -11514908.27348  -8956482.63246  21581432.2664                   21581430.9804
 -10536964.50047  -8198227.99645  21960054.0234                   21960054.0944
  -4005370.18447  -3109446.72646  21063622.2344                   21063620.8014
 -19026649.19148 -14812910.26846  20020933.2664                   20020931.6484
  -2134804.66447  -1649508.42144  22790908.3364                   22790908.2034
 -11827603.98847  -9202067.65645  22006902.5084                   22006900.2974
 -12872042.97748 -10013801.02746  21753927.3444                   21753925.1454
 11  8 19 19 30 30.0000000  0  7G17G24G07G08G26G11G28
 -11601886.65648  -9024257.97046  21564881.0944                   21564879.4024
 -10565733.78147  -8220645.62645  21954579.6094                   21954579.0434
  -3977266.57047  -3087547.83046  21068970.6094                   21068969.0984
 -19056831.06648 -14836428.62246  20015189.9454                   20015188.1294
  -2169766.69147  -1676751.60244  22784255.2504                   22784254.7774
 -11809384.14148  -9187870.38445  22010369.3834                   22010367.2304
 -12926894.07448 -10056542.13746  21743489.3364                   21743487.2424
 11  8 19 19 31  0.0000000  0  7G17G24G07G08G26G11G28
 -11688497.63747  -9091747.02846  21548399.1644                   21548397.8404
 -10593942.53547  -8242626.46445  21949211.7194                   21949211.2624
  -3948704.02748  -3065291.36846  21074405.5944                   21074404.0594
 -19086457.66448 -14859514.29847  20009551.8914                   20009550.1764
  -2204137.33647  -1703533.94044  22777714.9924                   22777714.9534
 -11790647.25447  -9173270.21345  22013934.8134                   22013932.8524
 -12981722.71547 -10099265.75046  21733056.1174                   21733053.1334
 11  8 19 19 31 30.0000000  0  7G17G24G07G08G26G11G28
 -11774741.81647  -9158950.26346  21531987.4694                   21531986.0274
 -10621591.16047  -8264170.86145  21943949.9304                   21943950.1804
  -3919684.38348  -3042678.69646  21079927.6174                   21079926.4344
 -19115529.02048 -14882167.31246  20004020.1564                   20004018.4304
  -2237918.29747  -1729856.77444  22771286.1804                   22771286.4654
 -11771395.72347  -9158269.04145  22017598.5704                   22017596.0394
 -13036529.90647 -10141972.64046  21722626.6564                   21722624.2544
 11  8 19 19 32  0.0000000  0  7G17G24G07G08G26G11G28
 -11860618.97347  -9225867.51646  21515645.2504                   21515644.3014
 -10648679.47347  -8285278.63745  21938795.7584                   21938794.8754
  -3890208.91447  -3019710.85546  21085536.7974                   21085535.4184
 -19144043.93048 -14904386.74846  19998593.8524                   19998592.1054
  -2271110.19147  -1755720.61944  22764970.2974                   22764970.0864
 -11751631.37947  -9142868.27545  22021359.4924                   22021357.3874
 -13091315.57047 -10184662.77046  21712201.1804                   21712198.5984
 11  8 19 19 32 30.0000000  0  7G17G24G07G08G26G11G28
 -11946125.46547  -9292495.93046  21499374.3364                   21499373.1024
 -10675203.14547  -8305946.43445  21933748.2034                   21933747.6134
  -3860275.04747  -2996385.82346  21091233.1174                   21091231.9694
 -19171997.94548 -14926169.11346  19993274.4694                   19993272.5944
  -2303710.49247  -1781123.45844  22758766.7274                   22758766.5124
 -11731352.59847  -9127066.63345  22025218.6564                   22025216.3204
 -13146076.57447 -10227333.67946  21701780.5554                   21701778.0634
 11  8 19 19 33  0.0000000  0  7G17G24G07G08G26G11G28
 -12031260.11747  -9358834.59146  21483173.6414                   21483172.2424
 -10701161.34447  -8326173.60245  21928808.5004                   21928808.0314
  -3829883.44148  -2972704.10346  21097016.4924                   21097015.1844
 -19199389.30148 -14947513.03446  19988061.9924                   19988060.1994
  -2335719.41447  -1806065.47444  22752675.2974                   22752674.8714
 -11710560.29747  -9110864.86545  22029175.1564                   22029172.5664
 -13200811.36748 -10269984.15946  21691364.8754                   21691362.3054
 11  8 19 19 33 30.0000000  0  7G17G24G07G08G26G11G28
 -12116031.13747  -9424889.90746  21467041.8444                   21467040.9024
 -10726561.78547  -8345966.12845  21923975.0634                   21923974.6054
  -3799043.15648  -2948672.77346  21102885.1174                   21102883.5354
 -19226224.96147 -14968423.96246  19982955.1564                   19982953.8674
  -2367145.41846  -1830553.30744  22746695.1174                   22746695.0904
 -11689264.06647  -9094270.42445  22033227.4614                   22033225.2304
 -13255528.20347 -10312620.65946  21680952.5554                   21680949.8524
 11  8 19 19 34  0.0000000  0  7G17G24G07G08G26G11G28
 -12200432.72347  -9490657.35546  21450981.1804                   21450980.1174
 -10751398.78547  -8365319.63245  21919248.4224                   21919248.1294
  -3767750.04748  -2924288.59046  21108840.2584                   21108838.7814
 -19252498.81247 -14988897.11346  19977955.4844                   19977954.2344
  -2397984.46946  -1854583.77244  22740827.0234                   22740826.9534
 -11667460.36747  -9077280.56045  22037377.0944                   22037374.4064
 -13310221.26647 -10355238.62146  21670545.0164                   21670542.1804
 11  8 19 19 34 30.0000000  0  7G17G24G07G08G26G11G28
 -12284469.49247  -9556140.53146  21434989.4924                   21434988.2464
 -10775676.88347  -8384237.63945  21914628.2194                   21914628.2584
  -3736009.88748  -2899556.06146  21114880.4064                   21114878.9344
 -19278214.65647 -15008935.45746  19973062.1724                   19973060.3094
  -2428241.76647  -1878160.89744  22735069.3594                   22735069.0164
 -11645155.60247  -9059900.23745  22041621.0234                   22041619.3444
 -13364895.30947 -10397841.77746  21660141.0474                   21660138.2664
 11  8 19 19 35  0.0000000  0  7G17G24G07G08G26G11G28
 -12368140.85547  -9621338.97546  21419067.3754                   21419066.0124
 -10799395.34447  -8402719.55345  21910115.5084                   21910115.3134
  -3703823.41048  -2874475.74846  21121005.1564                   21121003.7974
 -19303370.61747 -15028537.53746  19968275.3834                   19968273.6604
  -2457918.14147  -1901285.35744  22729421.8284                   22729422.1054
 -11622351.22347  -9042130.61245  22045961.0004                   22045958.6294
 -13419549.64847 -10440429.56546  21649740.5004                   21649737.3634
 11  8 19 19 35 30.0000000  0  7G17G24G07G08G26G11G28
 -12451444.28547  -9686250.72546  21403215.1094                   21403213.7584
 -10822551.57847  -8420763.34645  21905708.6954                   21905708.5204
  -3671189.16848  -2849046.52146  21127215.4534                   21127213.9534
 -19327963.84848 -15047701.10746  19963595.0944                   19963593.4614
  -2487011.82447  -1923955.78844  22723885.6884                   22723885.2074
 -11599046.82847  -9023971.36645  22050395.8444                   22050393.7304
 -13474181.67647 -10482999.97846  21639344.0784                   21639341.8524
 11  8 19 19 36  0.0000000  0  7G17G24G07G08G26G11G28
 -12534382.30147  -9750877.72546  21387432.5164                   21387430.9964
 -10845148.09047  -8438371.01945  21901408.8444                   21901408.8284
  -3638111.31648  -2823271.63446  21133510.1484                   21133508.3954
 -19351996.03147 -15066427.51846  19959021.7424                   19959020.1804
  -2515526.66846  -1946175.15944  22718459.3364                   22718458.9654
 -11575246.74247  -9005425.87745  22054924.8594                   22054923.0004
 -13528794.03147 -10525555.04246  21628951.7894                   21628949.2704
 11  8 19 19 36 30.0000000  0  7G17G24G07G08G26G11G28
 -12616950.57047  -9815216.60646  21371720.1564                   21371719.1294
 -10867180.53147  -8455539.14245  21897216.5084                   21897216.0234
  -3604586.55548  -2797148.50146  21139889.5634                   21139888.1764
 -19375462.26247 -15084712.91346  19954556.3984                   19954554.7584
  -2543459.44546  -1967940.98144  22713143.7734                   22713143.9614
 -11550948.31647  -8986492.06645  22059548.6174                   22059546.4264
 -13583382.06247 -10568091.16946  21618564.2114                   21618561.6884
 11  8 19 19 37  0.0000000  0  7G17G24G07G08G26G11G28
 -12699150.10247  -9879268.18146  21356078.7274                   21356076.8714
 -10888650.05547  -8472268.64245  21893130.4304                   21893130.2424
  -3570618.16047  -2770679.66646  21146353.5784                   21146352.0634
 -19398362.57447 -15102557.34246  19950198.7424                   19950197.3284
  -2570812.26646  -1989254.90044  22707938.9924                   22707939.2034
 -11526155.04347  -8967172.64845  22064266.6094                   22064264.5984
 -13637946.91047 -10610609.22746  21608180.5394                   21608177.7664
 11  8 19 19 37 30.0000000  0  7G17G24G07G08G26G11G28
 -12780981.00847  -9943032.49946  21340506.3754                   21340505.0004
 -10909556.65247  -8488559.48445  21889152.1414                   21889151.8404
  -3536206.82047  -2743865.69646  21152901.7274                   21152900.7344
 -19420696.46547 -15119960.39846  19945948.7734                   19945947.0314
  -2597586.53546  -2010118.01044  22702843.8834                   22702844.0084
 -11500869.07047  -8947469.32745  22069078.0474                   22069076.1254
 -13692488.41847 -10653109.08946  21597801.8364                   21597799.4454
 11  8 19 19 38  0.0000000  0  7G17G24G07G08G26G11G28
 -12862441.02747 -10006507.81646  21325004.7504                   21325003.5164
 -10929897.85547  -8504409.77145  21885281.2584                   21885281.1644
  -3501351.82847  -2716706.01946  21159534.4384                   21159533.2704
 -19442460.77748 -15136919.62246  19941806.9224                   19941805.5394
  -2623781.02347  -2030529.35344  22697859.3594                   22697858.9694
 -11475089.81647  -8927381.61545  22073984.0554                   22073981.3984
 -13747004.00848 -10695588.77446  21587428.0234                   21587425.1054
 11  8 19 19 38 30.0000000  0  7G17G24G07G08G26G11G28
 -12943530.78947 -10069694.62446  21309574.1644                   21309572.8444
 -10949674.14547  -8519819.85645  21881517.9614                   21881517.8054
  -3466055.11748  -2689202.14846  21166251.0784                   21166249.7424
 -19463655.12548 -15153434.70346  19937773.6564                   19937772.2584
  -2649397.54346  -2050490.29644  22692985.0234                   22692984.7624
 -11448819.75047  -8906911.45745  22078983.1254                   22078981.0824
 -13801494.15248 -10738048.60546  21577059.1564                   21577056.1644
 11  8 19 19 39  0.0000000  0  7G17G24G07G08G26G11G28
 -13024251.62948 -10132593.95746  21294212.9774                   21294211.8364
 -10968887.21147  -8534791.07545  21877861.6564                   21877861.2194
  -3430319.54747  -2661356.31346  21173051.6414                   21173050.1604
 -19484280.76648 -15169506.65846  19933848.9924                   19933847.4534
  -2674438.37547  -2070002.67144  22688219.5394                   22688219.4344
 -11422062.19947  -8886061.43645  22084075.0704                   22084072.6334
 -13855959.93448 -10780489.46846  21566694.1484                   21566691.6524
 11  8 19 19 39 30.0000000  0  7G17G24G07G08G26G11G28
 -13104600.11747 -10195203.15246  21278923.3984                   21278922.2114
 -10987533.59047  -8549320.72145  21874313.9224                   21874313.1914
  -3394143.02747  -2633166.87646  21179935.7504                   21179934.1054
 -19504333.56248 -15185132.23246  19930033.2734                   19930031.5164
  -2698901.69147  -2089065.02444  22683564.6724                   22683564.4344
 -11394815.82447  -8864830.51445  22089259.4224                   22089257.4654
 -13910397.78947 -10822908.55546  21556335.3364                   21556332.5004
 11  8 19 19 40  0.0000000  0  7G17G24G07G08G26G11G28
 -13184575.73048 -10257521.78946  21263704.8834                   21263703.3444
 -11005612.76647  -8563408.38345  21870873.0474                   21870872.7074
  -3357526.25047  -2604634.36846  21186903.6564                   21186902.2114
 -19523812.06648 -15200310.30346  19926326.4774                   19926324.9924
  -2722787.70347  -2107677.53144  22679019.8364                   22679018.9844
 -11367082.11347  -8843219.85145  22094537.1024                   22094535.1844
 -13964807.05547 -10865305.38546  21545981.0634                   21545978.8714
 11  8 19 19 40 30.0000000  0  7G17G24G07G08G26G11G28
 -13264181.69547 -10319552.39046  21248556.1334                   21248554.8674
 -11023128.21147  -8577056.78245  21867540.0084                   21867539.9694
  -3320474.07047  -2575762.60046  21193954.4384                   21193953.4144
 -19542719.37948 -15215043.29246  19922728.6254                   19922726.9924
  -2746101.44947  -2125844.08444  22674582.5864                   22674582.2544
 -11338866.60547  -8821233.75645  22099906.2274                   22099903.8324
 -14019190.61347 -10907682.17846  21535632.1024                   21535629.7274
 11  8 19 19 41  0.0000000  0  7G17G24G07G08G26G11G28
 -13343417.11748 -10381294.24146  21233478.2664                   21233476.8914
 -11040078.95347  -8590265.14345  21864314.8754                   21864314.3954
  -3282986.69947  -2546551.70546  21201088.2584                   21201086.7814
 -19561053.41848 -15229329.57846  19919239.8364                   19919238.2584
  -2768843.18046  -2143564.95144  22670255.3364                   22670255.0274
 -11310169.77047  -8798872.61645  22105367.3524                   22105365.4384
 -14073547.25447 -10950038.00046  21525289.0234                   21525286.2234
 11  8 19 19 41 30.0000000  0  7G17G24G07G08G26G11G28
 -13422282.10948 -10442747.45946  21218470.7114                   21218469.1914
 -11056464.86747  -8603033.38545  21861196.3674                   21861196.1604
  -3245065.52348  -2517002.79946  21208304.3524                   21208303.0124
 -19578813.61748 -15243168.70646  19915860.0784                   19915858.5434
  -2791013.54347  -2160840.58244  22666035.7664                   22666035.6604
 -11280993.64847  -8776137.99645  22110918.8754                   22110917.0634
 -14127876.30148 -10992372.32846  21514950.1804                   21514947.7384
 11  8 19 19 42  0.0000000  0  7G17G24G07G08G26G11G28
 -13500782.00047 -10503916.19046  21203532.2894                   21203531.4454
 -11072291.94948  -8615366.17145  21858184.7974                   21858184.1334
  -3206717.81248  -2487121.52546  21215601.4924                   21215600.3834
 -19596005.17248 -15256564.74546  19912588.4454                   19912587.2464
  -2812620.12146  -2177676.92744  22661924.0234                   22661924.6884
 -11251346.29747  -8753036.19045  22116560.7274                   22116559.6094
 -14182183.38748 -11034689.53646  21504615.7664                   21504613.5124
 11  8 19 19 42 30.0000000  0  7G17G24G07G08G26G11G28
 -13578912.06647 -10564796.73646  21188664.8364                   21188663.3134
 -11087555.27048  -8627259.66445  21855280.0314                   21855279.5434
  -3167939.83248  -2456904.98146  21222981.0394                   21222979.9064
 -19612622.28148 -15269513.16946  19909426.3524                   19909425.1174
  -2833658.98047  -2194070.88944  22657921.5554                   22657920.5434
 -11221224.53947  -8729564.73345  22122292.8204                   22122291.1094
 -14236463.27048 -11076985.55346  21494286.7734                   21494284.1454
 11  8 19 19 43  0.0000000  0  7G17G24G07G08G26G11G28
 -12081251.72747  -9397788.65646  21473659.8984                   21473658.8554
  -9526836.52747  -7411115.19345  22152275.2584                   22152274.7974
  -1553316.50048  -1198757.00846  21530233.7814                   21530232.3364
 -18053245.64847 -14054414.51746  20206165.7734                   20206164.5704
  -1278712.71147   -982424.48644  22953817.9064                   22953817.7274
  -9615213.40247  -7478127.51745  22427907.0004                   22427904.8834
 -12715295.69948  -9891660.17246  21783755.0554                   21783752.8014
 11  8 19 19 43 30.0000000  0  7G17G24G07G08G26G11G28
 -12158643.33248  -9458093.77846  21458933.1174                   21458932.0004
  -9540973.80547  -7422131.27045  22149585.5394                   22149584.4924
  -1513683.28148  -1167874.04746  21537776.0394                   21537774.3524
 -18068713.12148 -14066467.11046  20203222.9844                   20203221.3834
  -1298621.11746   -997937.55744  22950029.5474                   22950029.8134
  -9584149.97347  -7453922.27245  22433818.1484                   22433816.3674
 -12769520.87948  -9933913.55346  21773436.7734                   21773433.8324
 11  8 19 19 44  0.0000000  0  7G17G24G07G08G26G11G28
 -12235668.10948  -9518113.05046  21444275.5314                   21444274.0594
  -9554550.46148  -7432710.48245  22147001.6254                   22147001.0474
  -1473627.18747  -1136661.55346  21545398.0234                   21545397.0904
 -18083607.69548 -14078073.30146  20200388.2734                   20200386.6684
  -1317968.60547  -1013013.56345  22946347.4454                   22946347.6414
  -9552621.20747  -7429354.42945  22439817.7584                   22439815.6334
 -12823720.43048  -9976146.97246  21763122.8134                   21763120.4344
 11  8 19 19 44 30.0000000  0  7G17G24G07G08G26G11G28
 -12312329.30948  -9577849.02946  21429687.3914                   21429686.4184
  -9567570.39547  -7442855.88245  22144523.9454                   22144523.3444
  -1433152.74648  -1105123.10146  21553100.4304                   21553099.1524
 -18097931.93748 -14089235.06346  20197663.0164                   20197661.1604
  -1336759.82047  -1027656.08844  22942771.8284                   22942772.2664
  -9520632.18747  -7404427.94145  22445905.2034                   22445903.0084
 -12877897.19148 -10018362.63346  21752813.2034                   21752811.0784
 11  8 19 19 45  0.0000000  0  7G17G24G07G08G26G11G28
 -12388622.57848  -9637298.31146  21415169.4384                   21415168.1844
  -9580029.55147  -7452564.33145  22142153.0084                   22142152.2854
  -1392257.45348  -1073256.71246  21560882.3444                   21560881.2194
 -18111681.42248 -14099948.97646  20195045.9454                   20195044.4064
  -1354992.31247  -1041863.26245  22939302.5784                   22939302.8134
  -9488181.03547  -7379141.38345  22452080.2344                   22452078.3444
 -12932046.59848 -10060556.96346  21742509.0864                   21742506.3834
 11  8 19 19 45 30.0000000  0  7G17G24G07G08G26G11G28
 -12464549.68048  -9696462.25046  21400720.8524                   21400719.6954
  -9591929.50847  -7461837.02945  22139888.1954                   22139887.6564
  -1350943.89848  -1041064.37846  21568744.2584                   21568743.1374
 -18124856.82848 -14110215.54646  20192539.0474                   20192537.5314
  -1372668.60547  -1055637.02544  22935938.7114                   22935938.2624
  -9455270.97747  -7353497.19744  22458342.8204                   22458340.4494
 -12986169.48848 -10102730.62346  21732209.7344                   21732207.4654
 11  8 19 19 46  0.0000000  0  7G17G24G07G08G26G11G28
 -12540114.74248  -9755344.10246  21386341.4694                   21386340.3014
  -9603274.27347  -7470677.10145  22137729.5394                   22137728.7704
  -1309217.43448  -1008550.31246  21576684.6174                   21576683.3364
 -18137461.09447 -14120037.07746  20190140.3984                   20190138.8444
  -1389793.75847  -1068981.33744  22932679.6484                   22932680.1174
  -9421907.92647  -7327500.04444  22464691.8444                   22464689.7774
 -13040269.25848 -10144886.28046  21721914.5944                   21721912.3444
 11  8 19 19 46 30.0000000  0  7G17G24G07G08G26G11G28
 -12615314.76248  -9813941.48946  21372031.3134                   21372029.7734
  -9614061.61747  -7479082.83445  22135676.3914                   22135676.3524
  -1267076.95348   -975713.64446  21584703.5784                   21584702.7734
 -18149491.72748 -14129411.62346  20187851.3834                   20187849.8244
  -1406366.80947  -1081895.45044  22929526.0394                   22929525.9924
  -9388091.16447  -7301149.34644  22471126.7814                   22471124.9494
 -13094342.60948 -10187021.36346  21711624.8134                   21711622.8014
 11  8 19 19 47  0.0000000  0  7G17G24G07G08G26G11G28
 -12690154.13748  -9872257.86846  21357789.6954                   21357788.6724
  -9624295.84047  -7487057.56945  22133729.3674                   22133728.9534
  -1224527.86348   -942558.57746  21592800.3834                   21592799.4264
 -18160952.05148 -14138341.77346  20185670.2734                   20185668.8754
  -1422393.11746  -1094383.53544  22926476.7734                   22926476.5204
  -9353827.02347  -7274450.03144  22477647.3054                   22477644.7504
 -13148393.23848 -10229138.73646  21701339.4454                   21701337.0004
 11  8 19 19 47 30.0000000  0  7G17G24G07G08G26G11G28
 -12764627.89848  -9930289.33846  21343618.0314                   21343616.5554
  -9633972.33247  -7494597.68645  22131888.0164                   22131887.4964
  -1181567.10548   -909082.72446  21600975.7814                   21600974.6884
 -18171837.05948 -14146823.61546  20183599.3754                   20183597.6024
  -1437869.49647  -1106443.07244  22923531.2274                   22923530.8014
  -9319112.91047  -7247400.09044  22484253.2274                   22484250.9574
 -13202416.12948 -10271234.48746  21691059.5234                   21691057.1914
 11  8 19 19 48  0.0000000  0  7G17G24G07G08G26G11G28
 -12838741.36348  -9988040.05546  21329514.5784                   21329513.2234
  -9643096.44947  -7501707.38145  22130151.5004                   22130150.9184
  -1138201.05548   -875291.05646  21609228.3054                   21609227.1214
 -18182151.40647 -14154860.78346  20181636.3524                   20181634.7624
  -1452802.35547  -1118079.13044  22920689.7194                   22920689.8204
  -9283955.85247  -7220005.01945  22490943.4304                   22490940.8984
 -13256415.34048 -10313311.78546  21680783.6414                   21680781.0664
 11  8 19 19 48 30.0000000  0  7G17G24G07G08G26G11G28
 -12912489.21948 -10045505.90246  21315480.9534                   21315479.4884
  -9651663.60247  -7508383.08345  22128521.0234                   22128520.8054
  -1094426.31248   -841180.93446  21617558.1414                   21617557.0164
 -18191889.89547 -14162449.23646  20179783.0394                   20179781.7074
  -1467188.56647  -1129289.20144  22917952.5004                   22917952.2814
  -9248353.11747  -7192262.66045  22497718.7814                   22497716.3524
 -13310385.68748 -10355366.61046  21670513.6024                   21670510.9494
 11  8 19 19 49  0.0000000  0  7G17G24G07G08G26G11G28
 -12985871.40648 -10102686.79346  21301516.5944                   21301515.1684
  -9659673.52347  -7514624.58545  22126997.2424                   22126996.7274
  -1050243.60948   -806752.91946  21625965.8364                   21625964.6914
 -18201051.01248 -14169587.79746  20178039.9844                   20178038.6334
  -1481028.44547  -1140073.53544  22915318.5474                   22915318.6644
  -9212305.93447  -7164173.95944  22504578.0474                   22504575.4534
 -13364325.51648 -10397397.64046  21660249.2344                   21660246.4774
 11  8 19 19 49 30.0000000  0  7G17G24G07G08G26G11G28
 -13058886.30948 -10159581.50046  21287622.3364                   21287620.6844
  -9667124.89147  -7520430.85345  22125579.2424                   22125578.7234
  -1005652.94148   -772007.00046  21634451.3754                   21634450.1094
 -18209633.12148 -14176275.17546  20176407.0164                   20176405.2194
  -1494322.21947  -1150432.34044  22912788.7814                   22912789.2464
  -9175814.72747  -7135739.29544  22511521.7424                   22511519.5594
 -13418232.68048 -10439403.22546  21649990.8204                   21649988.0904
 11  8 19 19 50  0.0000000  0  7G17G24G07G08G26G11G28
 -13131538.90648 -10216193.89246  21273796.9844                   21273795.5784
  -9674022.85547  -7525805.89345  22124266.2504                   22124266.1054
   -960660.83648   -736948.28446  21643012.9774                   21643012.0474
 -18217640.85248 -14182514.99646  20174883.2344                   20174881.4344
  -1507076.35546  -1160370.63744  22910361.9614                   22910362.5944
  -9138886.63347  -7106964.18744  22518548.7424                   22518546.9884
 -13472111.72348 -10481386.88546  21639738.1254                   21639735.4774
 11  8 19 19 50 30.0000000  0  7G17G24G07G08G26G11G28
 -13203826.67648 -10272521.99846  21260041.0084                   21260039.5004
  -9680365.55947  -7530748.24345  22123059.7114                   22123058.9224
   -915266.21548   -701575.91546  21651651.5864                   21651650.5864
 -18225070.88348 -14188304.63646  20173468.9304                   20173467.6804
  -1519289.65646  -1169887.53244  22908037.6644                   22908037.9964
  -9101520.93047  -7077848.07544  22525659.7664                   22525657.5944
 -13525959.19548 -10523345.94346  21629491.1414                   21629488.7814
 11  8 19 19 51  0.0000000  0  7G17G24G07G08G26G11G28
 -13275747.18748 -10328563.92346  21246354.8984                   21246352.9804
  -9686150.92247  -7535256.33445  22121959.0704                   22121958.3674
   -869467.99647   -665889.05346  21660366.4534                   21660365.6524
 -18231920.75848 -14193642.22546  20172166.0084                   20172163.9964
  -1530961.25847  -1178982.31445  22905816.9774                   22905816.4454
  -9063717.44947  -7048390.86644  22532853.3984                   22532851.3954
 -13579771.91048 -10565277.91846  21619250.9694                   21619248.4264
 11  8 19 19 51 30.0000000  0  8G17G24G07G08G26G11G04G28
 -13347310.16448 -10384327.25846  21232736.5864                   21232735.4534
  -9691388.60247  -7539337.64345  22120962.0314                   22120961.4144
   -823277.37548   -629896.42146  21669156.3834                   21669155.3954
 -18238199.83248 -14198535.03746  20170970.8204                   20170969.3674
  -1542102.46546  -1187663.82444  22903696.5864                   22903696.9064
  -9025487.91047  -7018601.62944  22540127.8204                   22540126.2664
  12358104.60956   9646730.79353  24622700.1254                   24622702.6884
 -13633558.88348 -10607189.84946  21609015.6954                   21609013.1804
 11  8 19 19 52  0.0000000  0  8G17G24G07G08G26G11G04G28
 -13418526.41048 -10439820.38746  21219185.0084                   21219183.5594
  -9696089.86747  -7543000.96345  22120067.3524                   22120066.9694
   -776706.49648   -593607.49246  21678018.7504                   21678017.6804
 -18243918.25048 -14202990.94846  20169882.6564                   20169881.3284
  -1552725.54747  -1195941.57244  22901675.3134                   22901675.2504
  -8986845.09447  -6988490.37944  22547481.9454                   22547479.6644
  12212275.30546   9533097.96743  24594949.2894                   24594954.8984
 -13687330.12148 -10649089.49946  21598783.1334                   21598780.9024
 11  8 19 19 52 30.0000000  0  8G17G24G07G08G26G11G04G28
 -13489396.74248 -10495044.00746  21205698.5704                   21205697.1564
  -9700256.29347  -7546247.55045  22119274.1094                   22119274.1374
   -729758.13347   -557024.41946  21686952.7274                   21686951.6724
 -18249076.72748 -14207010.57346  20168901.0314                   20168899.6564
  -1562832.97347  -1203817.55044  22899752.2504                   22899752.2274
  -8947791.76247  -6958059.25944  22554913.0084                   22554911.4654
  12066356.80946   9419395.56543  24567182.2114                   24567186.8714
 -13741085.72748 -10690976.99046  21588553.8984                   21588551.5984
 11  8 19 19 53  0.0000000  0  8G17G24G07G08G26G11G04G28
 -13559916.53148 -10549994.47046  21192279.2584                   21192278.0354
  -9703882.77747  -7549073.37445  22118584.3834                   22118583.7934
   -682428.21948   -520144.00846  21695959.1954                   21695958.1024
 -18253669.90247 -14210589.69446  20168026.8984                   20168025.1684
  -1572420.85547  -1211288.64844  22897927.4534                   22897927.2774
  -8908324.79347  -6927305.78044  22562423.2504                   22562422.1484
  11920357.59847   9305630.23543  24539398.8914                   24539403.4964
 -13794819.62548 -10732847.54746  21578328.5864                   21578326.1764
 11  8 19 19 53 30.0000000  0  8G17G24G07G08G26G11G04G28
 -13630081.48848 -10604668.43846  21178927.5164                   21178925.6214
  -9706965.75847  -7551475.68145  22117997.7344                   22117997.2274
   -634714.13747   -482964.26446  21705038.7034                   21705038.1724
 -18257693.29748 -14213724.82346  20167261.6484                   20167260.1024
  -1581487.14846  -1218353.35644  22896202.1414                   22896202.2074
  -8868442.08647  -6896228.38044  22570013.5004                   22570010.8714
  11774284.59847   9191807.41843  24511602.3594                   24511606.2814
 -13848526.94548 -10774697.40746  21568108.6094                   21568106.0634
 11  8 19 19 54  0.0000000  0  8G17G24G07G08G26G11G04G28
 -13699889.41847 -10659064.21346  21165643.1094                   21165641.9264
  -9709503.46547  -7553453.11945  22117514.8594                   22117514.2424
   -586615.29748   -445484.72046  21714192.0784                   21714190.9384
 -18261144.50847 -14216414.11146  20166604.8204                   20166603.3134
  -1590030.71547  -1225010.73044  22894576.4454                   22894576.1414
  -8828143.68447  -6864827.04444  22577681.8524                   22577679.6564
  11628142.71947   9077930.97943  24483792.1564                   24483796.8014
 -13902204.51648 -10816524.07846  21557893.9614                   21557891.5634
